Darstellungsparameter: Aktuell verwendete Einstellungen:
Skalierung der Graphiken ... ?
xyx+y,   Skalierungsfaktor:      Skalierung: Modus: x, Faktor: 1
Darstellungszeitraum ... ?
Vom - - bis: - -   Zeitraum: 23.05.2015 - 29.05.2015
Min/Max/Avg-Anzeige ... ?
Zeige MMA aktuell
Zeige MMA Monat
Zeige MMA alles
Zeige --A aktuell
Zeige --A Monat
Zeige --A alles
Keine MMA-Anzeige
MMA:
Average (ber die Originaldaten)
MMA-Basis: 23.05.2015 - 29.05.2015
Quicknavigation für Darstellung... ?
Tage:      1T, 2T, 3T, 5T -1T -2T -3T -5T +1T +2T +3T +5T
Wochen: 1W, 2W, 3W -1W -2W -3W +1W +2W +3W
Monate: 1M, 3M, 6M -1M -3M -6M +1M +3M +6M
Jahre:    1J, 3J, 5J, 10J -1J -3J -5J -10J +1J +3J +5J +10J
Nutze für die Darstellung ... ?
Originaldaten oder Mittelwerte auf ...
Stundenbasis Tagesbasis Wochenbasis
Monatsbasis Jahresbasis      Datenbasis: Original-Daten
Darstellen als:
Statistik (Auto) Statistik J:M      Darstellung:
Zur Graphik,    zurück zur Übersicht aller Sensoren.
 
Tabellarische Datenbersicht: ?
 
Sensor: Nr:Datum:Temp:Abs-Feuchte:Windchill:Wind:
Aussen-T/F 1 23-05-2015 00:00:00 14.2 C 8.18 g/m*3 14.2 C 0 km/h
2 23-05-2015 00:05:00 14.3 C 8.48 g/m*3 14.3 C 0 km/h
3 23-05-2015 00:10:00 14.2 C 8.43 g/m*3 14.2 C 0 km/h
4 23-05-2015 00:15:00 14.2 C 8.43 g/m*3 14.2 C 0 km/h
5 23-05-2015 00:20:00 14.1 C 8.5 g/m*3 14.1 C 0 km/h
6 23-05-2015 00:25:00 14 C 8.44 g/m*3 14 C 0 km/h
7 23-05-2015 00:30:00 13.9 C 8.51 g/m*3 13.9 C 0 km/h
8 23-05-2015 00:35:00 13.9 C 8.51 g/m*3 13.9 C 0 km/h
9 23-05-2015 00:40:00 13.8 C 8.46 g/m*3 13.8 C 0 km/h
10 23-05-2015 00:45:00 13.7 C 8.53 g/m*3 13.7 C 0 km/h
11 23-05-2015 00:50:00 13.6 C 8.59 g/m*3 13.6 C 0 km/h
12 23-05-2015 00:55:00 13.5 C 8.54 g/m*3 13.5 C 0 km/h
13 23-05-2015 01:00:00 13.4 C 8.49 g/m*3 13.4 C 0 km/h
14 23-05-2015 01:05:00 13.3 C 8.43 g/m*3 13.3 C 0 km/h
15 23-05-2015 01:10:00 13.3 C 8.32 g/m*3 13.3 C 0 km/h
16 23-05-2015 01:15:00 13.3 C 8.43 g/m*3 13.3 C 0 km/h
17 23-05-2015 01:20:00 13.2 C 8.38 g/m*3 13.2 C 0 km/h
18 23-05-2015 01:25:00 13.2 C 8.38 g/m*3 13.2 C 0 km/h
19 23-05-2015 01:30:00 13.2 C 8.5 g/m*3 13.2 C 0 km/h
20 23-05-2015 01:35:00 13.2 C 8.5 g/m*3 13.2 C 0 km/h
21 23-05-2015 01:40:00 13.2 C 8.5 g/m*3 13.2 C 0 km/h
22 23-05-2015 01:45:00 13.1 C 8.44 g/m*3 13.1 C 0 km/h
23 23-05-2015 01:50:00 13.1 C 8.44 g/m*3 13.1 C 0 km/h
24 23-05-2015 01:55:00 13 C 8.51 g/m*3 13 C 0 km/h
25 23-05-2015 02:00:00 12.9 C 8.45 g/m*3 12.9 C 0 km/h
Sensor: Nr:Datum:Temp:Abs-Feuchte:Windchill:Wind:
Aussen-T/F 26 23-05-2015 02:05:00 12.9 C 8.45 g/m*3 12.9 C 0 km/h
27 23-05-2015 02:10:00 12.9 C 8.34 g/m*3 12.9 C 0 km/h
28 23-05-2015 02:15:00 12.8 C 8.29 g/m*3 12.8 C 0 km/h
29 23-05-2015 02:20:00 12.8 C 8.51 g/m*3 12.8 C 0 km/h
30 23-05-2015 02:25:00 12.7 C 8.46 g/m*3 12.7 C 0 km/h
31 23-05-2015 02:30:00 12.7 C 8.46 g/m*3 12.7 C 0 km/h
32 23-05-2015 02:35:00 12.6 C 8.41 g/m*3 12.6 C 0 km/h
33 23-05-2015 02:40:00 12.6 C 8.41 g/m*3 12.6 C 0 km/h
34 23-05-2015 02:45:00 12.5 C 8.36 g/m*3 12.5 C 0 km/h
35 23-05-2015 02:50:00 12.4 C 8.3 g/m*3 12.4 C 1.6 km/h
36 23-05-2015 02:55:00 12.4 C 8.41 g/m*3 12.4 C 1.6 km/h
37 23-05-2015 03:00:00 12.3 C 8.36 g/m*3 12.3 C 0 km/h
38 23-05-2015 03:05:00 12.3 C 8.36 g/m*3 12.3 C 0 km/h
39 23-05-2015 03:10:00 12.3 C 8.36 g/m*3 12.3 C 0 km/h
40 23-05-2015 03:15:00 12.3 C 8.47 g/m*3 12.3 C 0 km/h
41 23-05-2015 03:20:00 12.3 C 8.47 g/m*3 12.3 C 0 km/h
42 23-05-2015 03:25:00 12.3 C 8.47 g/m*3 12.3 C 0 km/h
43 23-05-2015 03:30:00 12.3 C 8.47 g/m*3 12.3 C 0 km/h
44 23-05-2015 03:35:00 12.3 C 8.47 g/m*3 12.3 C 0 km/h
45 23-05-2015 03:40:00 12.3 C 8.47 g/m*3 12.3 C 0 km/h
46 23-05-2015 03:45:00 12.2 C 8.52 g/m*3 12.2 C 0 km/h
47 23-05-2015 03:50:00 12.2 C 8.52 g/m*3 12.2 C 0 km/h
48 23-05-2015 03:55:00 12.2 C 8.52 g/m*3 12.2 C 0 km/h
49 23-05-2015 04:00:00 12.2 C 8.52 g/m*3 12.2 C 0 km/h
50 23-05-2015 04:05:00 12.2 C 8.52 g/m*3 12.2 C 0 km/h
Sensor: Nr:Datum:Temp:Abs-Feuchte:Windchill:Wind:
Aussen-T/F 51 23-05-2015 04:10:00 12.2 C 8.52 g/m*3 12.2 C 0 km/h
52 23-05-2015 04:15:00 12.2 C 8.52 g/m*3 12.2 C 0 km/h
53 23-05-2015 04:20:00 12.3 C 8.47 g/m*3 12.3 C 1.6 km/h
54 23-05-2015 04:25:00 12.4 C 8.3 g/m*3 12.4 C 0 km/h
55 23-05-2015 04:30:00 12.6 C 8.52 g/m*3 12.6 C 1.6 km/h
56 23-05-2015 04:35:00 12.6 C 8.63 g/m*3 12.6 C 0 km/h
57 23-05-2015 04:40:00 12.6 C 8.52 g/m*3 12.6 C 0 km/h
58 23-05-2015 04:45:00 12.6 C 8.63 g/m*3 12.6 C 0 km/h
59 23-05-2015 04:50:00 12.6 C 8.63 g/m*3 12.6 C 0 km/h
60 23-05-2015 04:55:00 12.5 C 8.47 g/m*3 12.5 C 0 km/h
61 23-05-2015 05:00:00 12.4 C 8.52 g/m*3 12.4 C 0 km/h
62 23-05-2015 05:05:00 12.3 C 8.47 g/m*3 12.3 C 0 km/h
63 23-05-2015 05:10:00 12.1 C 8.47 g/m*3 12.1 C 0 km/h
64 23-05-2015 05:15:00 11.9 C 8.47 g/m*3 11.9 C 0 km/h
65 23-05-2015 05:20:00 11.7 C 8.37 g/m*3 11.7 C 0 km/h
66 23-05-2015 05:25:00 11.6 C 8.32 g/m*3 11.6 C 0 km/h
67 23-05-2015 05:30:00 11.6 C 8.42 g/m*3 11.6 C 0 km/h
68 23-05-2015 05:35:00 11.6 C 8.42 g/m*3 11.6 C 0 km/h
69 23-05-2015 05:40:00 11.6 C 8.42 g/m*3 11.6 C 0 km/h
70 23-05-2015 05:45:00 11.7 C 8.47 g/m*3 11.7 C 0 km/h
71 23-05-2015 05:50:00 11.7 C 8.47 g/m*3 11.7 C 0 km/h
72 23-05-2015 05:55:00 11.8 C 8.53 g/m*3 11.8 C 0 km/h
73 23-05-2015 06:00:00 11.8 C 8.63 g/m*3 11.8 C 3.2 km/h
74 23-05-2015 06:05:00 11.9 C 8.68 g/m*3 11.9 C 0 km/h
75 23-05-2015 06:10:00 11.9 C 8.68 g/m*3 11.9 C 0 km/h
Sensor: Nr:Datum:Temp:Abs-Feuchte:Windchill:Wind:
Aussen-T/F 76 23-05-2015 06:15:00 11.8 C 8.63 g/m*3 11.8 C 0 km/h
77 23-05-2015 06:20:00 11.8 C 8.74 g/m*3 11.8 C 0 km/h
78 23-05-2015 06:25:00 11.8 C 8.63 g/m*3 11.8 C 0 km/h
79 23-05-2015 06:30:00 11.8 C 8.74 g/m*3 11.8 C 0 km/h
80 23-05-2015 06:35:00 11.8 C 8.74 g/m*3 11.8 C 0 km/h
81 23-05-2015 06:40:00 11.9 C 8.79 g/m*3 11.9 C 0 km/h
82 23-05-2015 06:45:00 11.9 C 8.79 g/m*3 11.9 C 0 km/h
83 23-05-2015 06:50:00 12 C 8.85 g/m*3 12 C 0 km/h
84 23-05-2015 06:55:00 12.1 C 8.9 g/m*3 12.1 C 0 km/h
85 23-05-2015 07:00:00 12.1 C 8.9 g/m*3 12.1 C 1.6 km/h
86 23-05-2015 07:05:00 12.2 C 8.85 g/m*3 12.2 C 0 km/h
87 23-05-2015 07:10:00 12.2 C 8.85 g/m*3 12.2 C 0 km/h
88 23-05-2015 07:15:00 12.3 C 8.9 g/m*3 12.3 C 0 km/h
89 23-05-2015 07:20:00 12.3 C 8.9 g/m*3 12.3 C 0 km/h
90 23-05-2015 07:25:00 12.4 C 8.85 g/m*3 12.4 C 0 km/h
91 23-05-2015 07:30:00 12.5 C 8.91 g/m*3 12.5 C 0 km/h
92 23-05-2015 07:35:00 12.6 C 8.85 g/m*3 12.6 C 1.6 km/h
93 23-05-2015 07:40:00 12.6 C 8.96 g/m*3 12.6 C 0 km/h
94 23-05-2015 07:45:00 12.7 C 8.91 g/m*3 12.7 C 1.6 km/h
95 23-05-2015 07:50:00 12.7 C 9.02 g/m*3 12.7 C 1.6 km/h
96 23-05-2015 07:55:00 12.8 C 8.96 g/m*3 12.8 C 1.6 km/h
97 23-05-2015 08:00:00 12.8 C 9.07 g/m*3 12.8 C 0 km/h
98 23-05-2015 08:05:00 12.9 C 9.02 g/m*3 12.9 C 0 km/h
99 23-05-2015 08:10:00 12.9 C 8.79 g/m*3 12.9 C 0 km/h
100 23-05-2015 08:15:00 13.1 C 9.01 g/m*3 13.1 C 3.2 km/h
Sensor: Nr:Datum:Temp:Abs-Feuchte:Windchill:Wind:
Aussen-T/F 101 23-05-2015 08:20:00 13.2 C 9.07 g/m*3 13.2 C 3.2 km/h
102 23-05-2015 08:25:00 13.3 C 9.13 g/m*3 13.3 C 0 km/h
103 23-05-2015 08:30:00 13.4 C 9.18 g/m*3 13.4 C 0 km/h
104 23-05-2015 08:35:00 13.6 C 9.3 g/m*3 13.6 C 0 km/h
105 23-05-2015 08:40:00 13.7 C 9.24 g/m*3 13.7 C 0 km/h
106 23-05-2015 08:45:00 13.7 C 9.12 g/m*3 13.7 C 0 km/h
107 23-05-2015 08:50:00 13.8 C 9.17 g/m*3 13.8 C 0 km/h
108 23-05-2015 08:55:00 13.9 C 9.23 g/m*3 13.9 C 0 km/h
109 23-05-2015 09:00:00 13.9 C 9.23 g/m*3 13.9 C 0 km/h
110 23-05-2015 09:05:00 14.1 C 9.22 g/m*3 14.1 C 0 km/h
111 23-05-2015 09:10:00 14.2 C 9.16 g/m*3 14.2 C 0 km/h
112 23-05-2015 09:15:00 14.2 C 9.28 g/m*3 14.2 C 1.6 km/h
113 23-05-2015 09:20:00 14.4 C 9.39 g/m*3 14.4 C 3.2 km/h
114 23-05-2015 09:25:00 14.4 C 9.27 g/m*3 14.4 C 3.2 km/h
115 23-05-2015 09:30:00 14.6 C 9.39 g/m*3 14.6 C 6.4 km/h
116 23-05-2015 09:35:00 14.7 C 9.44 g/m*3 14.7 C 6.4 km/h
117 23-05-2015 09:40:00 14.7 C 9.19 g/m*3 14.7 C 6.4 km/h
118 23-05-2015 09:45:00 14.8 C 9.25 g/m*3 14.8 C 8.1 km/h
119 23-05-2015 09:50:00 14.9 C 9.3 g/m*3 14.9 C 1.6 km/h
120 23-05-2015 09:55:00 15.1 C 9.29 g/m*3 15.1 C 3.2 km/h
121 23-05-2015 10:00:00 15.3 C 9.4 g/m*3 15.3 C 1.6 km/h
122 23-05-2015 10:05:00 15.5 C 9.39 g/m*3 15.5 C 4.8 km/h
123 23-05-2015 10:10:00 15.6 C 9.44 g/m*3 15.6 C 4.8 km/h
124 23-05-2015 10:15:00 15.7 C 9.63 g/m*3 15.7 C 6.4 km/h
125 23-05-2015 10:20:00 15.7 C 9.63 g/m*3 15.7 C 4.8 km/h
Sensor: Nr:Datum:Temp:Abs-Feuchte:Windchill:Wind:
Aussen-T/F 126 23-05-2015 10:25:00 15.8 C 9.56 g/m*3 15.8 C 4.8 km/h
127 23-05-2015 10:30:00 15.8 C 9.56 g/m*3 15.8 C 4.8 km/h
128 23-05-2015 10:35:00 15.9 C 9.48 g/m*3 15.9 C 3.2 km/h
129 23-05-2015 10:40:00 16.1 C 9.87 g/m*3 16.1 C 6.4 km/h
130 23-05-2015 10:45:00 16.2 C 9.79 g/m*3 16.2 C 3.2 km/h
131 23-05-2015 10:50:00 16.2 C 9.52 g/m*3 16.2 C 1.6 km/h
132 23-05-2015 10:55:00 16.3 C 9.99 g/m*3 16.3 C 3.2 km/h
133 23-05-2015 11:00:00 16.3 C 9.71 g/m*3 16.3 C 1.6 km/h
134 23-05-2015 11:05:00 16.3 C 9.43 g/m*3 16.3 C 0 km/h
135 23-05-2015 11:10:00 16.3 C 9.71 g/m*3 16.3 C 1.6 km/h
136 23-05-2015 11:15:00 16.4 C 9.91 g/m*3 16.4 C 3.2 km/h
137 23-05-2015 11:20:00 16.6 C 9.89 g/m*3 16.6 C 8.1 km/h
138 23-05-2015 11:25:00 16.8 C 9.87 g/m*3 16.8 C 3.2 km/h
139 23-05-2015 11:30:00 16.9 C 9.92 g/m*3 16.9 C 6.4 km/h
140 23-05-2015 11:35:00 17.1 C 10.19 g/m*3 17.1 C 3.2 km/h
141 23-05-2015 11:40:00 17.2 C 9.96 g/m*3 17.2 C 4.8 km/h
142 23-05-2015 11:45:00 17.4 C 10.08 g/m*3 17.4 C 6.4 km/h
143 23-05-2015 11:50:00 17.4 C 9.78 g/m*3 17.4 C 6.4 km/h
144 23-05-2015 11:55:00 17.5 C 9.99 g/m*3 17.5 C 6.4 km/h
145 23-05-2015 12:00:00 17.6 C 10.05 g/m*3 17.6 C 3.2 km/h
146 23-05-2015 12:05:00 17.7 C 10.11 g/m*3 17.7 C 4.8 km/h
147 23-05-2015 12:10:00 17.8 C 10.32 g/m*3 17.8 C 4.8 km/h
148 23-05-2015 12:15:00 17.8 C 10.32 g/m*3 17.8 C 4.8 km/h
149 23-05-2015 12:20:00 18 C 10.29 g/m*3 18 C 9.7 km/h
150 23-05-2015 12:25:00 18.1 C 10.04 g/m*3 18.1 C 8.1 km/h
Sensor: Nr:Datum:Temp:Abs-Feuchte:Windchill:Wind:
Aussen-T/F 151 23-05-2015 12:30:00 18.1 C 10.04 g/m*3 18.1 C 4.8 km/h
152 23-05-2015 12:35:00 18.2 C 10.26 g/m*3 18.2 C 8.1 km/h
153 23-05-2015 12:40:00 18.4 C 10.07 g/m*3 18.4 C 4.8 km/h
154 23-05-2015 12:45:00 18.6 C 9.87 g/m*3 18.6 C 3.2 km/h
155 23-05-2015 12:50:00 18.6 C 9.87 g/m*3 18.6 C 6.4 km/h
156 23-05-2015 12:55:00 18.8 C 10.47 g/m*3 18.8 C 6.4 km/h
157 23-05-2015 13:00:00 19 C 9.94 g/m*3 19 C 6.4 km/h
158 23-05-2015 13:05:00 19.2 C 10.22 g/m*3 19.2 C 6.4 km/h
159 23-05-2015 13:10:00 19.3 C 9.95 g/m*3 19.3 C 6.4 km/h
160 23-05-2015 13:15:00 19.5 C 10.07 g/m*3 19.5 C 9.7 km/h
161 23-05-2015 13:20:00 19.6 C 9.96 g/m*3 19.6 C 12.9 km/h
162 23-05-2015 13:25:00 19.7 C 9.85 g/m*3 19.7 C 12.9 km/h
163 23-05-2015 13:30:00 19.9 C 10.48 g/m*3 19.9 C 6.4 km/h
164 23-05-2015 13:35:00 20.1 C 9.91 g/m*3 20.1 C 6.4 km/h
165 23-05-2015 13:40:00 20.2 C 9.79 g/m*3 20.2 C 8.1 km/h
166 23-05-2015 13:45:00 20.4 C 9.73 g/m*3 20.4 C 8.1 km/h
167 23-05-2015 13:50:00 20.4 C 9.55 g/m*3 20.4 C 11.3 km/h
168 23-05-2015 13:55:00 20.3 C 9.32 g/m*3 20.3 C 8.1 km/h
169 23-05-2015 14:00:00 20.2 C 9.97 g/m*3 20.2 C 11.3 km/h
170 23-05-2015 14:05:00 20.2 C 9.62 g/m*3 20.2 C 4.8 km/h
171 23-05-2015 14:10:00 20.3 C 9.67 g/m*3 20.3 C 6.4 km/h
172 23-05-2015 14:15:00 20.3 C 9.67 g/m*3 20.3 C 8.1 km/h
173 23-05-2015 14:20:00 20.4 C 9.55 g/m*3 20.4 C 11.3 km/h
174 23-05-2015 14:25:00 20.4 C 9.73 g/m*3 20.4 C 8.1 km/h
175 23-05-2015 14:30:00 20.3 C 9.67 g/m*3 20.3 C 3.2 km/h
Sensor: Nr:Datum:Temp:Abs-Feuchte:Windchill:Wind:
Aussen-T/F 176 23-05-2015 14:35:00 20.3 C 9.85 g/m*3 20.3 C 6.4 km/h
177 23-05-2015 14:40:00 20.4 C 9.73 g/m*3 20.4 C 8.1 km/h
178 23-05-2015 14:45:00 20.3 C 9.67 g/m*3 20.3 C 8.1 km/h
179 23-05-2015 14:50:00 20.2 C 9.44 g/m*3 20.2 C 4.8 km/h
180 23-05-2015 14:55:00 19.9 C 9.62 g/m*3 19.9 C 11.3 km/h
181 23-05-2015 15:00:00 19.7 C 9.51 g/m*3 19.7 C 4.8 km/h
182 23-05-2015 15:05:00 19.6 C 9.62 g/m*3 19.6 C 6.4 km/h
183 23-05-2015 15:10:00 19.4 C 9.68 g/m*3 19.4 C 4.8 km/h
184 23-05-2015 15:15:00 19.3 C 9.62 g/m*3 19.3 C 6.4 km/h
185 23-05-2015 15:20:00 19.4 C 10.01 g/m*3 19.4 C 4.8 km/h
186 23-05-2015 15:25:00 19.4 C 10.01 g/m*3 19.4 C 4.8 km/h
187 23-05-2015 15:30:00 19.5 C 9.9 g/m*3 19.5 C 4.8 km/h
188 23-05-2015 15:35:00 19.5 C 10.24 g/m*3 19.5 C 4.8 km/h
189 23-05-2015 15:40:00 19.5 C 9.73 g/m*3 19.5 C 3.2 km/h
190 23-05-2015 15:45:00 19.6 C 9.79 g/m*3 19.6 C 4.8 km/h
191 23-05-2015 15:50:00 19.6 C 9.62 g/m*3 19.6 C 8.1 km/h
192 23-05-2015 15:55:00 19.7 C 9.68 g/m*3 19.7 C 6.4 km/h
193 23-05-2015 16:00:00 19.7 C 9.51 g/m*3 19.7 C 9.7 km/h
194 23-05-2015 16:05:00 19.8 C 9.74 g/m*3 19.8 C 6.4 km/h
195 23-05-2015 16:10:00 19.8 C 9.57 g/m*3 19.8 C 4.8 km/h
196 23-05-2015 16:15:00 19.9 C 9.45 g/m*3 19.9 C 8.1 km/h
197 23-05-2015 16:20:00 19.9 C 9.62 g/m*3 19.9 C 6.4 km/h
198 23-05-2015 16:25:00 19.9 C 9.79 g/m*3 19.9 C 6.4 km/h
199 23-05-2015 16:30:00 19.9 C 9.28 g/m*3 19.9 C 4.8 km/h
200 23-05-2015 16:35:00 19.8 C 9.39 g/m*3 19.8 C 6.4 km/h
Sensor: Nr:Datum:Temp:Abs-Feuchte:Windchill:Wind:
Aussen-T/F 201 23-05-2015 16:40:00 19.7 C 9.34 g/m*3 19.7 C 8.1 km/h
202 23-05-2015 16:45:00 19.6 C 9.45 g/m*3 19.6 C 3.2 km/h
203 23-05-2015 16:50:00 19.6 C 9.28 g/m*3 19.6 C 3.2 km/h
204 23-05-2015 16:55:00 19.6 C 9.45 g/m*3 19.6 C 3.2 km/h
205 23-05-2015 17:00:00 19.6 C 9.62 g/m*3 19.6 C 1.6 km/h
206 23-05-2015 17:05:00 19.6 C 9.79 g/m*3 19.6 C 4.8 km/h
207 23-05-2015 17:10:00 19.6 C 9.45 g/m*3 19.6 C 4.8 km/h
208 23-05-2015 17:15:00 19.6 C 9.79 g/m*3 19.6 C 3.2 km/h
209 23-05-2015 17:20:00 19.7 C 9.85 g/m*3 19.7 C 6.4 km/h
210 23-05-2015 17:25:00 19.7 C 9.68 g/m*3 19.7 C 8.1 km/h
211 23-05-2015 17:30:00 19.7 C 9.68 g/m*3 19.7 C 4.8 km/h
212 23-05-2015 17:35:00 19.6 C 9.62 g/m*3 19.6 C 6.4 km/h
213 23-05-2015 17:40:00 19.6 C 9.62 g/m*3 19.6 C 4.8 km/h
214 23-05-2015 17:45:00 19.4 C 9.51 g/m*3 19.4 C 3.2 km/h
215 23-05-2015 17:50:00 19.4 C 9.34 g/m*3 19.4 C 3.2 km/h
216 23-05-2015 17:55:00 19.3 C 10.78 g/m*3 19.3 C 0 km/h
217 23-05-2015 18:00:00 19 C 10.76 g/m*3 19 C 0 km/h
218 23-05-2015 18:05:00 18.7 C 10.73 g/m*3 18.7 C 1.6 km/h
219 23-05-2015 18:10:00 18.4 C 10.7 g/m*3 18.4 C 0 km/h
220 23-05-2015 18:15:00 18.2 C 10.88 g/m*3 18.2 C 0 km/h
221 23-05-2015 18:20:00 17.9 C 10.69 g/m*3 17.9 C 0 km/h
222 23-05-2015 18:25:00 17.8 C 10.78 g/m*3 17.8 C 0 km/h
223 23-05-2015 18:30:00 17.7 C 10.71 g/m*3 17.7 C 0 km/h
224 23-05-2015 18:35:00 17.6 C 10.8 g/m*3 17.6 C 0 km/h
225 23-05-2015 18:40:00 17.6 C 10.95 g/m*3 17.6 C 0 km/h
Sensor: Nr:Datum:Temp:Abs-Feuchte:Windchill:Wind:
Aussen-T/F 226 23-05-2015 18:45:00 17.6 C 10.8 g/m*3 17.6 C 0 km/h
227 23-05-2015 18:50:00 17.5 C 10.73 g/m*3 17.5 C 0 km/h
228 23-05-2015 18:55:00 17.5 C 10.88 g/m*3 17.5 C 0 km/h
229 23-05-2015 19:00:00 17.4 C 10.82 g/m*3 17.4 C 0 km/h
230 23-05-2015 19:05:00 17.4 C 10.97 g/m*3 17.4 C 0 km/h
231 23-05-2015 19:10:00 17.5 C 11.03 g/m*3 17.5 C 0 km/h
232 23-05-2015 19:15:00 17.5 C 11.03 g/m*3 17.5 C 0 km/h
233 23-05-2015 19:20:00 17.6 C 11.1 g/m*3 17.6 C 0 km/h
234 23-05-2015 19:25:00 17.7 C 11.16 g/m*3 17.7 C 0 km/h
235 23-05-2015 19:30:00 17.7 C 10.86 g/m*3 17.7 C 0 km/h
236 23-05-2015 19:35:00 17.6 C 11.1 g/m*3 17.6 C 0 km/h
237 23-05-2015 19:40:00 17.5 C 11.18 g/m*3 17.5 C 0 km/h
238 23-05-2015 19:45:00 17.4 C 11.12 g/m*3 17.4 C 0 km/h
239 23-05-2015 19:50:00 17.2 C 10.98 g/m*3 17.2 C 0 km/h
240 23-05-2015 19:55:00 17.2 C 11.13 g/m*3 17.2 C 0 km/h
241 23-05-2015 20:00:00 17.2 C 11.13 g/m*3 17.2 C 0 km/h
242 23-05-2015 20:05:00 17.2 C 10.98 g/m*3 17.2 C 0 km/h
243 23-05-2015 20:10:00 17.2 C 10.1 g/m*3 17.2 C 4.8 km/h
244 23-05-2015 20:15:00 17.5 C 9.54 g/m*3 17.5 C 6.4 km/h
245 23-05-2015 20:20:00 17.7 C 9.66 g/m*3 17.7 C 4.8 km/h
246 23-05-2015 20:25:00 17.9 C 9.31 g/m*3 17.9 C 3.2 km/h
247 23-05-2015 20:30:00 17.8 C 10.32 g/m*3 17.8 C 1.6 km/h
248 23-05-2015 20:35:00 17.5 C 10.59 g/m*3 17.5 C 1.6 km/h
249 23-05-2015 20:40:00 17.3 C 9.28 g/m*3 17.3 C 6.4 km/h
250 23-05-2015 20:45:00 17.3 C 9.43 g/m*3 17.3 C 4.8 km/h
Sensor: Nr:Datum:Temp:Abs-Feuchte:Windchill:Wind:
Aussen-T/F 251 23-05-2015 20:50:00 17.6 C 9.9 g/m*3 17.6 C 8.1 km/h
252 23-05-2015 20:55:00 17.8 C 10.02 g/m*3 17.8 C 9.7 km/h
253 23-05-2015 21:00:00 17.8 C 10.17 g/m*3 17.8 C 6.4 km/h
254 23-05-2015 21:05:00 17.8 C 10.32 g/m*3 17.8 C 6.4 km/h
255 23-05-2015 21:10:00 17.8 C 10.62 g/m*3 17.8 C 6.4 km/h
256 23-05-2015 21:15:00 17.6 C 10.65 g/m*3 17.6 C 8.1 km/h
257 23-05-2015 21:20:00 17.4 C 10.67 g/m*3 17.4 C 6.4 km/h
258 23-05-2015 21:25:00 17.3 C 10.75 g/m*3 17.3 C 11.3 km/h
259 23-05-2015 21:30:00 17.2 C 10.84 g/m*3 17.2 C 6.4 km/h
260 23-05-2015 21:35:00 17.2 C 10.98 g/m*3 17.2 C 8.1 km/h
261 23-05-2015 21:40:00 17.1 C 10.92 g/m*3 17.1 C 4.8 km/h
262 23-05-2015 21:45:00 16.9 C 10.93 g/m*3 16.9 C 4.8 km/h
263 23-05-2015 21:50:00 16.8 C 10.87 g/m*3 16.8 C 3.2 km/h
264 23-05-2015 21:55:00 16.8 C 11.01 g/m*3 16.8 C 6.4 km/h
265 23-05-2015 22:00:00 16.7 C 10.94 g/m*3 16.7 C 8.1 km/h
266 23-05-2015 22:05:00 16.6 C 10.88 g/m*3 16.6 C 8.1 km/h
267 23-05-2015 22:10:00 16.5 C 10.95 g/m*3 16.5 C 6.4 km/h
268 23-05-2015 22:15:00 16.4 C 10.89 g/m*3 16.4 C 3.2 km/h
269 23-05-2015 22:20:00 16.4 C 10.89 g/m*3 16.4 C 6.4 km/h
270 23-05-2015 22:25:00 16.3 C 10.82 g/m*3 16.3 C 4.8 km/h
271 23-05-2015 22:30:00 16.3 C 10.82 g/m*3 16.3 C 4.8 km/h
272 23-05-2015 22:35:00 16.2 C 10.76 g/m*3 16.2 C 6.4 km/h
273 23-05-2015 22:40:00 16.2 C 10.76 g/m*3 16.2 C 8.1 km/h
274 23-05-2015 22:45:00 16.1 C 10.69 g/m*3 16.1 C 3.2 km/h
275 23-05-2015 22:50:00 16.1 C 10.69 g/m*3 16.1 C 8.1 km/h
Sensor: Nr:Datum:Temp:Abs-Feuchte:Windchill:Wind:
Aussen-T/F 276 23-05-2015 22:55:00 16.1 C 10.83 g/m*3 16.1 C 9.7 km/h
277 23-05-2015 23:00:00 16 C 10.63 g/m*3 16 C 6.4 km/h
278 23-05-2015 23:05:00 15.9 C 10.7 g/m*3 15.9 C 8.1 km/h
279 23-05-2015 23:10:00 15.8 C 10.63 g/m*3 15.8 C 9.7 km/h
280 23-05-2015 23:15:00 15.8 C 10.63 g/m*3 15.8 C 8.1 km/h
281 23-05-2015 23:20:00 15.7 C 10.7 g/m*3 15.7 C 6.4 km/h
282 23-05-2015 23:25:00 15.6 C 10.64 g/m*3 15.6 C 3.2 km/h
283 23-05-2015 23:30:00 15.6 C 10.64 g/m*3 15.6 C 3.2 km/h
284 23-05-2015 23:35:00 15.5 C 10.71 g/m*3 15.5 C 9.7 km/h
285 23-05-2015 23:40:00 15.4 C 10.64 g/m*3 15.4 C 3.2 km/h
286 23-05-2015 23:45:00 15.3 C 10.58 g/m*3 15.3 C 4.8 km/h
287 23-05-2015 23:50:00 15.3 C 10.58 g/m*3 15.3 C 1.6 km/h
288 23-05-2015 23:55:00 15.3 C 10.58 g/m*3 15.3 C 3.2 km/h
289 24-05-2015 00:00:00 15.2 C 10.64 g/m*3 15.2 C 1.6 km/h
290 24-05-2015 00:05:00 15.2 C 10.64 g/m*3 15.2 C 3.2 km/h
291 24-05-2015 00:10:00 15.1 C 10.58 g/m*3 15.1 C 3.2 km/h
292 24-05-2015 00:15:00 15.1 C 10.58 g/m*3 15.1 C 3.2 km/h
293 24-05-2015 00:20:00 15 C 10.51 g/m*3 15 C 6.4 km/h
294 24-05-2015 00:25:00 14.9 C 10.58 g/m*3 14.9 C 4.8 km/h
295 24-05-2015 00:30:00 14.9 C 10.58 g/m*3 14.9 C 4.8 km/h
296 24-05-2015 00:35:00 14.9 C 10.58 g/m*3 14.9 C 3.2 km/h
297 24-05-2015 00:40:00 14.8 C 10.51 g/m*3 14.8 C 3.2 km/h
298 24-05-2015 00:45:00 14.8 C 10.51 g/m*3 14.8 C 1.6 km/h
299 24-05-2015 00:50:00 14.8 C 10.51 g/m*3 14.8 C 3.2 km/h
300 24-05-2015 00:55:00 14.7 C 10.45 g/m*3 14.7 C 0 km/h
Sensor: Nr:Datum:Temp:Abs-Feuchte:Windchill:Wind:
Aussen-T/F 301 24-05-2015 01:00:00 14.7 C 10.58 g/m*3 14.7 C 0 km/h
302 24-05-2015 01:05:00 14.6 C 10.51 g/m*3 14.6 C 1.6 km/h
303 24-05-2015 01:10:00 14.6 C 10.51 g/m*3 14.6 C 4.8 km/h
304 24-05-2015 01:15:00 14.6 C 10.51 g/m*3 14.6 C 0 km/h
305 24-05-2015 01:20:00 14.5 C 10.45 g/m*3 14.5 C 0 km/h
306 24-05-2015 01:25:00 14.5 C 10.45 g/m*3 14.5 C 4.8 km/h
307 24-05-2015 01:30:00 14.5 C 10.45 g/m*3 14.5 C 1.6 km/h
308 24-05-2015 01:35:00 14.5 C 10.45 g/m*3 14.5 C 1.6 km/h
309 24-05-2015 01:40:00 14.5 C 10.45 g/m*3 14.5 C 1.6 km/h
310 24-05-2015 01:45:00 14.4 C 10.38 g/m*3 14.4 C 3.2 km/h
311 24-05-2015 01:50:00 14.4 C 10.38 g/m*3 14.4 C 1.6 km/h
312 24-05-2015 01:55:00 14.4 C 10.38 g/m*3 14.4 C 3.2 km/h
313 24-05-2015 02:00:00 14.4 C 10.38 g/m*3 14.4 C 1.6 km/h
314 24-05-2015 02:05:00 14.3 C 10.32 g/m*3 14.3 C 0 km/h
315 24-05-2015 02:10:00 14.3 C 10.32 g/m*3 14.3 C 1.6 km/h
316 24-05-2015 02:15:00 14.3 C 10.32 g/m*3 14.3 C 4.8 km/h
317 24-05-2015 02:20:00 14.3 C 10.32 g/m*3 14.3 C 1.6 km/h
318 24-05-2015 02:25:00 14.3 C 10.32 g/m*3 14.3 C 3.2 km/h
319 24-05-2015 02:30:00 14.2 C 10.26 g/m*3 14.2 C 4.8 km/h
320 24-05-2015 02:35:00 14.2 C 10.26 g/m*3 14.2 C 4.8 km/h
321 24-05-2015 02:40:00 14.2 C 10.26 g/m*3 14.2 C 4.8 km/h
322 24-05-2015 02:45:00 14.2 C 10.26 g/m*3 14.2 C 4.8 km/h
323 24-05-2015 02:50:00 14.1 C 10.19 g/m*3 14.1 C 3.2 km/h
324 24-05-2015 02:55:00 14.1 C 10.19 g/m*3 14.1 C 4.8 km/h
325 24-05-2015 03:00:00 14.1 C 10.19 g/m*3 14.1 C 3.2 km/h
Sensor: Nr:Datum:Temp:Abs-Feuchte:Windchill:Wind:
Aussen-T/F 326 24-05-2015 03:05:00 14.1 C 10.19 g/m*3 14.1 C 4.8 km/h
327 24-05-2015 03:10:00 14.1 C 10.19 g/m*3 14.1 C 3.2 km/h
328 24-05-2015 03:15:00 14.1 C 10.19 g/m*3 14.1 C 4.8 km/h
329 24-05-2015 03:20:00 14 C 10.13 g/m*3 14 C 1.6 km/h
330 24-05-2015 03:25:00 14 C 10.25 g/m*3 14 C 3.2 km/h
331 24-05-2015 03:30:00 14 C 10.25 g/m*3 14 C 0 km/h
332 24-05-2015 03:35:00 13.9 C 10.19 g/m*3 13.9 C 1.6 km/h
333 24-05-2015 03:40:00 13.9 C 10.19 g/m*3 13.9 C 0 km/h
334 24-05-2015 03:45:00 13.8 C 10.25 g/m*3 13.8 C 0 km/h
335 24-05-2015 03:50:00 13.8 C 10.25 g/m*3 13.8 C 0 km/h
336 24-05-2015 03:55:00 13.7 C 10.18 g/m*3 13.7 C 0 km/h
337 24-05-2015 04:00:00 13.5 C 10.06 g/m*3 13.5 C 0 km/h
338 24-05-2015 04:05:00 13.4 C 10.11 g/m*3 13.4 C 0 km/h
339 24-05-2015 04:10:00 13.3 C 10.05 g/m*3 13.3 C 0 km/h
340 24-05-2015 04:15:00 13.3 C 10.17 g/m*3 13.3 C 0 km/h
341 24-05-2015 04:20:00 13.2 C 10.1 g/m*3 13.2 C 0 km/h
342 24-05-2015 04:25:00 13.2 C 10.1 g/m*3 13.2 C 0 km/h
343 24-05-2015 04:30:00 13.2 C 10.1 g/m*3 13.2 C 0 km/h
344 24-05-2015 04:35:00 13.2 C 10.1 g/m*3 13.2 C 0 km/h
345 24-05-2015 04:40:00 13.2 C 10.1 g/m*3 13.2 C 3.2 km/h
346 24-05-2015 04:45:00 13.2 C 10.1 g/m*3 13.2 C 0 km/h
347 24-05-2015 04:50:00 13.1 C 10.04 g/m*3 13.1 C 0 km/h
348 24-05-2015 04:55:00 13.1 C 10.04 g/m*3 13.1 C 0 km/h
349 24-05-2015 05:00:00 13.1 C 10.04 g/m*3 13.1 C 0 km/h
350 24-05-2015 05:05:00 13.1 C 10.04 g/m*3 13.1 C 0 km/h
Sensor: Nr:Datum:Temp:Abs-Feuchte:Windchill:Wind:
Aussen-T/F 351 24-05-2015 05:10:00 13.2 C 10.1 g/m*3 13.2 C 0 km/h
352 24-05-2015 05:15:00 13.2 C 10.22 g/m*3 13.2 C 0 km/h
353 24-05-2015 05:20:00 13.2 C 10.22 g/m*3 13.2 C 0 km/h
354 24-05-2015 05:25:00 13.2 C 10.22 g/m*3 13.2 C 0 km/h
355 24-05-2015 05:30:00 13.2 C 10.1 g/m*3 13.2 C 3.2 km/h
356 24-05-2015 05:35:00 13.2 C 10.1 g/m*3 13.2 C 1.6 km/h
357 24-05-2015 05:40:00 13.2 C 10.1 g/m*3 13.2 C 0 km/h
358 24-05-2015 05:45:00 13.3 C 10.17 g/m*3 13.3 C 0 km/h
359 24-05-2015 05:50:00 13.3 C 10.17 g/m*3 13.3 C 0 km/h
360 24-05-2015 05:55:00 13.2 C 10.1 g/m*3 13.2 C 0 km/h
361 24-05-2015 06:00:00 13.2 C 10.22 g/m*3 13.2 C 1.6 km/h
362 24-05-2015 06:05:00 13.2 C 10.22 g/m*3 13.2 C 0 km/h
363 24-05-2015 06:10:00 13.2 C 10.22 g/m*3 13.2 C 0 km/h
364 24-05-2015 06:15:00 13.2 C 10.22 g/m*3 13.2 C 0 km/h
365 24-05-2015 06:20:00 13.2 C 10.22 g/m*3 13.2 C 0 km/h
366 24-05-2015 06:25:00 13.2 C 10.22 g/m*3 13.2 C 0 km/h
367 24-05-2015 06:30:00 13.2 C 10.1 g/m*3 13.2 C 0 km/h
368 24-05-2015 06:35:00 13.2 C 10.1 g/m*3 13.2 C 0 km/h
369 24-05-2015 06:40:00 13.3 C 10.17 g/m*3 13.3 C 0 km/h
370 24-05-2015 06:45:00 13.3 C 10.17 g/m*3 13.3 C 0 km/h
371 24-05-2015 06:50:00 13.3 C 10.17 g/m*3 13.3 C 0 km/h
372 24-05-2015 06:55:00 13.3 C 10.05 g/m*3 13.3 C 0 km/h
373 24-05-2015 07:00:00 13.4 C 10.11 g/m*3 13.4 C 0 km/h
374 24-05-2015 07:05:00 13.4 C 10.11 g/m*3 13.4 C 3.2 km/h
375 24-05-2015 07:10:00 13.5 C 10.18 g/m*3 13.5 C 0 km/h
Sensor: Nr:Datum:Temp:Abs-Feuchte:Windchill:Wind:
Aussen-T/F 376 24-05-2015 07:15:00 13.5 C 10.18 g/m*3 13.5 C 0 km/h
377 24-05-2015 07:20:00 13.6 C 10.24 g/m*3 13.6 C 1.6 km/h
378 24-05-2015 07:25:00 13.6 C 10.12 g/m*3 13.6 C 0 km/h
379 24-05-2015 07:30:00 13.7 C 10.3 g/m*3 13.7 C 0 km/h
380 24-05-2015 07:35:00 13.7 C 10.3 g/m*3 13.7 C 0 km/h
381 24-05-2015 07:40:00 13.7 C 10.18 g/m*3 13.7 C 0 km/h
382 24-05-2015 07:45:00 13.7 C 10.18 g/m*3 13.7 C 1.6 km/h
383 24-05-2015 07:50:00 13.8 C 10.37 g/m*3 13.8 C 3.2 km/h
384 24-05-2015 07:55:00 13.8 C 10.25 g/m*3 13.8 C 1.6 km/h
385 24-05-2015 08:00:00 13.8 C 10.25 g/m*3 13.8 C 3.2 km/h
386 24-05-2015 08:05:00 13.8 C 10.25 g/m*3 13.8 C 1.6 km/h
387 24-05-2015 08:10:00 13.9 C 10.31 g/m*3 13.9 C 3.2 km/h
388 24-05-2015 08:15:00 13.9 C 10.31 g/m*3 13.9 C 3.2 km/h
389 24-05-2015 08:20:00 14 C 10.37 g/m*3 14 C 3.2 km/h
390 24-05-2015 08:25:00 14.1 C 10.44 g/m*3 14.1 C 3.2 km/h
391 24-05-2015 08:30:00 14.1 C 10.44 g/m*3 14.1 C 4.8 km/h
392 24-05-2015 08:35:00 14.2 C 10.5 g/m*3 14.2 C 3.2 km/h
393 24-05-2015 08:40:00 14.2 C 10.38 g/m*3 14.2 C 3.2 km/h
394 24-05-2015 08:45:00 14.2 C 10.38 g/m*3 14.2 C 4.8 km/h
395 24-05-2015 08:50:00 14.3 C 10.44 g/m*3 14.3 C 4.8 km/h
396 24-05-2015 08:55:00 14.3 C 10.44 g/m*3 14.3 C 4.8 km/h
397 24-05-2015 09:00:00 14.3 C 10.44 g/m*3 14.3 C 3.2 km/h
398 24-05-2015 09:05:00 14.4 C 10.38 g/m*3 14.4 C 3.2 km/h
399 24-05-2015 09:10:00 14.4 C 10.38 g/m*3 14.4 C 3.2 km/h
400 24-05-2015 09:15:00 14.5 C 10.45 g/m*3 14.5 C 3.2 km/h
Sensor: Nr:Datum:Temp:Abs-Feuchte:Windchill:Wind:
Aussen-T/F 401 24-05-2015 09:20:00 14.6 C 10.51 g/m*3 14.6 C 4.8 km/h
402 24-05-2015 09:25:00 14.7 C 10.45 g/m*3 14.7 C 4.8 km/h
403 24-05-2015 09:30:00 14.7 C 10.45 g/m*3 14.7 C 6.4 km/h
404 24-05-2015 09:35:00 14.8 C 10.39 g/m*3 14.8 C 4.8 km/h
405 24-05-2015 09:40:00 14.8 C 10.51 g/m*3 14.8 C 1.6 km/h
406 24-05-2015 09:45:00 14.9 C 10.45 g/m*3 14.9 C 1.6 km/h
407 24-05-2015 09:50:00 15 C 10.39 g/m*3 15 C 1.6 km/h
408 24-05-2015 09:55:00 15 C 10.39 g/m*3 15 C 3.2 km/h
409 24-05-2015 10:00:00 15.1 C 10.45 g/m*3 15.1 C 3.2 km/h
410 24-05-2015 10:05:00 15 C 10.39 g/m*3 15 C 1.6 km/h
411 24-05-2015 10:10:00 15.1 C 10.45 g/m*3 15.1 C 1.6 km/h
412 24-05-2015 10:15:00 14.9 C 10.32 g/m*3 14.9 C 3.2 km/h
413 24-05-2015 10:20:00 15 C 10.39 g/m*3 15 C 1.6 km/h
414 24-05-2015 10:25:00 15 C 10.51 g/m*3 15 C 3.2 km/h
415 24-05-2015 10:30:00 15.1 C 10.58 g/m*3 15.1 C 3.2 km/h
416 24-05-2015 10:35:00 15.2 C 10.64 g/m*3 15.2 C 3.2 km/h
417 24-05-2015 10:40:00 15.3 C 10.58 g/m*3 15.3 C 3.2 km/h
418 24-05-2015 10:45:00 15.4 C 10.64 g/m*3 15.4 C 3.2 km/h
419 24-05-2015 10:50:00 15.4 C 10.51 g/m*3 15.4 C 3.2 km/h
420 24-05-2015 10:55:00 15.4 C 10.51 g/m*3 15.4 C 0 km/h
421 24-05-2015 11:00:00 15.4 C 10.38 g/m*3 15.4 C 1.6 km/h
422 24-05-2015 11:05:00 15.4 C 10.51 g/m*3 15.4 C 1.6 km/h
423 24-05-2015 11:10:00 15.6 C 10.64 g/m*3 15.6 C 1.6 km/h
424 24-05-2015 11:15:00 15.7 C 10.7 g/m*3 15.7 C 1.6 km/h
425 24-05-2015 11:20:00 15.8 C 10.77 g/m*3 15.8 C 1.6 km/h
Sensor: Nr:Datum:Temp:Abs-Feuchte:Windchill:Wind:
Aussen-T/F 426 24-05-2015 11:25:00 15.9 C 10.7 g/m*3 15.9 C 4.8 km/h
427 24-05-2015 11:30:00 16.1 C 10.83 g/m*3 16.1 C 4.8 km/h
428 24-05-2015 11:35:00 16.2 C 11.03 g/m*3 16.2 C 1.6 km/h
429 24-05-2015 11:40:00 16.4 C 11.03 g/m*3 16.4 C 3.2 km/h
430 24-05-2015 11:45:00 16.6 C 11.02 g/m*3 16.6 C 4.8 km/h
431 24-05-2015 11:50:00 16.7 C 10.94 g/m*3 16.7 C 3.2 km/h
432 24-05-2015 11:55:00 16.9 C 10.79 g/m*3 16.9 C 3.2 km/h
433 24-05-2015 12:00:00 17.1 C 10.92 g/m*3 17.1 C 4.8 km/h
434 24-05-2015 12:05:00 17.2 C 11.28 g/m*3 17.2 C 4.8 km/h
435 24-05-2015 12:10:00 17.4 C 11.12 g/m*3 17.4 C 4.8 km/h
436 24-05-2015 12:15:00 17.7 C 11.16 g/m*3 17.7 C 3.2 km/h
437 24-05-2015 12:20:00 17.7 C 11.16 g/m*3 17.7 C 3.2 km/h
438 24-05-2015 12:25:00 18.1 C 11.74 g/m*3 18.1 C 4.8 km/h
439 24-05-2015 12:30:00 18.4 C 11.01 g/m*3 18.4 C 3.2 km/h
440 24-05-2015 12:35:00 18.6 C 11.46 g/m*3 18.6 C 4.8 km/h
441 24-05-2015 12:40:00 19.1 C 11.97 g/m*3 19.1 C 4.8 km/h
442 24-05-2015 12:45:00 19.3 C 11.28 g/m*3 19.3 C 4.8 km/h
443 24-05-2015 12:50:00 19.2 C 11.21 g/m*3 19.2 C 6.4 km/h
444 24-05-2015 12:55:00 19.3 C 11.61 g/m*3 19.3 C 6.4 km/h
445 24-05-2015 13:00:00 19.7 C 11.55 g/m*3 19.7 C 8.1 km/h
446 24-05-2015 13:05:00 20.1 C 11.65 g/m*3 20.1 C 8.1 km/h
447 24-05-2015 13:10:00 20.2 C 11.54 g/m*3 20.2 C 6.4 km/h
448 24-05-2015 13:15:00 20.2 C 11.54 g/m*3 20.2 C 6.4 km/h
449 24-05-2015 13:20:00 20.5 C 11.57 g/m*3 20.5 C 6.4 km/h
450 24-05-2015 13:25:00 20.6 C 11.28 g/m*3 20.6 C 6.4 km/h
Sensor: Nr:Datum:Temp:Abs-Feuchte:Windchill:Wind:
Aussen-T/F 451 24-05-2015 13:30:00 20.8 C 11.41 g/m*3 20.8 C 8.1 km/h
452 24-05-2015 13:35:00 20.8 C 11.41 g/m*3 20.8 C 8.1 km/h
453 24-05-2015 13:40:00 20.9 C 11.29 g/m*3 20.9 C 8.1 km/h
454 24-05-2015 13:45:00 20.9 C 11.11 g/m*3 20.9 C 6.4 km/h
455 24-05-2015 13:50:00 20.8 C 11.05 g/m*3 20.8 C 8.1 km/h
456 24-05-2015 13:55:00 20.7 C 11.34 g/m*3 20.7 C 3.2 km/h
457 24-05-2015 14:00:00 20.9 C 11.11 g/m*3 20.9 C 6.4 km/h
458 24-05-2015 14:05:00 21.2 C 11.12 g/m*3 21.2 C 8.1 km/h
459 24-05-2015 14:10:00 21.5 C 11.5 g/m*3 21.5 C 6.4 km/h
460 24-05-2015 14:15:00 21.7 C 11.83 g/m*3 21.7 C 4.8 km/h
461 24-05-2015 14:20:00 22 C 10.87 g/m*3 22 C 6.4 km/h
462 24-05-2015 14:25:00 22.1 C 11.13 g/m*3 22.1 C 4.8 km/h
463 24-05-2015 14:30:00 22.6 C 11.25 g/m*3 22.6 C 8.1 km/h
464 24-05-2015 14:35:00 22.7 C 11.52 g/m*3 22.7 C 9.7 km/h
465 24-05-2015 14:40:00 22.8 C 11.38 g/m*3 22.8 C 6.4 km/h
466 24-05-2015 14:45:00 22.8 C 11.58 g/m*3 22.8 C 4.8 km/h
467 24-05-2015 14:50:00 22.5 C 11.19 g/m*3 22.5 C 4.8 km/h
468 24-05-2015 14:55:00 22.4 C 11.32 g/m*3 22.4 C 8.1 km/h
469 24-05-2015 15:00:00 22.8 C 11.38 g/m*3 22.8 C 8.1 km/h
470 24-05-2015 15:05:00 23.3 C 10.87 g/m*3 23.3 C 6.4 km/h
471 24-05-2015 15:10:00 23.7 C 10.69 g/m*3 23.7 C 4.8 km/h
472 24-05-2015 15:15:00 23.8 C 10.54 g/m*3 23.8 C 6.4 km/h
473 24-05-2015 15:20:00 23.7 C 10.48 g/m*3 23.7 C 6.4 km/h
474 24-05-2015 15:25:00 23.4 C 9.88 g/m*3 23.4 C 8.1 km/h
475 24-05-2015 15:30:00 23.4 C 9.88 g/m*3 23.4 C 6.4 km/h
Sensor: Nr:Datum:Temp:Abs-Feuchte:Windchill:Wind:
Aussen-T/F 476 24-05-2015 15:35:00 23.4 C 10.3 g/m*3 23.4 C 11.3 km/h
477 24-05-2015 15:40:00 23.4 C 10.09 g/m*3 23.4 C 11.3 km/h
478 24-05-2015 15:45:00 23.6 C 10 g/m*3 23.6 C 9.7 km/h
479 24-05-2015 15:50:00 23.6 C 9.78 g/m*3 23.6 C 11.3 km/h
480 24-05-2015 15:55:00 23.3 C 10.25 g/m*3 23.3 C 9.7 km/h
481 24-05-2015 16:00:00 23.2 C 10.19 g/m*3 23.2 C 9.7 km/h
482 24-05-2015 16:05:00 23.4 C 10.72 g/m*3 23.4 C 9.7 km/h
483 24-05-2015 16:10:00 23.6 C 10.42 g/m*3 23.6 C 11.3 km/h
484 24-05-2015 16:15:00 23.3 C 10.66 g/m*3 23.3 C 8.1 km/h
485 24-05-2015 16:20:00 23 C 10.69 g/m*3 23 C 6.4 km/h
486 24-05-2015 16:25:00 22.7 C 10.51 g/m*3 22.7 C 6.4 km/h
487 24-05-2015 16:30:00 22.5 C 10.59 g/m*3 22.5 C 9.7 km/h
488 24-05-2015 16:35:00 22.3 C 10.66 g/m*3 22.3 C 8.1 km/h
489 24-05-2015 16:40:00 22.2 C 10.6 g/m*3 22.2 C 6.4 km/h
490 24-05-2015 16:45:00 22.3 C 11.06 g/m*3 22.3 C 6.4 km/h
491 24-05-2015 16:50:00 22.9 C 11.04 g/m*3 22.9 C 3.2 km/h
492 24-05-2015 16:55:00 23.1 C 10.54 g/m*3 23.1 C 1.6 km/h
493 24-05-2015 17:00:00 23 C 10.69 g/m*3 23 C 0 km/h
494 24-05-2015 17:05:00 22.9 C 11.24 g/m*3 22.9 C 3.2 km/h
495 24-05-2015 17:10:00 22.9 C 10.83 g/m*3 22.9 C 1.6 km/h
496 24-05-2015 17:15:00 22.8 C 10.57 g/m*3 22.8 C 3.2 km/h
497 24-05-2015 17:20:00 22.7 C 10.71 g/m*3 22.7 C 1.6 km/h
498 24-05-2015 17:25:00 22.4 C 10.53 g/m*3 22.4 C 0 km/h
499 24-05-2015 17:30:00 22.3 C 11.65 g/m*3 22.3 C 0 km/h
500 24-05-2015 17:35:00 22.1 C 11.91 g/m*3 22.1 C 1.6 km/h
Sensor: Nr:Datum:Temp:Abs-Feuchte:Windchill:Wind:
Aussen-T/F 501 24-05-2015 17:40:00 22.1 C 10.74 g/m*3 22.1 C 6.4 km/h
502 24-05-2015 17:45:00 22.3 C 10.47 g/m*3 22.3 C 8.1 km/h
503 24-05-2015 17:50:00 22.4 C 10.53 g/m*3 22.4 C 4.8 km/h
504 24-05-2015 17:55:00 22.6 C 10.85 g/m*3 22.6 C 6.4 km/h
505 24-05-2015 18:00:00 22.8 C 10.57 g/m*3 22.8 C 8.1 km/h
506 24-05-2015 18:05:00 23 C 10.89 g/m*3 23 C 6.4 km/h
507 24-05-2015 18:10:00 23.3 C 10.45 g/m*3 23.3 C 8.1 km/h
508 24-05-2015 18:15:00 23.4 C 10.93 g/m*3 23.4 C 8.1 km/h
509 24-05-2015 18:20:00 23.6 C 10.85 g/m*3 23.6 C 9.7 km/h
510 24-05-2015 18:25:00 23.3 C 10.45 g/m*3 23.3 C 9.7 km/h
511 24-05-2015 18:30:00 23.4 C 10.72 g/m*3 23.4 C 8.1 km/h
512 24-05-2015 18:35:00 23.3 C 10.87 g/m*3 23.3 C 8.1 km/h
513 24-05-2015 18:40:00 22.9 C 10.63 g/m*3 22.9 C 8.1 km/h
514 24-05-2015 18:45:00 22.6 C 10.85 g/m*3 22.6 C 6.4 km/h
515 24-05-2015 18:50:00 22.3 C 10.47 g/m*3 22.3 C 4.8 km/h
516 24-05-2015 18:55:00 22 C 10.67 g/m*3 22 C 6.4 km/h
517 24-05-2015 19:00:00 21.6 C 10.43 g/m*3 21.6 C 9.7 km/h
518 24-05-2015 19:05:00 21.3 C 10.44 g/m*3 21.3 C 4.8 km/h
519 24-05-2015 19:10:00 21 C 10.44 g/m*3 21 C 4.8 km/h
520 24-05-2015 19:15:00 20.8 C 10.5 g/m*3 20.8 C 8.1 km/h
521 24-05-2015 19:20:00 20.6 C 10.56 g/m*3 20.6 C 6.4 km/h
522 24-05-2015 19:25:00 20.4 C 10.61 g/m*3 20.4 C 4.8 km/h
523 24-05-2015 19:30:00 20.3 C 10.73 g/m*3 20.3 C 3.2 km/h
524 24-05-2015 19:35:00 20.1 C 10.95 g/m*3 20.1 C 3.2 km/h
525 24-05-2015 19:40:00 19.8 C 11.1 g/m*3 19.8 C 1.6 km/h
Sensor: Nr:Datum:Temp:Abs-Feuchte:Windchill:Wind:
Aussen-T/F 526 24-05-2015 19:45:00 19.7 C 10.53 g/m*3 19.7 C 4.8 km/h
527 24-05-2015 19:50:00 19.6 C 10.47 g/m*3 19.6 C 3.2 km/h
528 24-05-2015 19:55:00 19.6 C 10.8 g/m*3 19.6 C 3.2 km/h
529 24-05-2015 20:00:00 19.4 C 11.35 g/m*3 19.4 C 0 km/h
530 24-05-2015 20:05:00 19 C 11.24 g/m*3 19 C 0 km/h
531 24-05-2015 20:10:00 18.6 C 11.3 g/m*3 18.6 C 0 km/h
532 24-05-2015 20:15:00 18.3 C 11.26 g/m*3 18.3 C 0 km/h
533 24-05-2015 20:20:00 18.1 C 11.28 g/m*3 18.1 C 1.6 km/h
534 24-05-2015 20:25:00 17.8 C 11.38 g/m*3 17.8 C 0 km/h
535 24-05-2015 20:30:00 17.7 C 11.47 g/m*3 17.7 C 0 km/h
536 24-05-2015 20:35:00 17.4 C 11.86 g/m*3 17.4 C 1.6 km/h
537 24-05-2015 20:40:00 17.3 C 11.93 g/m*3 17.3 C 1.6 km/h
538 24-05-2015 20:45:00 17.1 C 11.94 g/m*3 17.1 C 1.6 km/h
539 24-05-2015 20:50:00 16.9 C 11.79 g/m*3 16.9 C 1.6 km/h
540 24-05-2015 20:55:00 16.7 C 11.8 g/m*3 16.7 C 1.6 km/h
541 24-05-2015 21:00:00 16.6 C 11.87 g/m*3 16.6 C 1.6 km/h
542 24-05-2015 21:05:00 16.4 C 11.86 g/m*3 16.4 C 1.6 km/h
543 24-05-2015 21:10:00 16.3 C 11.79 g/m*3 16.3 C 1.6 km/h
544 24-05-2015 21:15:00 16.3 C 11.65 g/m*3 16.3 C 1.6 km/h
545 24-05-2015 21:20:00 16.2 C 11.72 g/m*3 16.2 C 1.6 km/h
546 24-05-2015 21:25:00 16.1 C 11.65 g/m*3 16.1 C 1.6 km/h
547 24-05-2015 21:30:00 16 C 11.58 g/m*3 16 C 3.2 km/h
548 24-05-2015 21:35:00 16.1 C 11.93 g/m*3 16.1 C 4.8 km/h
549 24-05-2015 21:40:00 16.2 C 11.86 g/m*3 16.2 C 1.6 km/h
550 24-05-2015 21:45:00 16.2 C 12 g/m*3 16.2 C 8.1 km/h
Sensor: Nr:Datum:Temp:Abs-Feuchte:Windchill:Wind:
Aussen-T/F 551 24-05-2015 21:50:00 16.1 C 11.93 g/m*3 16.1 C 8.1 km/h
552 24-05-2015 21:55:00 16.1 C 11.93 g/m*3 16.1 C 1.6 km/h
553 24-05-2015 22:00:00 15.9 C 12.05 g/m*3 15.9 C 0 km/h
554 24-05-2015 22:05:00 15.8 C 12.11 g/m*3 15.8 C 0 km/h
555 24-05-2015 22:10:00 15.7 C 12.18 g/m*3 15.7 C 1.6 km/h
556 24-05-2015 22:15:00 15.4 C 11.96 g/m*3 15.4 C 1.6 km/h
557 24-05-2015 22:20:00 15.3 C 12.01 g/m*3 15.3 C 1.6 km/h
558 24-05-2015 22:25:00 15.2 C 11.94 g/m*3 15.2 C 1.6 km/h
559 24-05-2015 22:30:00 15.1 C 11.87 g/m*3 15.1 C 1.6 km/h
560 24-05-2015 22:35:00 15 C 11.93 g/m*3 15 C 1.6 km/h
561 24-05-2015 22:40:00 14.9 C 11.85 g/m*3 14.9 C 1.6 km/h
562 24-05-2015 22:45:00 14.8 C 11.78 g/m*3 14.8 C 1.6 km/h
563 24-05-2015 22:50:00 14.8 C 11.78 g/m*3 14.8 C 0 km/h
564 24-05-2015 22:55:00 14.7 C 11.71 g/m*3 14.7 C 1.6 km/h
565 24-05-2015 23:00:00 14.7 C 11.71 g/m*3 14.7 C 0 km/h
566 24-05-2015 23:05:00 14.6 C 11.76 g/m*3 14.6 C 0 km/h
567 24-05-2015 23:10:00 14.6 C 11.76 g/m*3 14.6 C 1.6 km/h
568 24-05-2015 23:15:00 14.6 C 11.76 g/m*3 14.6 C 0 km/h
569 24-05-2015 23:40:00 14.4 C 11.62 g/m*3 14.4 C 0 km/h
570 24-05-2015 23:45:00 14.4 C 11.62 g/m*3 14.4 C 1.6 km/h
571 24-05-2015 23:50:00 14.4 C 11.62 g/m*3 14.4 C 0 km/h
572 24-05-2015 23:55:00 14.4 C 11.62 g/m*3 14.4 C 0 km/h
573 25-05-2015 00:00:00 14.3 C 11.55 g/m*3 14.3 C 0 km/h
574 25-05-2015 00:05:00 14.3 C 11.55 g/m*3 14.3 C 0 km/h
575 25-05-2015 00:10:00 14.3 C 11.55 g/m*3 14.3 C 0 km/h
Sensor: Nr:Datum:Temp:Abs-Feuchte:Windchill:Wind:
Aussen-T/F 576 25-05-2015 00:15:00 14.2 C 11.6 g/m*3 14.2 C 0 km/h
577 25-05-2015 00:20:00 14.1 C 11.41 g/m*3 14.1 C 0 km/h
578 25-05-2015 00:25:00 13.9 C 11.27 g/m*3 13.9 C 0 km/h
579 25-05-2015 00:30:00 13.9 C 11.27 g/m*3 13.9 C 0 km/h
580 25-05-2015 00:35:00 13.8 C 11.2 g/m*3 13.8 C 0 km/h
581 25-05-2015 00:40:00 13.7 C 11.13 g/m*3 13.7 C 0 km/h
582 25-05-2015 00:45:00 13.5 C 10.99 g/m*3 13.5 C 0 km/h
583 25-05-2015 00:50:00 13.4 C 10.93 g/m*3 13.4 C 1.6 km/h
584 25-05-2015 00:55:00 13.3 C 10.86 g/m*3 13.3 C 0 km/h
585 25-05-2015 01:00:00 13.3 C 10.98 g/m*3 13.3 C 1.6 km/h
586 25-05-2015 01:05:00 13.3 C 10.98 g/m*3 13.3 C 1.6 km/h
587 25-05-2015 01:10:00 13.3 C 10.98 g/m*3 13.3 C 0 km/h
588 25-05-2015 01:15:00 13.3 C 10.98 g/m*3 13.3 C 1.6 km/h
589 25-05-2015 01:20:00 13.3 C 10.98 g/m*3 13.3 C 0 km/h
590 25-05-2015 01:25:00 13.1 C 10.84 g/m*3 13.1 C 0 km/h
591 25-05-2015 01:30:00 13.1 C 10.84 g/m*3 13.1 C 0 km/h
592 25-05-2015 01:35:00 13 C 10.77 g/m*3 13 C 0 km/h
593 25-05-2015 01:40:00 13 C 10.77 g/m*3 13 C 0 km/h
594 25-05-2015 01:45:00 13 C 10.77 g/m*3 13 C 0 km/h
595 25-05-2015 01:50:00 13 C 10.77 g/m*3 13 C 0 km/h
596 25-05-2015 01:55:00 12.8 C 10.64 g/m*3 12.8 C 0 km/h
597 25-05-2015 02:00:00 12.8 C 10.64 g/m*3 12.8 C 0 km/h
598 25-05-2015 02:05:00 12.8 C 10.64 g/m*3 12.8 C 0 km/h
599 25-05-2015 02:10:00 12.7 C 10.58 g/m*3 12.7 C 0 km/h
600 25-05-2015 02:15:00 12.7 C 10.58 g/m*3 12.7 C 0 km/h
Sensor: Nr:Datum:Temp:Abs-Feuchte:Windchill:Wind:
Aussen-T/F 601 25-05-2015 02:20:00 12.6 C 10.51 g/m*3 12.6 C 0 km/h
602 25-05-2015 02:25:00 12.4 C 10.38 g/m*3 12.4 C 0 km/h
603 25-05-2015 02:30:00 12.4 C 10.38 g/m*3 12.4 C 0 km/h
604 25-05-2015 02:35:00 12.3 C 10.32 g/m*3 12.3 C 0 km/h
605 25-05-2015 02:40:00 12.2 C 10.25 g/m*3 12.2 C 0 km/h
606 25-05-2015 02:45:00 12.2 C 10.25 g/m*3 12.2 C 3.2 km/h
607 25-05-2015 02:50:00 12.2 C 10.25 g/m*3 12.2 C 3.2 km/h
608 25-05-2015 02:55:00 12.4 C 10.49 g/m*3 12.4 C 0 km/h
609 25-05-2015 03:00:00 12.4 C 10.49 g/m*3 12.4 C 0 km/h
610 25-05-2015 03:05:00 12.1 C 10.19 g/m*3 12.1 C 0 km/h
611 25-05-2015 03:10:00 12.1 C 10.19 g/m*3 12.1 C 1.6 km/h
612 25-05-2015 03:15:00 11.9 C 10.06 g/m*3 11.9 C 0 km/h
613 25-05-2015 03:20:00 11.8 C 10 g/m*3 11.8 C 1.6 km/h
614 25-05-2015 03:25:00 11.7 C 9.94 g/m*3 11.7 C 1.6 km/h
615 25-05-2015 03:30:00 11.6 C 9.87 g/m*3 11.6 C 0 km/h
616 25-05-2015 03:35:00 11.4 C 9.75 g/m*3 11.4 C 1.6 km/h
617 25-05-2015 03:40:00 11.3 C 9.69 g/m*3 11.3 C 0 km/h
618 25-05-2015 03:45:00 11.2 C 9.63 g/m*3 11.2 C 1.6 km/h
619 25-05-2015 03:50:00 11 C 9.51 g/m*3 11 C 0 km/h
620 25-05-2015 03:55:00 10.9 C 9.45 g/m*3 10.9 C 1.6 km/h
621 25-05-2015 04:00:00 10.8 C 9.39 g/m*3 10.8 C 0 km/h
622 25-05-2015 04:05:00 10.8 C 9.39 g/m*3 10.8 C 1.6 km/h
623 25-05-2015 04:10:00 10.7 C 9.33 g/m*3 10.7 C 1.6 km/h
624 25-05-2015 04:15:00 10.7 C 9.33 g/m*3 10.7 C 0 km/h
625 25-05-2015 04:20:00 10.6 C 9.27 g/m*3 10.6 C 0 km/h
Sensor: Nr:Datum:Temp:Abs-Feuchte:Windchill:Wind:
Aussen-T/F 626 25-05-2015 04:25:00 10.6 C 9.27 g/m*3 10.6 C 1.6 km/h
627 25-05-2015 04:30:00 10.4 C 9.16 g/m*3 10.4 C 1.6 km/h
628 25-05-2015 04:35:00 10.4 C 9.16 g/m*3 10.4 C 0 km/h
629 25-05-2015 04:40:00 10.3 C 9.1 g/m*3 10.3 C 0 km/h
630 25-05-2015 04:45:00 10.2 C 9.04 g/m*3 10.2 C 0 km/h
631 25-05-2015 04:50:00 10.2 C 9.04 g/m*3 10.2 C 0 km/h
632 25-05-2015 04:55:00 10.2 C 9.04 g/m*3 10.2 C 1.6 km/h
633 25-05-2015 10:45:00 15.1 C 9.68 g/m*3 15.1 C 1.6 km/h
634 25-05-2015 10:50:00 15.1 C 9.93 g/m*3 15.1 C 0 km/h
635 25-05-2015 10:55:00 15.1 C 10.06 g/m*3 15.1 C 0 km/h
636 25-05-2015 11:00:00 15.1 C 10.19 g/m*3 15.1 C 0 km/h
637 25-05-2015 11:05:00 15.1 C 9.93 g/m*3 15.1 C 0 km/h
638 25-05-2015 11:10:00 15.2 C 10.12 g/m*3 15.2 C 1.6 km/h
639 25-05-2015 11:15:00 15.2 C 9.99 g/m*3 15.2 C 1.6 km/h
640 25-05-2015 11:20:00 15.3 C 10.32 g/m*3 15.3 C 0 km/h
641 25-05-2015 11:25:00 15.4 C 10.25 g/m*3 15.4 C 1.6 km/h
642 25-05-2015 11:30:00 15.5 C 10.18 g/m*3 15.5 C 4.8 km/h
643 25-05-2015 11:35:00 15.5 C 10.05 g/m*3 15.5 C 4.8 km/h
644 25-05-2015 11:40:00 15.4 C 9.99 g/m*3 15.4 C 3.2 km/h
645 25-05-2015 11:45:00 15.5 C 10.05 g/m*3 15.5 C 4.8 km/h
646 25-05-2015 11:50:00 15.4 C 9.59 g/m*3 15.4 C 9.7 km/h
647 25-05-2015 11:55:00 15.2 C 9.09 g/m*3 15.2 C 8.1 km/h
648 25-05-2015 12:00:00 15.1 C 9.42 g/m*3 15.1 C 6.4 km/h
649 25-05-2015 12:05:00 14.8 C 9.63 g/m*3 14.8 C 9.7 km/h
650 25-05-2015 12:10:00 14.7 C 9.95 g/m*3 14.7 C 8.1 km/h
Sensor: Nr:Datum:Temp:Abs-Feuchte:Windchill:Wind:
Aussen-T/F 651 25-05-2015 12:15:00 14.5 C 9.95 g/m*3 14.5 C 6.4 km/h
652 25-05-2015 12:20:00 14.5 C 9.95 g/m*3 14.5 C 1.6 km/h
653 25-05-2015 12:25:00 14.5 C 9.95 g/m*3 14.5 C 0 km/h
654 25-05-2015 12:30:00 14.5 C 9.95 g/m*3 14.5 C 0 km/h
655 25-05-2015 14:00:00 15.4 C 13.14 g/m*3 15.4 C 3.2 km/h
656 25-05-2015 14:05:00 15.4 C 10.51 g/m*3 15.4 C 3.2 km/h
657 25-05-2015 14:10:00 15.3 C 10.45 g/m*3 15.3 C 1.6 km/h
658 25-05-2015 14:15:00 15.2 C 10.64 g/m*3 15.2 C 1.6 km/h
659 25-05-2015 14:20:00 15.3 C 10.71 g/m*3 15.3 C 3.2 km/h
660 25-05-2015 14:25:00 15.4 C 10.64 g/m*3 15.4 C 1.6 km/h
661 25-05-2015 14:30:00 15.5 C 10.71 g/m*3 15.5 C 0 km/h
662 25-05-2015 14:35:00 15.5 C 10.71 g/m*3 15.5 C 1.6 km/h
663 25-05-2015 15:35:00 15.7 C 11.11 g/m*3 15.7 C 0 km/h
664 25-05-2015 15:40:00 15.6 C 11.3 g/m*3 15.6 C 0 km/h
665 25-05-2015 15:45:00 15.5 C 11.5 g/m*3 15.5 C 0 km/h
666 25-05-2015 15:50:00 15.5 C 11.63 g/m*3 15.5 C 0 km/h
667 25-05-2015 15:55:00 15.5 C 11.37 g/m*3 15.5 C 3.2 km/h
668 25-05-2015 16:00:00 15.6 C 11.44 g/m*3 15.6 C 0 km/h
669 25-05-2015 16:05:00 15.6 C 11.17 g/m*3 15.6 C 1.6 km/h
670 25-05-2015 16:10:00 15.8 C 11.17 g/m*3 15.8 C 0 km/h
671 25-05-2015 16:15:00 15.9 C 10.97 g/m*3 15.9 C 0 km/h
672 25-05-2015 16:20:00 16 C 11.17 g/m*3 16 C 0 km/h
673 25-05-2015 16:25:00 16.2 C 11.03 g/m*3 16.2 C 0 km/h
674 25-05-2015 16:30:00 16.4 C 11.31 g/m*3 16.4 C 3.2 km/h
675 25-05-2015 16:35:00 16.8 C 11.58 g/m*3 16.8 C 3.2 km/h
Sensor: Nr:Datum:Temp:Abs-Feuchte:Windchill:Wind:
Aussen-T/F 676 25-05-2015 16:40:00 17 C 11.43 g/m*3 17 C 4.8 km/h
677 25-05-2015 16:45:00 17.2 C 11.86 g/m*3 17.2 C 6.4 km/h
678 25-05-2015 16:50:00 17.5 C 11.78 g/m*3 17.5 C 4.8 km/h
679 25-05-2015 16:55:00 17.4 C 11.12 g/m*3 17.4 C 3.2 km/h
680 25-05-2015 17:00:00 17.2 C 10.98 g/m*3 17.2 C 1.6 km/h
681 25-05-2015 17:05:00 16.9 C 10.79 g/m*3 16.9 C 1.6 km/h
682 25-05-2015 17:10:00 16.8 C 11.01 g/m*3 16.8 C 0 km/h
683 25-05-2015 17:15:00 16.7 C 11.23 g/m*3 16.7 C 3.2 km/h
684 25-05-2015 17:20:00 16.6 C 11.02 g/m*3 16.6 C 6.4 km/h
685 25-05-2015 17:25:00 16.3 C 11.1 g/m*3 16.3 C 11.3 km/h
686 25-05-2015 17:30:00 15.9 C 10.7 g/m*3 15.9 C 11.3 km/h
687 25-05-2015 17:35:00 15 C 10.9 g/m*3 15 C 0 km/h
688 25-05-2015 17:40:00 14.6 C 11.01 g/m*3 14.6 C 0 km/h
689 25-05-2015 17:45:00 14.4 C 11.13 g/m*3 14.4 C 1.6 km/h
690 25-05-2015 17:50:00 14.3 C 11.18 g/m*3 14.3 C 4.8 km/h
691 25-05-2015 17:55:00 14.3 C 11.18 g/m*3 14.3 C 1.6 km/h
692 25-05-2015 18:00:00 14.4 C 11.37 g/m*3 14.4 C 4.8 km/h
693 25-05-2015 18:05:00 14.4 C 11.37 g/m*3 14.4 C 1.6 km/h
694 25-05-2015 18:10:00 14.3 C 11.06 g/m*3 14.3 C 9.7 km/h
695 25-05-2015 18:15:00 14.2 C 11.11 g/m*3 14.2 C 3.2 km/h
696 25-05-2015 18:20:00 14.3 C 11.3 g/m*3 14.3 C 1.6 km/h
697 25-05-2015 18:25:00 14.4 C 11.37 g/m*3 14.4 C 3.2 km/h
698 25-05-2015 18:30:00 14.5 C 11.32 g/m*3 14.5 C 3.2 km/h
699 25-05-2015 18:35:00 14.9 C 11.73 g/m*3 14.9 C 1.6 km/h
700 25-05-2015 18:40:00 15.5 C 12.03 g/m*3 15.5 C 0 km/h
Sensor: Nr:Datum:Temp:Abs-Feuchte:Windchill:Wind:
Aussen-T/F 701 25-05-2015 18:45:00 15.9 C 12.19 g/m*3 15.9 C 0 km/h
702 25-05-2015 18:50:00 16.3 C 12.07 g/m*3 16.3 C 6.4 km/h
703 25-05-2015 18:55:00 16.2 C 11.86 g/m*3 16.2 C 9.7 km/h
704 25-05-2015 19:00:00 16 C 11.58 g/m*3 16 C 3.2 km/h
705 25-05-2015 19:05:00 16 C 11.58 g/m*3 16 C 3.2 km/h
706 25-05-2015 19:10:00 16 C 11.58 g/m*3 16 C 1.6 km/h
707 25-05-2015 19:15:00 16 C 11.58 g/m*3 16 C 0 km/h
708 25-05-2015 22:05:00 11.7 C 9.83 g/m*3 11.7 C 1.6 km/h
709 25-05-2015 22:10:00 11.7 C 9.83 g/m*3 11.7 C 0 km/h
710 25-05-2015 22:15:00 11.6 C 9.77 g/m*3 11.6 C 1.6 km/h
711 25-05-2015 22:20:00 11.6 C 9.77 g/m*3 11.6 C 6.4 km/h
712 25-05-2015 22:25:00 11.6 C 9.67 g/m*3 11.6 C 8.1 km/h
713 25-05-2015 22:30:00 11.6 C 9.67 g/m*3 11.6 C 3.2 km/h
714 25-05-2015 22:50:00 11.9 C 9.64 g/m*3 11.9 C 6.4 km/h
715 25-05-2015 22:55:00 12.1 C 9.44 g/m*3 12.1 C 8.1 km/h
716 25-05-2015 23:00:00 12.3 C 9.66 g/m*3 12.3 C 1.6 km/h
717 25-05-2015 23:05:00 12.4 C 9.51 g/m*3 12.4 C 4.8 km/h
718 25-05-2015 23:10:00 12.6 C 9.29 g/m*3 12.6 C 11.3 km/h
719 25-05-2015 23:15:00 12.7 C 9.57 g/m*3 12.7 C 3.2 km/h
720 25-05-2015 23:20:00 12.6 C 9.4 g/m*3 12.6 C 3.2 km/h
721 25-05-2015 23:25:00 12.6 C 9.51 g/m*3 12.6 C 6.4 km/h
722 25-05-2015 23:30:00 12.4 C 9.29 g/m*3 12.4 C 4.8 km/h
723 25-05-2015 23:35:00 12.4 C 9.51 g/m*3 12.4 C 3.2 km/h
724 25-05-2015 23:40:00 12.3 C 9.56 g/m*3 12.3 C 1.6 km/h
725 25-05-2015 23:45:00 12.1 C 9.44 g/m*3 12.1 C 4.8 km/h
Sensor: Nr:Datum:Temp:Abs-Feuchte:Windchill:Wind:
Aussen-T/F 726 25-05-2015 23:50:00 12 C 9.17 g/m*3 12 C 9.7 km/h
727 25-05-2015 23:55:00 12 C 9.38 g/m*3 12 C 4.8 km/h
728 26-05-2015 00:00:00 11.9 C 9.11 g/m*3 11.9 C 6.4 km/h
729 26-05-2015 00:05:00 12 C 9.27 g/m*3 12 C 4.8 km/h
730 26-05-2015 00:10:00 11.9 C 9.21 g/m*3 11.9 C 3.2 km/h
731 26-05-2015 00:15:00 11.7 C 9.1 g/m*3 11.7 C 4.8 km/h
732 26-05-2015 00:20:00 11.7 C 9.1 g/m*3 11.7 C 6.4 km/h
733 26-05-2015 00:25:00 11.7 C 8.99 g/m*3 11.7 C 1.6 km/h
734 26-05-2015 00:30:00 11.6 C 9.04 g/m*3 11.6 C 3.2 km/h
735 26-05-2015 00:35:00 11.6 C 9.04 g/m*3 11.6 C 6.4 km/h
736 26-05-2015 00:40:00 11.4 C 9.14 g/m*3 11.4 C 0 km/h
737 26-05-2015 00:45:00 11.3 C 9.08 g/m*3 11.3 C 8.1 km/h
738 26-05-2015 00:50:00 11.3 C 8.77 g/m*3 11.3 C 8.1 km/h
739 26-05-2015 00:55:00 11.4 C 8.93 g/m*3 11.4 C 3.2 km/h
740 26-05-2015 01:00:00 11.4 C 8.93 g/m*3 11.4 C 3.2 km/h
741 26-05-2015 01:05:00 11.4 C 8.72 g/m*3 11.4 C 3.2 km/h
742 26-05-2015 01:10:00 11.6 C 8.94 g/m*3 11.6 C 0 km/h
743 26-05-2015 01:15:00 11.6 C 9.15 g/m*3 11.6 C 0 km/h
744 26-05-2015 01:20:00 11.5 C 8.99 g/m*3 11.5 C 8.1 km/h
745 26-05-2015 01:25:00 11.4 C 8.93 g/m*3 11.4 C 3.2 km/h
746 26-05-2015 01:30:00 11.4 C 8.83 g/m*3 11.4 C 9.7 km/h
747 26-05-2015 01:35:00 11.6 C 8.83 g/m*3 11.6 C 11.3 km/h
748 26-05-2015 01:40:00 11.7 C 8.79 g/m*3 11.7 C 6.4 km/h
749 26-05-2015 01:45:00 11.7 C 8.58 g/m*3 11.7 C 6.4 km/h
750 26-05-2015 01:50:00 11.8 C 8.74 g/m*3 11.8 C 8.1 km/h
Sensor: Nr:Datum:Temp:Abs-Feuchte:Windchill:Wind:
Aussen-T/F 751 26-05-2015 01:55:00 11.8 C 8.74 g/m*3 11.8 C 6.4 km/h
752 26-05-2015 02:00:00 11.7 C 8.58 g/m*3 11.7 C 8.1 km/h
753 26-05-2015 02:05:00 11.7 C 8.58 g/m*3 11.7 C 8.1 km/h
754 26-05-2015 02:10:00 11.6 C 8.63 g/m*3 11.6 C 6.4 km/h
755 26-05-2015 02:15:00 11.4 C 8.72 g/m*3 11.4 C 0 km/h
756 26-05-2015 02:20:00 11.2 C 8.62 g/m*3 11.2 C 1.6 km/h
757 26-05-2015 02:25:00 11.1 C 8.56 g/m*3 11.1 C 1.6 km/h
758 26-05-2015 02:30:00 10.9 C 8.55 g/m*3 10.9 C 1.6 km/h
759 26-05-2015 02:35:00 10.9 C 8.55 g/m*3 10.9 C 3.2 km/h
760 26-05-2015 02:40:00 10.8 C 8.5 g/m*3 10.8 C 4.8 km/h
761 26-05-2015 02:45:00 10.7 C 8.35 g/m*3 9.52 C 9.7 km/h
762 26-05-2015 02:50:00 10.7 C 8.35 g/m*3 10.18 C 6.4 km/h
763 26-05-2015 02:55:00 10.7 C 8.45 g/m*3 10.7 C 0 km/h
764 26-05-2015 03:00:00 10.6 C 8.49 g/m*3 10.6 C 1.6 km/h
765 26-05-2015 03:05:00 10.3 C 8.33 g/m*3 10.3 C 0 km/h
766 26-05-2015 03:10:00 10.2 C 8.28 g/m*3 9.6 C 6.4 km/h
767 26-05-2015 03:15:00 10.2 C 8.47 g/m*3 10.2 C 0 km/h
768 26-05-2015 03:20:00 10.2 C 8.47 g/m*3 10.2 C 0 km/h
769 26-05-2015 03:25:00 10.1 C 8.51 g/m*3 10.1 C 0 km/h
770 26-05-2015 03:30:00 10.1 C 8.32 g/m*3 10.1 C 0 km/h
771 26-05-2015 03:35:00 10.2 C 8.37 g/m*3 10.2 C 3.2 km/h
772 26-05-2015 03:40:00 10.3 C 8.52 g/m*3 10.3 C 0 km/h
773 26-05-2015 03:45:00 10.3 C 8.52 g/m*3 10.3 C 0 km/h
774 26-05-2015 03:50:00 10.3 C 8.52 g/m*3 10.3 C 3.2 km/h
775 26-05-2015 03:55:00 10.3 C 8.52 g/m*3 10.3 C 0 km/h
Sensor: Nr:Datum:Temp:Abs-Feuchte:Windchill:Wind:
Aussen-T/F 776 26-05-2015 04:00:00 10.3 C 8.52 g/m*3 10.3 C 0 km/h
777 26-05-2015 04:05:00 10.3 C 8.52 g/m*3 9.72 C 6.4 km/h
778 26-05-2015 04:10:00 10.3 C 8.43 g/m*3 10.3 C 3.2 km/h
779 26-05-2015 04:15:00 10.3 C 8.33 g/m*3 10.3 C 3.2 km/h
780 26-05-2015 04:20:00 10.4 C 8.38 g/m*3 10.4 C 0 km/h
781 26-05-2015 04:25:00 10.4 C 8.38 g/m*3 10.4 C 1.6 km/h
782 26-05-2015 04:30:00 10.4 C 8.38 g/m*3 10.4 C 1.6 km/h
783 26-05-2015 04:35:00 10.4 C 8.29 g/m*3 10.4 C 1.6 km/h
784 26-05-2015 04:40:00 10.4 C 8.29 g/m*3 10.4 C 0 km/h
785 26-05-2015 04:45:00 10.4 C 8.29 g/m*3 10.4 C 1.6 km/h
786 26-05-2015 04:50:00 10.4 C 8.29 g/m*3 10.4 C 4.8 km/h
787 26-05-2015 04:55:00 10.4 C 8.29 g/m*3 10.4 C 3.2 km/h
788 26-05-2015 05:00:00 10.3 C 8.24 g/m*3 10.3 C 1.6 km/h
789 26-05-2015 05:05:00 10.3 C 8.14 g/m*3 10.3 C 3.2 km/h
790 26-05-2015 05:10:00 10.3 C 8.14 g/m*3 10.3 C 4.8 km/h
791 26-05-2015 05:15:00 10.3 C 8.14 g/m*3 10.3 C 0 km/h
792 26-05-2015 05:20:00 10.3 C 8.14 g/m*3 10.3 C 3.2 km/h
793 26-05-2015 05:25:00 10.2 C 8.18 g/m*3 10.2 C 3.2 km/h
794 26-05-2015 05:30:00 10.2 C 8.28 g/m*3 10.2 C 0 km/h
795 26-05-2015 05:35:00 10.1 C 8.13 g/m*3 10.1 C 0 km/h
796 26-05-2015 05:40:00 9.9 C 8.12 g/m*3 9.9 C 1.6 km/h
797 26-05-2015 05:45:00 9.8 C 8.07 g/m*3 9.8 C 0 km/h
798 26-05-2015 05:50:00 9.8 C 7.98 g/m*3 9.8 C 1.6 km/h
799 26-05-2015 05:55:00 9.8 C 8.07 g/m*3 9.8 C 1.6 km/h
800 26-05-2015 06:00:00 9.7 C 8.02 g/m*3 9.7 C 0 km/h
Sensor: Nr:Datum:Temp:Abs-Feuchte:Windchill:Wind:
Aussen-T/F 801 26-05-2015 06:05:00 9.7 C 8.02 g/m*3 9.7 C 0 km/h
802 26-05-2015 06:10:00 9.8 C 8.07 g/m*3 9.8 C 1.6 km/h
803 26-05-2015 06:15:00 9.8 C 7.98 g/m*3 9.8 C 3.2 km/h
804 26-05-2015 06:20:00 9.8 C 7.98 g/m*3 9.8 C 1.6 km/h
805 26-05-2015 06:25:00 9.8 C 7.98 g/m*3 9.8 C 4.8 km/h
806 26-05-2015 06:30:00 9.9 C 8.03 g/m*3 9.9 C 4.8 km/h
807 26-05-2015 06:35:00 9.9 C 8.03 g/m*3 9.9 C 3.2 km/h
808 26-05-2015 06:40:00 10 C 7.99 g/m*3 9.37 C 6.4 km/h
809 26-05-2015 06:45:00 10 C 7.99 g/m*3 10 C 4.8 km/h
810 26-05-2015 06:50:00 10 C 7.99 g/m*3 9.37 C 6.4 km/h
811 26-05-2015 06:55:00 10.1 C 8.04 g/m*3 10.1 C 1.6 km/h
812 26-05-2015 07:00:00 10.1 C 8.04 g/m*3 10.1 C 3.2 km/h
813 26-05-2015 07:05:00 10.1 C 8.04 g/m*3 9.48 C 6.4 km/h
814 26-05-2015 07:10:00 10.1 C 8.04 g/m*3 8.54 C 11.3 km/h
815 26-05-2015 07:15:00 10.1 C 8.04 g/m*3 10.1 C 4.8 km/h
816 26-05-2015 07:20:00 10.1 C 8.04 g/m*3 10.1 C 4.8 km/h
817 26-05-2015 07:25:00 10.1 C 7.94 g/m*3 10.1 C 3.2 km/h
818 26-05-2015 07:30:00 10.2 C 8.09 g/m*3 10.2 C 1.6 km/h
819 26-05-2015 07:35:00 10.2 C 7.99 g/m*3 10.2 C 4.8 km/h
820 26-05-2015 07:40:00 10.2 C 7.99 g/m*3 9.22 C 8.1 km/h
821 26-05-2015 07:45:00 10.2 C 7.99 g/m*3 10.2 C 3.2 km/h
822 26-05-2015 07:50:00 10.3 C 8.04 g/m*3 10.3 C 4.8 km/h
823 26-05-2015 07:55:00 10.3 C 8.14 g/m*3 10.3 C 3.2 km/h
824 26-05-2015 08:00:00 10.3 C 8.04 g/m*3 10.3 C 3.2 km/h
825 26-05-2015 08:05:00 10.4 C 8.19 g/m*3 10.4 C 4.8 km/h
Sensor: Nr:Datum:Temp:Abs-Feuchte:Windchill:Wind:
Aussen-T/F 826 26-05-2015 08:10:00 10.5 C 8.15 g/m*3 9.95 C 6.4 km/h
827 26-05-2015 08:15:00 10.6 C 8.2 g/m*3 9.69 C 8.1 km/h
828 26-05-2015 08:20:00 10.7 C 8.15 g/m*3 10.7 C 4.8 km/h
829 26-05-2015 08:25:00 10.8 C 8.11 g/m*3 10.8 C 4.8 km/h
830 26-05-2015 08:30:00 10.8 C 8.11 g/m*3 10.8 C 4.8 km/h
831 26-05-2015 08:35:00 10.9 C 8.16 g/m*3 10.9 C 3.2 km/h
832 26-05-2015 08:40:00 10.9 C 8.16 g/m*3 10.41 C 6.4 km/h
833 26-05-2015 08:45:00 10.9 C 8.16 g/m*3 10.04 C 8.1 km/h
834 26-05-2015 08:50:00 11.1 C 8.36 g/m*3 11.1 C 6.4 km/h
835 26-05-2015 08:55:00 11.2 C 8.21 g/m*3 11.2 C 9.7 km/h
836 26-05-2015 09:00:00 11.4 C 8.42 g/m*3 11.4 C 6.4 km/h
837 26-05-2015 09:05:00 11.6 C 8.32 g/m*3 11.6 C 6.4 km/h
838 26-05-2015 09:10:00 11.8 C 8.21 g/m*3 11.8 C 8.1 km/h
839 26-05-2015 09:15:00 11.8 C 8.21 g/m*3 11.8 C 8.1 km/h
840 26-05-2015 09:20:00 12 C 8.21 g/m*3 12 C 8.1 km/h
841 26-05-2015 09:25:00 12.1 C 7.94 g/m*3 12.1 C 9.7 km/h
842 26-05-2015 09:30:00 12.2 C 7.99 g/m*3 12.2 C 12.9 km/h
843 26-05-2015 09:35:00 12.3 C 8.04 g/m*3 12.3 C 14.5 km/h
844 26-05-2015 09:40:00 12.7 C 8.24 g/m*3 12.7 C 16.1 km/h
845 26-05-2015 09:45:00 12.8 C 8.06 g/m*3 12.8 C 16.1 km/h
846 26-05-2015 09:50:00 12.7 C 7.68 g/m*3 12.7 C 12.9 km/h
847 26-05-2015 09:55:00 12.6 C 7.74 g/m*3 12.6 C 9.7 km/h
848 26-05-2015 10:00:00 12.8 C 7.5 g/m*3 12.8 C 12.9 km/h
849 26-05-2015 10:05:00 12.9 C 7.78 g/m*3 12.9 C 9.7 km/h
850 26-05-2015 10:10:00 13.2 C 7.81 g/m*3 13.2 C 9.7 km/h
Sensor: Nr:Datum:Temp:Abs-Feuchte:Windchill:Wind:
Aussen-T/F 851 26-05-2015 10:15:00 13.5 C 7.84 g/m*3 13.5 C 11.3 km/h
852 26-05-2015 10:20:00 13.4 C 7.67 g/m*3 13.4 C 11.3 km/h
853 26-05-2015 10:25:00 13.3 C 7.51 g/m*3 13.3 C 6.4 km/h
854 26-05-2015 10:30:00 13.3 C 7.74 g/m*3 13.3 C 9.7 km/h
855 26-05-2015 10:35:00 13.3 C 7.86 g/m*3 13.3 C 11.3 km/h
856 26-05-2015 10:40:00 13.3 C 7.74 g/m*3 13.3 C 6.4 km/h
857 26-05-2015 10:45:00 13.1 C 7.42 g/m*3 13.1 C 9.7 km/h
858 26-05-2015 10:50:00 13.3 C 7.86 g/m*3 13.3 C 9.7 km/h
859 26-05-2015 10:55:00 13.6 C 7.65 g/m*3 13.6 C 9.7 km/h
860 26-05-2015 11:00:00 13.6 C 7.3 g/m*3 13.6 C 11.3 km/h
861 26-05-2015 11:05:00 13.5 C 7.37 g/m*3 13.5 C 9.7 km/h
862 26-05-2015 11:10:00 13.4 C 7.32 g/m*3 13.4 C 8.1 km/h
863 26-05-2015 11:15:00 13.3 C 7.05 g/m*3 13.3 C 16.1 km/h
864 26-05-2015 11:20:00 13.1 C 7.19 g/m*3 13.1 C 8.1 km/h
865 26-05-2015 11:25:00 12.9 C 6.99 g/m*3 12.9 C 12.9 km/h
866 26-05-2015 11:30:00 13 C 7.37 g/m*3 13 C 12.9 km/h
867 26-05-2015 11:35:00 13.2 C 7 g/m*3 13.2 C 4.8 km/h
868 26-05-2015 11:40:00 13.4 C 7.44 g/m*3 13.4 C 12.9 km/h
869 26-05-2015 11:45:00 13.3 C 7.05 g/m*3 13.3 C 16.1 km/h
870 26-05-2015 11:50:00 13.1 C 7.19 g/m*3 13.1 C 16.1 km/h
871 26-05-2015 11:55:00 13 C 7.14 g/m*3 13 C 9.7 km/h
872 26-05-2015 12:00:00 12.9 C 7.1 g/m*3 12.9 C 14.5 km/h
873 26-05-2015 12:05:00 12.7 C 7.12 g/m*3 12.7 C 16.1 km/h
874 26-05-2015 12:10:00 12.6 C 7.08 g/m*3 12.6 C 11.3 km/h
875 26-05-2015 12:15:00 12.4 C 7.1 g/m*3 12.4 C 6.4 km/h
Sensor: Nr:Datum:Temp:Abs-Feuchte:Windchill:Wind:
Aussen-T/F 876 26-05-2015 12:20:00 12.4 C 7.1 g/m*3 12.4 C 8.1 km/h
877 26-05-2015 12:25:00 12.4 C 7.1 g/m*3 12.4 C 9.7 km/h
878 26-05-2015 12:30:00 12.5 C 6.93 g/m*3 12.5 C 8.1 km/h
879 26-05-2015 12:35:00 12.7 C 6.9 g/m*3 12.7 C 8.1 km/h
880 26-05-2015 12:40:00 12.8 C 6.83 g/m*3 12.8 C 8.1 km/h
881 26-05-2015 12:45:00 12.9 C 6.76 g/m*3 12.9 C 11.3 km/h
882 26-05-2015 12:50:00 13.1 C 6.62 g/m*3 13.1 C 12.9 km/h
883 26-05-2015 12:55:00 13.3 C 6.93 g/m*3 13.3 C 9.7 km/h
884 26-05-2015 13:00:00 13.8 C 6.67 g/m*3 13.8 C 9.7 km/h
885 26-05-2015 13:05:00 13.8 C 6.55 g/m*3 13.8 C 8.1 km/h
886 26-05-2015 13:10:00 13.6 C 6.71 g/m*3 13.6 C 8.1 km/h
887 26-05-2015 13:15:00 13.3 C 6.82 g/m*3 13.3 C 6.4 km/h
888 26-05-2015 13:20:00 13.2 C 7 g/m*3 13.2 C 9.7 km/h
889 26-05-2015 13:25:00 12.9 C 6.88 g/m*3 12.9 C 8.1 km/h
890 26-05-2015 13:30:00 12.8 C 6.83 g/m*3 12.8 C 9.7 km/h
891 26-05-2015 13:35:00 12.8 C 7.06 g/m*3 12.8 C 6.4 km/h
892 26-05-2015 13:40:00 12.8 C 6.94 g/m*3 12.8 C 9.7 km/h
893 26-05-2015 13:45:00 12.9 C 7.21 g/m*3 12.9 C 12.9 km/h
894 26-05-2015 13:50:00 12.9 C 6.99 g/m*3 12.9 C 6.4 km/h
895 26-05-2015 13:55:00 13 C 7.37 g/m*3 13 C 6.4 km/h
896 26-05-2015 14:00:00 13.2 C 6.89 g/m*3 13.2 C 8.1 km/h
897 26-05-2015 14:05:00 13.3 C 7.16 g/m*3 13.3 C 6.4 km/h
898 26-05-2015 14:10:00 13.5 C 6.9 g/m*3 13.5 C 4.8 km/h
899 26-05-2015 14:15:00 13.7 C 6.99 g/m*3 13.7 C 6.4 km/h
900 26-05-2015 14:20:00 14.1 C 7.16 g/m*3 14.1 C 9.7 km/h
Sensor: Nr:Datum:Temp:Abs-Feuchte:Windchill:Wind:
Aussen-T/F 901 26-05-2015 14:25:00 14.7 C 7.18 g/m*3 14.7 C 6.4 km/h
902 26-05-2015 14:30:00 14.8 C 6.71 g/m*3 14.8 C 6.4 km/h
903 26-05-2015 14:35:00 14.6 C 6.88 g/m*3 14.6 C 6.4 km/h
904 26-05-2015 14:40:00 14.4 C 6.8 g/m*3 14.4 C 8.1 km/h
905 26-05-2015 14:45:00 14.3 C 7 g/m*3 14.3 C 4.8 km/h
906 26-05-2015 14:50:00 14.3 C 7.37 g/m*3 14.3 C 9.7 km/h
907 26-05-2015 14:55:00 14.6 C 7.38 g/m*3 14.6 C 8.1 km/h
908 26-05-2015 15:00:00 14.8 C 7.35 g/m*3 14.8 C 11.3 km/h
909 26-05-2015 15:05:00 14.7 C 6.92 g/m*3 14.7 C 8.1 km/h
910 26-05-2015 15:10:00 14.4 C 6.8 g/m*3 14.4 C 8.1 km/h
911 26-05-2015 15:15:00 14.1 C 6.92 g/m*3 14.1 C 6.4 km/h
912 26-05-2015 15:20:00 13.8 C 6.91 g/m*3 13.8 C 6.4 km/h
913 26-05-2015 15:25:00 13.7 C 6.87 g/m*3 13.7 C 4.8 km/h
914 26-05-2015 15:30:00 13.4 C 6.74 g/m*3 13.4 C 8.1 km/h
915 26-05-2015 15:35:00 13.3 C 6.93 g/m*3 13.3 C 4.8 km/h
916 26-05-2015 15:40:00 13.3 C 6.82 g/m*3 13.3 C 9.7 km/h
917 26-05-2015 15:45:00 13.3 C 6.82 g/m*3 13.3 C 9.7 km/h
918 26-05-2015 15:50:00 13.4 C 6.74 g/m*3 13.4 C 9.7 km/h
919 26-05-2015 15:55:00 13.5 C 7.02 g/m*3 13.5 C 9.7 km/h
920 26-05-2015 16:00:00 13.7 C 6.99 g/m*3 13.7 C 6.4 km/h
921 26-05-2015 16:05:00 13.8 C 6.91 g/m*3 13.8 C 6.4 km/h
922 26-05-2015 16:10:00 13.8 C 6.79 g/m*3 13.8 C 11.3 km/h
923 26-05-2015 16:15:00 13.8 C 6.79 g/m*3 13.8 C 8.1 km/h
924 26-05-2015 16:20:00 13.9 C 6.95 g/m*3 13.9 C 4.8 km/h
925 26-05-2015 16:25:00 13.8 C 7.03 g/m*3 13.8 C 6.4 km/h
Sensor: Nr:Datum:Temp:Abs-Feuchte:Windchill:Wind:
Aussen-T/F 926 26-05-2015 16:30:00 13.8 C 6.91 g/m*3 13.8 C 11.3 km/h
927 26-05-2015 16:35:00 13.7 C 6.75 g/m*3 13.7 C 4.8 km/h
928 26-05-2015 16:40:00 13.7 C 7.1 g/m*3 13.7 C 6.4 km/h
929 26-05-2015 16:45:00 13.6 C 6.94 g/m*3 13.6 C 6.4 km/h
930 26-05-2015 16:50:00 13.4 C 6.97 g/m*3 13.4 C 1.6 km/h
931 26-05-2015 16:55:00 13.4 C 6.97 g/m*3 13.4 C 1.6 km/h
932 26-05-2015 17:00:00 13.4 C 6.97 g/m*3 13.4 C 0 km/h
933 26-05-2015 17:05:00 13.4 C 7.32 g/m*3 13.4 C 0 km/h
934 26-05-2015 17:10:00 13.5 C 7.25 g/m*3 13.5 C 4.8 km/h
935 26-05-2015 17:15:00 13.7 C 7.1 g/m*3 13.7 C 4.8 km/h
936 26-05-2015 17:20:00 13.8 C 7.39 g/m*3 13.8 C 4.8 km/h
937 26-05-2015 17:25:00 13.8 C 7.27 g/m*3 13.8 C 4.8 km/h
938 26-05-2015 17:30:00 14 C 7.24 g/m*3 14 C 8.1 km/h
939 26-05-2015 17:35:00 14.2 C 7.33 g/m*3 14.2 C 3.2 km/h
940 26-05-2015 17:40:00 14.3 C 7.37 g/m*3 14.3 C 6.4 km/h
941 26-05-2015 17:45:00 14.5 C 7.71 g/m*3 14.5 C 6.4 km/h
942 26-05-2015 17:50:00 14.8 C 7.47 g/m*3 14.8 C 6.4 km/h
943 26-05-2015 17:55:00 14.8 C 7.35 g/m*3 14.8 C 3.2 km/h
944 26-05-2015 18:00:00 14.7 C 7.18 g/m*3 14.7 C 3.2 km/h
945 26-05-2015 18:05:00 14.4 C 7.42 g/m*3 14.4 C 3.2 km/h
946 26-05-2015 18:10:00 14.3 C 8.23 g/m*3 14.3 C 0 km/h
947 26-05-2015 18:15:00 13.9 C 8.39 g/m*3 13.9 C 0 km/h
948 26-05-2015 18:20:00 13.5 C 8.3 g/m*3 13.5 C 0 km/h
949 26-05-2015 18:25:00 13.1 C 8.33 g/m*3 13.1 C 0 km/h
950 26-05-2015 18:30:00 12.9 C 8.45 g/m*3 12.9 C 0 km/h
Sensor: Nr:Datum:Temp:Abs-Feuchte:Windchill:Wind:
Aussen-T/F 951 26-05-2015 18:35:00 12.7 C 8.35 g/m*3 12.7 C 0 km/h
952 26-05-2015 18:40:00 12.6 C 8.41 g/m*3 12.6 C 0 km/h
953 26-05-2015 18:45:00 12.6 C 8.52 g/m*3 12.6 C 0 km/h
954 26-05-2015 18:50:00 12.5 C 8.58 g/m*3 12.5 C 0 km/h
955 26-05-2015 18:55:00 12.6 C 8.63 g/m*3 12.6 C 0 km/h
956 26-05-2015 19:00:00 12.6 C 8.63 g/m*3 12.6 C 0 km/h
957 26-05-2015 19:05:00 12.7 C 8.68 g/m*3 12.7 C 0 km/h
958 26-05-2015 19:10:00 12.7 C 8.91 g/m*3 12.7 C 0 km/h
959 26-05-2015 19:15:00 12.7 C 8.91 g/m*3 12.7 C 0 km/h
960 26-05-2015 19:20:00 12.6 C 8.85 g/m*3 12.6 C 0 km/h
961 26-05-2015 19:25:00 12.6 C 8.63 g/m*3 12.6 C 0 km/h
962 26-05-2015 19:30:00 12.4 C 8.63 g/m*3 12.4 C 0 km/h
963 26-05-2015 19:35:00 12.4 C 8.85 g/m*3 12.4 C 0 km/h
964 26-05-2015 19:40:00 12.4 C 8.74 g/m*3 12.4 C 0 km/h
965 26-05-2015 19:45:00 12.4 C 8.85 g/m*3 12.4 C 0 km/h
966 26-05-2015 19:50:00 12.3 C 8.69 g/m*3 12.3 C 0 km/h
967 26-05-2015 19:55:00 12.2 C 8.52 g/m*3 12.2 C 0 km/h
968 26-05-2015 20:00:00 12.1 C 8.58 g/m*3 12.1 C 0 km/h
969 26-05-2015 20:05:00 12.1 C 8.79 g/m*3 12.1 C 0 km/h
970 26-05-2015 20:10:00 11.9 C 8.68 g/m*3 11.9 C 0 km/h
971 26-05-2015 20:15:00 11.8 C 8.63 g/m*3 11.8 C 0 km/h
972 26-05-2015 20:20:00 11.8 C 8.63 g/m*3 11.8 C 0 km/h
973 26-05-2015 20:25:00 11.8 C 8.63 g/m*3 11.8 C 0 km/h
974 26-05-2015 20:30:00 11.7 C 8.58 g/m*3 11.7 C 0 km/h
975 26-05-2015 20:35:00 11.7 C 8.68 g/m*3 11.7 C 0 km/h
Sensor: Nr:Datum:Temp:Abs-Feuchte:Windchill:Wind:
Aussen-T/F 976 26-05-2015 20:40:00 11.6 C 8.63 g/m*3 11.6 C 0 km/h
977 26-05-2015 20:45:00 11.6 C 8.63 g/m*3 11.6 C 1.6 km/h
978 26-05-2015 20:50:00 11.6 C 8.73 g/m*3 11.6 C 0 km/h
979 26-05-2015 20:55:00 11.6 C 8.73 g/m*3 11.6 C 0 km/h
980 26-05-2015 21:00:00 11.4 C 8.62 g/m*3 11.4 C 0 km/h
981 26-05-2015 21:05:00 11.4 C 8.62 g/m*3 11.4 C 0 km/h
982 26-05-2015 21:10:00 11.4 C 8.72 g/m*3 11.4 C 0 km/h
983 26-05-2015 21:15:00 11.3 C 8.57 g/m*3 11.3 C 0 km/h
984 26-05-2015 21:20:00 11.2 C 8.41 g/m*3 11.2 C 0 km/h
985 26-05-2015 21:25:00 11.1 C 8.36 g/m*3 11.1 C 0 km/h
986 26-05-2015 21:30:00 11.1 C 8.36 g/m*3 11.1 C 0 km/h
987 26-05-2015 21:35:00 11 C 8.31 g/m*3 11 C 0 km/h
988 26-05-2015 21:40:00 10.9 C 8.26 g/m*3 10.9 C 0 km/h
989 26-05-2015 21:45:00 10.9 C 8.26 g/m*3 10.9 C 0 km/h
990 26-05-2015 21:50:00 10.9 C 8.16 g/m*3 10.9 C 0 km/h
991 26-05-2015 21:55:00 10.8 C 8.2 g/m*3 10.8 C 0 km/h
992 26-05-2015 22:00:00 10.8 C 8.11 g/m*3 10.8 C 3.2 km/h
993 26-05-2015 22:05:00 10.8 C 8.11 g/m*3 10.8 C 1.6 km/h
994 26-05-2015 22:10:00 10.9 C 8.16 g/m*3 10.9 C 0 km/h
995 26-05-2015 22:15:00 11.1 C 8.16 g/m*3 11.1 C 3.2 km/h
996 26-05-2015 22:20:00 11.2 C 8.21 g/m*3 11.2 C 0 km/h
997 26-05-2015 22:25:00 11.1 C 8.16 g/m*3 11.1 C 0 km/h
998 26-05-2015 22:30:00 11.1 C 8.06 g/m*3 11.1 C 1.6 km/h
999 26-05-2015 22:35:00 11 C 8.01 g/m*3 11 C 0 km/h
1000 26-05-2015 22:40:00 10.8 C 8.01 g/m*3 10.8 C 0 km/h
Sensor: Nr:Datum:Temp:Abs-Feuchte:Windchill:Wind:
Aussen-T/F 1001 26-05-2015 22:45:00 10.6 C 7.91 g/m*3 10.6 C 0 km/h
1002 26-05-2015 22:50:00 10.3 C 7.76 g/m*3 10.3 C 0 km/h
1003 26-05-2015 22:55:00 10.1 C 7.75 g/m*3 10.1 C 0 km/h
1004 26-05-2015 23:00:00 9.9 C 7.66 g/m*3 9.9 C 0 km/h
1005 26-05-2015 23:05:00 9.8 C 7.7 g/m*3 9.8 C 0 km/h
1006 26-05-2015 23:10:00 9.7 C 7.65 g/m*3 9.7 C 0 km/h
1007 26-05-2015 23:15:00 9.6 C 7.69 g/m*3 9.6 C 0 km/h
1008 26-05-2015 23:20:00 9.5 C 7.65 g/m*3 9.5 C 0 km/h
1009 26-05-2015 23:25:00 9.4 C 7.69 g/m*3 9.4 C 1.6 km/h
1010 26-05-2015 23:30:00 9.4 C 7.69 g/m*3 9.4 C 0 km/h
1011 26-05-2015 23:35:00 9.3 C 7.64 g/m*3 9.3 C 0 km/h
1012 26-05-2015 23:40:00 9.3 C 7.64 g/m*3 9.3 C 0 km/h
1013 26-05-2015 23:45:00 9.3 C 7.64 g/m*3 9.3 C 0 km/h
1014 26-05-2015 23:50:00 9.2 C 7.5 g/m*3 9.2 C 0 km/h
1015 26-05-2015 23:55:00 9.3 C 7.55 g/m*3 9.3 C 0 km/h
1016 27-05-2015 00:00:00 9.3 C 7.46 g/m*3 9.3 C 0 km/h
1017 27-05-2015 00:05:00 9.3 C 7.46 g/m*3 9.3 C 0 km/h
1018 27-05-2015 00:10:00 9.2 C 7.41 g/m*3 9.2 C 0 km/h
1019 27-05-2015 00:15:00 9.1 C 7.45 g/m*3 9.1 C 0 km/h
1020 27-05-2015 00:20:00 9 C 7.41 g/m*3 9 C 0 km/h
1021 27-05-2015 00:25:00 8.9 C 7.36 g/m*3 8.9 C 0 km/h
1022 27-05-2015 00:30:00 8.9 C 7.18 g/m*3 8.9 C 3.2 km/h
1023 27-05-2015 00:35:00 9.1 C 7.28 g/m*3 9.1 C 4.8 km/h
1024 27-05-2015 00:40:00 9.2 C 7.14 g/m*3 9.2 C 1.6 km/h
1025 27-05-2015 00:45:00 9.1 C 7.19 g/m*3 9.1 C 0 km/h
Sensor: Nr:Datum:Temp:Abs-Feuchte:Windchill:Wind:
Aussen-T/F 1026 27-05-2015 00:50:00 9.1 C 7.19 g/m*3 9.1 C 0 km/h
1027 27-05-2015 00:55:00 9 C 7.23 g/m*3 9 C 0 km/h
1028 27-05-2015 01:00:00 8.8 C 7.14 g/m*3 8.8 C 0 km/h
1029 27-05-2015 01:05:00 8.7 C 7.18 g/m*3 8.7 C 0 km/h
1030 27-05-2015 01:10:00 8.6 C 7.22 g/m*3 8.6 C 0 km/h
1031 27-05-2015 01:15:00 8.4 C 7.13 g/m*3 8.4 C 0 km/h
1032 27-05-2015 01:20:00 8.3 C 7.16 g/m*3 8.3 C 0 km/h
1033 27-05-2015 01:25:00 8.1 C 7.07 g/m*3 8.1 C 0 km/h
1034 27-05-2015 01:30:00 8 C 7.03 g/m*3 8 C 0 km/h
1035 27-05-2015 01:35:00 8.1 C 7.16 g/m*3 8.1 C 0 km/h
1036 27-05-2015 01:40:00 8 C 7.03 g/m*3 8 C 0 km/h
1037 27-05-2015 01:45:00 8 C 7.03 g/m*3 8 C 0 km/h
1038 27-05-2015 01:50:00 7.9 C 6.98 g/m*3 7.9 C 0 km/h
1039 27-05-2015 01:55:00 7.8 C 7.02 g/m*3 7.8 C 0 km/h
1040 27-05-2015 02:00:00 7.7 C 6.97 g/m*3 7.7 C 0 km/h
1041 27-05-2015 02:05:00 7.7 C 6.97 g/m*3 7.7 C 0 km/h
1042 27-05-2015 02:10:00 7.6 C 7.01 g/m*3 7.6 C 0 km/h
1043 27-05-2015 02:15:00 7.5 C 6.96 g/m*3 7.5 C 0 km/h
1044 27-05-2015 02:20:00 7.4 C 6.92 g/m*3 7.4 C 0 km/h
1045 27-05-2015 02:25:00 7.3 C 6.87 g/m*3 7.3 C 0 km/h
1046 27-05-2015 02:30:00 7.2 C 6.91 g/m*3 7.2 C 0 km/h
1047 27-05-2015 02:35:00 7.1 C 6.86 g/m*3 7.1 C 0 km/h
1048 27-05-2015 02:40:00 7 C 6.9 g/m*3 7 C 0 km/h
1049 27-05-2015 02:45:00 6.9 C 6.85 g/m*3 6.9 C 1.6 km/h
1050 27-05-2015 02:50:00 6.8 C 6.88 g/m*3 6.8 C 1.6 km/h
Sensor: Nr:Datum:Temp:Abs-Feuchte:Windchill:Wind:
Aussen-T/F 1051 27-05-2015 02:55:00 6.7 C 6.84 g/m*3 6.7 C 0 km/h
1052 27-05-2015 03:00:00 6.6 C 6.79 g/m*3 6.6 C 0 km/h
1053 27-05-2015 03:05:00 6.4 C 6.71 g/m*3 6.4 C 0 km/h
1054 27-05-2015 03:10:00 6.4 C 6.71 g/m*3 6.4 C 0 km/h
1055 27-05-2015 03:15:00 6.3 C 6.74 g/m*3 6.3 C 0 km/h
1056 27-05-2015 03:20:00 6.3 C 6.74 g/m*3 6.3 C 0 km/h
1057 27-05-2015 03:25:00 6.3 C 6.74 g/m*3 6.3 C 0 km/h
1058 27-05-2015 03:30:00 6.3 C 6.74 g/m*3 6.3 C 1.6 km/h
1059 27-05-2015 03:35:00 6.3 C 6.81 g/m*3 6.3 C 1.6 km/h
1060 27-05-2015 03:40:00 6.3 C 6.81 g/m*3 6.3 C 1.6 km/h
1061 27-05-2015 03:45:00 6.3 C 6.81 g/m*3 6.3 C 0 km/h
1062 27-05-2015 03:50:00 6.3 C 6.81 g/m*3 6.3 C 1.6 km/h
1063 27-05-2015 03:55:00 6.3 C 6.81 g/m*3 6.3 C 1.6 km/h
1064 27-05-2015 04:00:00 6.4 C 6.85 g/m*3 6.4 C 0 km/h
1065 27-05-2015 04:05:00 6.4 C 6.85 g/m*3 6.4 C 0 km/h
1066 27-05-2015 04:10:00 6.4 C 6.85 g/m*3 6.4 C 1.6 km/h
1067 27-05-2015 04:15:00 6.4 C 6.85 g/m*3 6.4 C 3.2 km/h
1068 27-05-2015 04:20:00 6.6 C 6.95 g/m*3 6.6 C 3.2 km/h
1069 27-05-2015 04:25:00 6.6 C 6.95 g/m*3 6.6 C 4.8 km/h
1070 27-05-2015 04:30:00 6.7 C 6.99 g/m*3 6.7 C 1.6 km/h
1071 27-05-2015 04:35:00 6.7 C 6.99 g/m*3 6.7 C 1.6 km/h
1072 27-05-2015 04:40:00 6.8 C 7.04 g/m*3 6.8 C 1.6 km/h
1073 27-05-2015 04:45:00 6.8 C 6.96 g/m*3 5.67 C 6.4 km/h
1074 27-05-2015 04:50:00 6.8 C 6.96 g/m*3 5.67 C 6.4 km/h
1075 27-05-2015 04:55:00 6.9 C 7.01 g/m*3 6.9 C 1.6 km/h
Sensor: Nr:Datum:Temp:Abs-Feuchte:Windchill:Wind:
Aussen-T/F 1076 27-05-2015 05:00:00 6.9 C 7.01 g/m*3 6.9 C 0 km/h
1077 27-05-2015 05:05:00 6.9 C 7.01 g/m*3 6.9 C 0 km/h
1078 27-05-2015 05:10:00 7 C 7.05 g/m*3 7 C 0 km/h
1079 27-05-2015 05:15:00 7 C 7.05 g/m*3 7 C 0 km/h
1080 27-05-2015 05:20:00 7.1 C 7.1 g/m*3 7.1 C 0 km/h
1081 27-05-2015 05:25:00 7.1 C 7.1 g/m*3 7.1 C 4.8 km/h
1082 27-05-2015 05:30:00 7.1 C 7.1 g/m*3 7.1 C 3.2 km/h
1083 27-05-2015 05:35:00 7.1 C 7.1 g/m*3 7.1 C 4.8 km/h
1084 27-05-2015 05:40:00 7.1 C 7.1 g/m*3 7.1 C 3.2 km/h
1085 27-05-2015 05:45:00 7.1 C 7.1 g/m*3 7.1 C 1.6 km/h
1086 27-05-2015 05:50:00 7.2 C 7.14 g/m*3 7.2 C 1.6 km/h
1087 27-05-2015 05:55:00 7.2 C 7.14 g/m*3 7.2 C 4.8 km/h
1088 27-05-2015 06:00:00 7.2 C 7.14 g/m*3 7.2 C 1.6 km/h
1089 27-05-2015 06:05:00 7.2 C 7.14 g/m*3 7.2 C 4.8 km/h
1090 27-05-2015 06:10:00 7.2 C 7.14 g/m*3 7.2 C 1.6 km/h
1091 27-05-2015 06:15:00 7.3 C 7.19 g/m*3 7.3 C 0 km/h
1092 27-05-2015 06:20:00 7.3 C 7.19 g/m*3 7.3 C 4.8 km/h
1093 27-05-2015 06:25:00 7.3 C 7.19 g/m*3 7.3 C 3.2 km/h
1094 27-05-2015 06:30:00 7.4 C 7.24 g/m*3 7.4 C 0 km/h
1095 27-05-2015 06:35:00 7.4 C 7.24 g/m*3 7.4 C 3.2 km/h
1096 27-05-2015 06:40:00 7.5 C 7.28 g/m*3 7.5 C 0 km/h
1097 27-05-2015 06:45:00 7.5 C 7.28 g/m*3 7.5 C 3.2 km/h
1098 27-05-2015 06:50:00 7.6 C 7.33 g/m*3 7.6 C 1.6 km/h
1099 27-05-2015 06:55:00 7.6 C 7.33 g/m*3 7.6 C 1.6 km/h
1100 27-05-2015 07:00:00 7.7 C 7.38 g/m*3 7.7 C 0 km/h
Sensor: Nr:Datum:Temp:Abs-Feuchte:Windchill:Wind:
Aussen-T/F 1101 27-05-2015 07:05:00 7.7 C 7.38 g/m*3 7.7 C 4.8 km/h
1102 27-05-2015 07:10:00 7.8 C 7.43 g/m*3 7.8 C 0 km/h
1103 27-05-2015 07:15:00 7.8 C 7.43 g/m*3 7.8 C 0 km/h
1104 27-05-2015 07:20:00 7.9 C 7.39 g/m*3 7.9 C 3.2 km/h
1105 27-05-2015 07:25:00 8 C 7.44 g/m*3 8 C 3.2 km/h
1106 27-05-2015 07:30:00 8.1 C 7.49 g/m*3 8.1 C 3.2 km/h
1107 27-05-2015 07:35:00 8.2 C 7.54 g/m*3 6.87 C 8.1 km/h
1108 27-05-2015 07:40:00 8.3 C 7.59 g/m*3 6.99 C 8.1 km/h
1109 27-05-2015 07:45:00 8.4 C 7.63 g/m*3 8.4 C 3.2 km/h
1110 27-05-2015 07:50:00 8.5 C 7.68 g/m*3 8.5 C 3.2 km/h
1111 27-05-2015 07:55:00 8.7 C 7.7 g/m*3 7.13 C 9.7 km/h
1112 27-05-2015 08:00:00 8.7 C 7.61 g/m*3 8.7 C 4.8 km/h
1113 27-05-2015 08:05:00 8.8 C 7.57 g/m*3 8.8 C 1.6 km/h
1114 27-05-2015 08:10:00 9 C 7.58 g/m*3 9 C 4.8 km/h
1115 27-05-2015 08:15:00 9.2 C 7.77 g/m*3 7.73 C 9.7 km/h
1116 27-05-2015 08:20:00 9.2 C 7.68 g/m*3 9.2 C 3.2 km/h
1117 27-05-2015 08:25:00 9.4 C 7.78 g/m*3 9.4 C 0 km/h
1118 27-05-2015 08:30:00 9.6 C 7.79 g/m*3 9.6 C 3.2 km/h
1119 27-05-2015 08:35:00 9.7 C 7.93 g/m*3 9.7 C 4.8 km/h
1120 27-05-2015 08:40:00 9.8 C 7.89 g/m*3 9.8 C 4.8 km/h
1121 27-05-2015 08:45:00 9.9 C 7.94 g/m*3 9.9 C 4.8 km/h
1122 27-05-2015 08:50:00 10 C 7.89 g/m*3 10 C 3.2 km/h
1123 27-05-2015 08:55:00 10.1 C 7.85 g/m*3 10.1 C 3.2 km/h
1124 27-05-2015 09:00:00 10.2 C 7.9 g/m*3 10.2 C 4.8 km/h
1125 27-05-2015 09:05:00 10.3 C 7.85 g/m*3 10.3 C 4.8 km/h
Sensor: Nr:Datum:Temp:Abs-Feuchte:Windchill:Wind:
Aussen-T/F 1126 27-05-2015 09:10:00 10.3 C 7.76 g/m*3 10.3 C 3.2 km/h
1127 27-05-2015 09:15:00 10.4 C 7.71 g/m*3 10.4 C 3.2 km/h
1128 27-05-2015 09:20:00 10.6 C 7.71 g/m*3 10.6 C 3.2 km/h
1129 27-05-2015 09:25:00 10.7 C 7.66 g/m*3 10.7 C 3.2 km/h
1130 27-05-2015 09:30:00 10.8 C 7.81 g/m*3 10.8 C 3.2 km/h
1131 27-05-2015 09:35:00 10.9 C 7.66 g/m*3 10.9 C 3.2 km/h
1132 27-05-2015 09:40:00 10.9 C 7.56 g/m*3 10.9 C 1.6 km/h
1133 27-05-2015 09:45:00 11.1 C 7.55 g/m*3 11.1 C 3.2 km/h
1134 27-05-2015 09:50:00 11.1 C 7.66 g/m*3 11.1 C 3.2 km/h
1135 27-05-2015 09:55:00 11.2 C 7.7 g/m*3 11.2 C 1.6 km/h
1136 27-05-2015 10:00:00 11.2 C 7.4 g/m*3 11.2 C 3.2 km/h
1137 27-05-2015 10:05:00 11.3 C 7.45 g/m*3 11.3 C 0 km/h
1138 27-05-2015 10:10:00 11.4 C 7.49 g/m*3 11.4 C 6.4 km/h
1139 27-05-2015 10:15:00 11.6 C 7.8 g/m*3 11.6 C 4.8 km/h
1140 27-05-2015 10:20:00 11.8 C 7.79 g/m*3 11.8 C 6.4 km/h
1141 27-05-2015 10:25:00 11.9 C 7.52 g/m*3 11.9 C 4.8 km/h
1142 27-05-2015 10:30:00 11.9 C 7.41 g/m*3 11.9 C 8.1 km/h
1143 27-05-2015 10:35:00 11.9 C 7.31 g/m*3 11.9 C 3.2 km/h
1144 27-05-2015 10:40:00 11.9 C 7.52 g/m*3 11.9 C 4.8 km/h
1145 27-05-2015 10:45:00 12.1 C 7.51 g/m*3 12.1 C 4.8 km/h
1146 27-05-2015 10:50:00 12.1 C 7.4 g/m*3 12.1 C 3.2 km/h
1147 27-05-2015 10:55:00 12.2 C 7.01 g/m*3 12.2 C 4.8 km/h
1148 27-05-2015 11:00:00 12.3 C 7.06 g/m*3 12.3 C 3.2 km/h
1149 27-05-2015 11:05:00 12.5 C 7.04 g/m*3 12.5 C 1.6 km/h
1150 27-05-2015 11:10:00 12.7 C 6.79 g/m*3 12.7 C 1.6 km/h
Sensor: Nr:Datum:Temp:Abs-Feuchte:Windchill:Wind:
Aussen-T/F 1151 27-05-2015 11:15:00 12.8 C 6.61 g/m*3 12.8 C 1.6 km/h
1152 27-05-2015 11:20:00 12.9 C 6.42 g/m*3 12.9 C 0 km/h
1153 27-05-2015 11:25:00 12.9 C 6.31 g/m*3 12.9 C 3.2 km/h
1154 27-05-2015 11:30:00 13 C 6.46 g/m*3 13 C 3.2 km/h
1155 27-05-2015 11:35:00 13.1 C 6.5 g/m*3 13.1 C 4.8 km/h
1156 27-05-2015 11:40:00 12.9 C 6.42 g/m*3 12.9 C 4.8 km/h
1157 27-05-2015 11:45:00 13 C 6.46 g/m*3 13 C 6.4 km/h
1158 27-05-2015 11:50:00 13.1 C 6.28 g/m*3 13.1 C 8.1 km/h
1159 27-05-2015 11:55:00 13.1 C 6.62 g/m*3 13.1 C 1.6 km/h
1160 27-05-2015 12:00:00 13.1 C 6.85 g/m*3 13.1 C 3.2 km/h
1161 27-05-2015 12:05:00 13.2 C 6.66 g/m*3 13.2 C 8.1 km/h
1162 27-05-2015 12:10:00 13.2 C 6.77 g/m*3 13.2 C 8.1 km/h
1163 27-05-2015 12:15:00 13.1 C 6.73 g/m*3 13.1 C 4.8 km/h
1164 27-05-2015 12:20:00 13.1 C 6.85 g/m*3 13.1 C 3.2 km/h
1165 27-05-2015 12:25:00 13.1 C 6.73 g/m*3 13.1 C 4.8 km/h
1166 27-05-2015 12:30:00 12.9 C 6.54 g/m*3 12.9 C 4.8 km/h
1167 27-05-2015 12:35:00 12.8 C 6.38 g/m*3 12.8 C 4.8 km/h
1168 27-05-2015 12:40:00 12.8 C 6.5 g/m*3 12.8 C 1.6 km/h
1169 27-05-2015 12:45:00 13.1 C 6.39 g/m*3 13.1 C 4.8 km/h
1170 27-05-2015 12:50:00 13.2 C 6.66 g/m*3 13.2 C 4.8 km/h
1171 27-05-2015 12:55:00 13.4 C 6.63 g/m*3 13.4 C 4.8 km/h
1172 27-05-2015 13:00:00 13.8 C 7.27 g/m*3 13.8 C 9.7 km/h
1173 27-05-2015 13:05:00 13.9 C 6.59 g/m*3 13.9 C 4.8 km/h
1174 27-05-2015 13:10:00 13.9 C 7.07 g/m*3 13.9 C 3.2 km/h
1175 27-05-2015 13:15:00 14.2 C 7.08 g/m*3 14.2 C 1.6 km/h
Sensor: Nr:Datum:Temp:Abs-Feuchte:Windchill:Wind:
Aussen-T/F 1176 27-05-2015 13:20:00 14.4 C 6.68 g/m*3 14.4 C 4.8 km/h
1177 27-05-2015 13:25:00 14.5 C 6.84 g/m*3 14.5 C 6.4 km/h
1178 27-05-2015 13:30:00 14.5 C 6.96 g/m*3 14.5 C 4.8 km/h
1179 27-05-2015 13:35:00 14.4 C 6.8 g/m*3 14.4 C 4.8 km/h
1180 27-05-2015 13:40:00 14.4 C 6.92 g/m*3 14.4 C 4.8 km/h
1181 27-05-2015 13:45:00 14.4 C 6.8 g/m*3 14.4 C 3.2 km/h
1182 27-05-2015 13:50:00 14.3 C 6.51 g/m*3 14.3 C 1.6 km/h
1183 27-05-2015 13:55:00 14.4 C 7.05 g/m*3 14.4 C 1.6 km/h
1184 27-05-2015 14:00:00 14.5 C 6.59 g/m*3 14.5 C 6.4 km/h
1185 27-05-2015 14:05:00 14.6 C 6.51 g/m*3 14.6 C 4.8 km/h
1186 27-05-2015 14:10:00 14.7 C 6.67 g/m*3 14.7 C 8.1 km/h
1187 27-05-2015 14:15:00 15.1 C 7.1 g/m*3 15.1 C 6.4 km/h
1188 27-05-2015 14:20:00 15.4 C 6.83 g/m*3 15.4 C 9.7 km/h
1189 27-05-2015 14:25:00 15.4 C 6.83 g/m*3 15.4 C 4.8 km/h
1190 27-05-2015 14:30:00 15.7 C 6.69 g/m*3 15.7 C 4.8 km/h
1191 27-05-2015 14:35:00 16.1 C 7.26 g/m*3 16.1 C 6.4 km/h
1192 27-05-2015 14:40:00 16.4 C 6.84 g/m*3 16.4 C 6.4 km/h
1193 27-05-2015 14:45:00 16.1 C 6.44 g/m*3 16.1 C 3.2 km/h
1194 27-05-2015 14:50:00 15.8 C 7 g/m*3 15.8 C 1.6 km/h
1195 27-05-2015 14:55:00 15.6 C 6.52 g/m*3 15.6 C 3.2 km/h
1196 27-05-2015 15:00:00 15.4 C 6.31 g/m*3 15.4 C 3.2 km/h
1197 27-05-2015 15:05:00 15.2 C 6.49 g/m*3 15.2 C 4.8 km/h
1198 27-05-2015 15:10:00 15.2 C 6.62 g/m*3 15.2 C 3.2 km/h
1199 27-05-2015 15:15:00 15.4 C 6.83 g/m*3 15.4 C 1.6 km/h
1200 27-05-2015 15:20:00 15.4 C 6.7 g/m*3 15.4 C 4.8 km/h
Sensor: Nr:Datum:Temp:Abs-Feuchte:Windchill:Wind:
Aussen-T/F 1201 27-05-2015 15:25:00 15.6 C 6.65 g/m*3 15.6 C 4.8 km/h
1202 27-05-2015 15:30:00 15.8 C 6.6 g/m*3 15.8 C 4.8 km/h
1203 27-05-2015 15:35:00 15.9 C 7.04 g/m*3 15.9 C 1.6 km/h
1204 27-05-2015 15:40:00 16.1 C 6.72 g/m*3 16.1 C 1.6 km/h
1205 27-05-2015 15:45:00 15.9 C 6.77 g/m*3 15.9 C 3.2 km/h
1206 27-05-2015 15:50:00 15.8 C 6.6 g/m*3 15.8 C 4.8 km/h
1207 27-05-2015 15:55:00 15.8 C 6.46 g/m*3 15.8 C 3.2 km/h
1208 27-05-2015 16:00:00 15.7 C 6.56 g/m*3 15.7 C 1.6 km/h
1209 27-05-2015 16:05:00 15.7 C 6.96 g/m*3 15.7 C 1.6 km/h
1210 27-05-2015 16:10:00 15.6 C 6.52 g/m*3 15.6 C 4.8 km/h
1211 27-05-2015 16:15:00 16.1 C 6.85 g/m*3 16.1 C 3.2 km/h
1212 27-05-2015 16:20:00 16.8 C 6.72 g/m*3 16.8 C 3.2 km/h
1213 27-05-2015 16:25:00 17.2 C 6.74 g/m*3 17.2 C 8.1 km/h
1214 27-05-2015 16:30:00 17.5 C 7.01 g/m*3 17.5 C 9.7 km/h
1215 27-05-2015 16:35:00 17.9 C 7.33 g/m*3 17.9 C 9.7 km/h
1216 27-05-2015 16:40:00 18.2 C 7.15 g/m*3 18.2 C 9.7 km/h
1217 27-05-2015 16:45:00 18 C 6.3 g/m*3 18 C 6.4 km/h
1218 27-05-2015 16:50:00 17.8 C 6.53 g/m*3 17.8 C 11.3 km/h
1219 27-05-2015 16:55:00 17.4 C 6.37 g/m*3 17.4 C 8.1 km/h
1220 27-05-2015 17:00:00 17.5 C 6.86 g/m*3 17.5 C 4.8 km/h
1221 27-05-2015 17:05:00 17.5 C 6.41 g/m*3 17.5 C 8.1 km/h
1222 27-05-2015 17:10:00 17.3 C 6.63 g/m*3 17.3 C 4.8 km/h
1223 27-05-2015 17:15:00 17.1 C 6.7 g/m*3 17.1 C 4.8 km/h
1224 27-05-2015 17:20:00 16.8 C 6.43 g/m*3 16.8 C 3.2 km/h
1225 27-05-2015 17:25:00 17.1 C 6.7 g/m*3 17.1 C 1.6 km/h
Sensor: Nr:Datum:Temp:Abs-Feuchte:Windchill:Wind:
Aussen-T/F 1226 27-05-2015 17:30:00 17.5 C 6.86 g/m*3 17.5 C 6.4 km/h
1227 27-05-2015 17:35:00 17.6 C 6.9 g/m*3 17.6 C 4.8 km/h
1228 27-05-2015 17:40:00 17.7 C 6.64 g/m*3 17.7 C 3.2 km/h
1229 27-05-2015 17:45:00 17.8 C 6.68 g/m*3 17.8 C 1.6 km/h
1230 27-05-2015 17:50:00 17.6 C 6.9 g/m*3 17.6 C 3.2 km/h
1231 27-05-2015 17:55:00 17.6 C 6.45 g/m*3 17.6 C 6.4 km/h
1232 27-05-2015 18:00:00 17.7 C 6.49 g/m*3 17.7 C 6.4 km/h
1233 27-05-2015 18:05:00 17.6 C 6.6 g/m*3 17.6 C 4.8 km/h
1234 27-05-2015 18:10:00 17.7 C 6.49 g/m*3 17.7 C 4.8 km/h
1235 27-05-2015 18:15:00 17.5 C 6.56 g/m*3 17.5 C 4.8 km/h
1236 27-05-2015 18:20:00 17.5 C 6.56 g/m*3 17.5 C 6.4 km/h
1237 27-05-2015 18:25:00 17.5 C 6.56 g/m*3 17.5 C 4.8 km/h
1238 27-05-2015 18:30:00 17.3 C 7.51 g/m*3 17.3 C 3.2 km/h
1239 27-05-2015 18:35:00 17 C 6.8 g/m*3 17 C 1.6 km/h
1240 27-05-2015 18:40:00 17.1 C 6.99 g/m*3 17.1 C 3.2 km/h
1241 27-05-2015 18:45:00 17.3 C 6.92 g/m*3 17.3 C 3.2 km/h
1242 27-05-2015 18:50:00 17.6 C 6.9 g/m*3 17.6 C 6.4 km/h
1243 27-05-2015 18:55:00 17.6 C 6.45 g/m*3 17.6 C 6.4 km/h
1244 27-05-2015 19:00:00 17.7 C 6.94 g/m*3 17.7 C 8.1 km/h
1245 27-05-2015 19:05:00 17.7 C 7.09 g/m*3 17.7 C 6.4 km/h
1246 27-05-2015 19:10:00 17.4 C 6.52 g/m*3 17.4 C 6.4 km/h
1247 27-05-2015 19:15:00 17.3 C 6.48 g/m*3 17.3 C 4.8 km/h
1248 27-05-2015 19:20:00 17.2 C 6.44 g/m*3 17.2 C 4.8 km/h
1249 27-05-2015 19:25:00 17.1 C 6.55 g/m*3 17.1 C 4.8 km/h
1250 27-05-2015 19:30:00 16.8 C 6.29 g/m*3 16.8 C 1.6 km/h
Sensor: Nr:Datum:Temp:Abs-Feuchte:Windchill:Wind:
Aussen-T/F 1251 27-05-2015 19:35:00 16.7 C 6.54 g/m*3 16.7 C 3.2 km/h
1252 27-05-2015 19:40:00 16.6 C 6.78 g/m*3 16.6 C 3.2 km/h
1253 27-05-2015 19:45:00 16.4 C 6.7 g/m*3 16.4 C 3.2 km/h
1254 27-05-2015 19:50:00 16.3 C 6.66 g/m*3 16.3 C 6.4 km/h
1255 27-05-2015 19:55:00 16.2 C 6.9 g/m*3 16.2 C 4.8 km/h
1256 27-05-2015 20:00:00 16.2 C 6.62 g/m*3 16.2 C 3.2 km/h
1257 27-05-2015 20:05:00 16.1 C 7.26 g/m*3 16.1 C 1.6 km/h
1258 27-05-2015 20:10:00 16 C 6.95 g/m*3 16 C 1.6 km/h
1259 27-05-2015 20:15:00 15.9 C 6.77 g/m*3 15.9 C 1.6 km/h
1260 27-05-2015 20:20:00 15.8 C 6.87 g/m*3 15.8 C 0 km/h
1261 27-05-2015 20:25:00 15.7 C 7.09 g/m*3 15.7 C 1.6 km/h
1262 27-05-2015 20:30:00 15.6 C 8.25 g/m*3 15.6 C 0 km/h
1263 27-05-2015 20:35:00 15.2 C 7.4 g/m*3 15.2 C 1.6 km/h
1264 27-05-2015 20:40:00 14.9 C 7.9 g/m*3 14.9 C 0 km/h
1265 27-05-2015 20:45:00 14.7 C 7.93 g/m*3 14.7 C 0 km/h
1266 27-05-2015 20:50:00 14.2 C 7.94 g/m*3 14.2 C 0 km/h
1267 27-05-2015 20:55:00 13.8 C 7.86 g/m*3 13.8 C 0 km/h
1268 27-05-2015 21:00:00 13.5 C 7.95 g/m*3 13.5 C 0 km/h
1269 27-05-2015 21:05:00 13.1 C 7.87 g/m*3 13.1 C 0 km/h
1270 27-05-2015 21:10:00 12.7 C 7.9 g/m*3 12.7 C 0 km/h
1271 27-05-2015 21:15:00 12.3 C 7.82 g/m*3 12.3 C 0 km/h
1272 27-05-2015 21:20:00 11.8 C 7.68 g/m*3 11.8 C 0 km/h
1273 27-05-2015 21:25:00 11.4 C 7.6 g/m*3 11.4 C 0 km/h
1274 27-05-2015 21:30:00 11.2 C 7.6 g/m*3 11.2 C 0 km/h
1275 27-05-2015 21:35:00 11.1 C 7.66 g/m*3 11.1 C 0 km/h
Sensor: Nr:Datum:Temp:Abs-Feuchte:Windchill:Wind:
Aussen-T/F 1276 27-05-2015 21:40:00 10.8 C 7.51 g/m*3 10.8 C 0 km/h
1277 27-05-2015 21:45:00 10.7 C 7.46 g/m*3 10.7 C 0 km/h
1278 27-05-2015 21:50:00 10.7 C 7.46 g/m*3 10.7 C 0 km/h
1279 27-05-2015 21:55:00 10.7 C 7.56 g/m*3 10.7 C 1.6 km/h
1280 27-05-2015 22:00:00 10.6 C 7.42 g/m*3 10.6 C 0 km/h
1281 27-05-2015 22:05:00 10.6 C 7.52 g/m*3 10.6 C 0 km/h
1282 27-05-2015 22:10:00 10.6 C 7.32 g/m*3 10.6 C 0 km/h
1283 27-05-2015 22:15:00 10.6 C 7.42 g/m*3 10.6 C 0 km/h
1284 27-05-2015 22:20:00 10.6 C 7.42 g/m*3 10.6 C 1.6 km/h
1285 27-05-2015 22:25:00 10.6 C 7.42 g/m*3 10.6 C 1.6 km/h
1286 27-05-2015 22:30:00 10.6 C 7.42 g/m*3 10.6 C 0 km/h
1287 27-05-2015 22:35:00 10.5 C 7.37 g/m*3 10.5 C 1.6 km/h
1288 27-05-2015 22:40:00 10.5 C 7.47 g/m*3 10.5 C 0 km/h
1289 27-05-2015 22:45:00 10.4 C 7.32 g/m*3 10.4 C 0 km/h
1290 27-05-2015 22:50:00 10.4 C 7.42 g/m*3 10.4 C 1.6 km/h
1291 27-05-2015 22:55:00 10.3 C 7.28 g/m*3 10.3 C 0 km/h
1292 27-05-2015 23:00:00 10.3 C 7.28 g/m*3 10.3 C 0 km/h
1293 27-05-2015 23:05:00 10.2 C 7.33 g/m*3 10.2 C 0 km/h
1294 27-05-2015 23:10:00 10.2 C 7.33 g/m*3 10.2 C 0 km/h
1295 27-05-2015 23:15:00 10.1 C 7.38 g/m*3 10.1 C 0 km/h
1296 27-05-2015 23:20:00 9.9 C 7.28 g/m*3 9.9 C 0 km/h
1297 27-05-2015 23:25:00 9.8 C 7.33 g/m*3 9.8 C 0 km/h
1298 27-05-2015 23:30:00 9.7 C 7.19 g/m*3 9.7 C 1.6 km/h
1299 27-05-2015 23:35:00 9.5 C 7.19 g/m*3 9.5 C 0 km/h
1300 27-05-2015 23:40:00 9.3 C 7.1 g/m*3 9.3 C 1.6 km/h
Sensor: Nr:Datum:Temp:Abs-Feuchte:Windchill:Wind:
Aussen-T/F 1301 27-05-2015 23:45:00 9.3 C 7.1 g/m*3 9.3 C 0 km/h
1302 27-05-2015 23:50:00 9.2 C 7.14 g/m*3 9.2 C 0 km/h
1303 27-05-2015 23:55:00 9.2 C 7.14 g/m*3 9.2 C 0 km/h
1304 28-05-2015 00:00:00 9.1 C 7.1 g/m*3 9.1 C 0 km/h
1305 28-05-2015 00:05:00 9.1 C 7.19 g/m*3 9.1 C 0 km/h
1306 28-05-2015 00:10:00 9.1 C 7.19 g/m*3 9.1 C 0 km/h
1307 28-05-2015 00:15:00 9.1 C 7.19 g/m*3 9.1 C 0 km/h
1308 28-05-2015 00:20:00 9.1 C 7.19 g/m*3 9.1 C 0 km/h
1309 28-05-2015 00:25:00 9.1 C 7.19 g/m*3 9.1 C 0 km/h
1310 28-05-2015 00:30:00 9 C 7.05 g/m*3 9 C 0 km/h
1311 28-05-2015 00:35:00 9 C 7.14 g/m*3 9 C 0 km/h
1312 28-05-2015 00:40:00 9 C 7.14 g/m*3 9 C 0 km/h
1313 28-05-2015 00:45:00 9.2 C 7.14 g/m*3 9.2 C 0 km/h
1314 28-05-2015 00:50:00 9.2 C 7.14 g/m*3 9.2 C 0 km/h
1315 28-05-2015 00:55:00 9.2 C 7.14 g/m*3 9.2 C 0 km/h
1316 28-05-2015 01:00:00 9.2 C 7.14 g/m*3 9.2 C 0 km/h
1317 28-05-2015 01:05:00 9.2 C 7.14 g/m*3 9.2 C 0 km/h
1318 28-05-2015 01:10:00 9.2 C 7.14 g/m*3 9.2 C 0 km/h
1319 28-05-2015 01:15:00 9.1 C 7.1 g/m*3 9.1 C 0 km/h
1320 28-05-2015 01:20:00 9 C 7.05 g/m*3 9 C 0 km/h
1321 28-05-2015 01:25:00 8.9 C 7.01 g/m*3 8.9 C 0 km/h
1322 28-05-2015 01:30:00 8.8 C 6.96 g/m*3 8.8 C 0 km/h
1323 28-05-2015 01:35:00 8.7 C 7.01 g/m*3 8.7 C 0 km/h
1324 28-05-2015 01:40:00 8.7 C 7.01 g/m*3 8.7 C 0 km/h
1325 28-05-2015 01:45:00 8.6 C 7.05 g/m*3 8.6 C 0 km/h
Sensor: Nr:Datum:Temp:Abs-Feuchte:Windchill:Wind:
Aussen-T/F 1326 28-05-2015 01:50:00 8.4 C 6.96 g/m*3 8.4 C 0 km/h
1327 28-05-2015 01:55:00 8.4 C 6.96 g/m*3 8.4 C 0 km/h
1328 28-05-2015 02:00:00 8.3 C 6.91 g/m*3 8.3 C 0 km/h
1329 28-05-2015 02:05:00 8.2 C 6.95 g/m*3 8.2 C 0 km/h
1330 28-05-2015 02:10:00 8.2 C 6.95 g/m*3 8.2 C 0 km/h
1331 28-05-2015 02:15:00 8.1 C 6.91 g/m*3 8.1 C 0 km/h
1332 28-05-2015 02:20:00 8.1 C 6.91 g/m*3 8.1 C 0 km/h
1333 28-05-2015 02:25:00 8 C 6.86 g/m*3 8 C 0 km/h
1334 28-05-2015 02:30:00 7.9 C 6.9 g/m*3 7.9 C 0 km/h
1335 28-05-2015 02:35:00 7.8 C 6.86 g/m*3 7.8 C 0 km/h
1336 28-05-2015 02:40:00 7.8 C 6.86 g/m*3 7.8 C 0 km/h
1337 28-05-2015 02:45:00 7.8 C 6.86 g/m*3 7.8 C 0 km/h
1338 28-05-2015 02:50:00 7.8 C 6.86 g/m*3 7.8 C 0 km/h
1339 28-05-2015 02:55:00 7.8 C 6.86 g/m*3 7.8 C 0 km/h
1340 28-05-2015 03:00:00 7.8 C 6.86 g/m*3 7.8 C 0 km/h
1341 28-05-2015 03:05:00 7.8 C 6.86 g/m*3 7.8 C 0 km/h
1342 28-05-2015 03:10:00 7.8 C 6.94 g/m*3 7.8 C 0 km/h
1343 28-05-2015 03:15:00 7.7 C 6.89 g/m*3 7.7 C 0 km/h
1344 28-05-2015 03:20:00 7.7 C 6.89 g/m*3 7.7 C 0 km/h
1345 28-05-2015 03:25:00 7.7 C 6.89 g/m*3 7.7 C 0 km/h
1346 28-05-2015 03:30:00 7.6 C 6.85 g/m*3 7.6 C 0 km/h
1347 28-05-2015 03:35:00 7.5 C 6.8 g/m*3 7.5 C 0 km/h
1348 28-05-2015 03:40:00 7.5 C 6.8 g/m*3 7.5 C 0 km/h
1349 28-05-2015 03:45:00 7.4 C 6.84 g/m*3 7.4 C 0 km/h
1350 28-05-2015 03:50:00 7.4 C 6.84 g/m*3 7.4 C 0 km/h
Sensor: Nr:Datum:Temp:Abs-Feuchte:Windchill:Wind:
Aussen-T/F 1351 28-05-2015 03:55:00 7.4 C 6.84 g/m*3 7.4 C 0 km/h
1352 28-05-2015 04:00:00 7.4 C 6.92 g/m*3 7.4 C 0 km/h
1353 28-05-2015 04:05:00 7.4 C 6.92 g/m*3 7.4 C 0 km/h
1354 28-05-2015 04:10:00 7.3 C 6.79 g/m*3 7.3 C 0 km/h
1355 28-05-2015 04:15:00 7.3 C 6.87 g/m*3 7.3 C 0 km/h
1356 28-05-2015 04:20:00 7.3 C 6.87 g/m*3 7.3 C 0 km/h
1357 28-05-2015 04:25:00 7.3 C 6.87 g/m*3 7.3 C 0 km/h
1358 28-05-2015 04:30:00 7.3 C 6.95 g/m*3 7.3 C 0 km/h
1359 28-05-2015 04:35:00 7.3 C 6.95 g/m*3 7.3 C 0 km/h
1360 28-05-2015 04:40:00 7.3 C 6.95 g/m*3 7.3 C 0 km/h
1361 28-05-2015 04:45:00 7.4 C 7 g/m*3 7.4 C 0 km/h
1362 28-05-2015 04:50:00 7.4 C 7 g/m*3 7.4 C 0 km/h
1363 28-05-2015 04:55:00 7.4 C 7 g/m*3 7.4 C 0 km/h
1364 28-05-2015 05:00:00 7.4 C 7 g/m*3 7.4 C 0 km/h
1365 28-05-2015 05:05:00 7.4 C 7 g/m*3 7.4 C 0 km/h
1366 28-05-2015 05:10:00 7.4 C 7 g/m*3 7.4 C 0 km/h
1367 28-05-2015 05:15:00 7.3 C 6.95 g/m*3 7.3 C 0 km/h
1368 28-05-2015 05:20:00 7.3 C 7.03 g/m*3 7.3 C 0 km/h
1369 28-05-2015 05:25:00 7.3 C 7.03 g/m*3 7.3 C 0 km/h
1370 28-05-2015 05:30:00 7.3 C 7.03 g/m*3 7.3 C 0 km/h
1371 28-05-2015 05:35:00 7.3 C 7.03 g/m*3 7.3 C 1.6 km/h
1372 28-05-2015 05:40:00 7.3 C 7.03 g/m*3 7.3 C 1.6 km/h
1373 28-05-2015 05:45:00 7.4 C 7.16 g/m*3 7.4 C 0 km/h
1374 28-05-2015 05:50:00 7.5 C 7.2 g/m*3 7.5 C 0 km/h
1375 28-05-2015 05:55:00 7.7 C 7.22 g/m*3 7.7 C 1.6 km/h
Sensor: Nr:Datum:Temp:Abs-Feuchte:Windchill:Wind:
Aussen-T/F 1376 28-05-2015 06:00:00 7.8 C 7.26 g/m*3 7.8 C 3.2 km/h
1377 28-05-2015 06:05:00 7.9 C 7.31 g/m*3 7.9 C 1.6 km/h
1378 28-05-2015 06:10:00 8.1 C 7.32 g/m*3 8.1 C 0 km/h
1379 28-05-2015 06:15:00 8.1 C 7.32 g/m*3 8.1 C 1.6 km/h
1380 28-05-2015 06:20:00 8.2 C 7.29 g/m*3 8.2 C 1.6 km/h
1381 28-05-2015 06:25:00 8.3 C 7.33 g/m*3 8.3 C 0 km/h
1382 28-05-2015 06:30:00 8.3 C 7.33 g/m*3 8.3 C 0 km/h
1383 28-05-2015 06:35:00 8.4 C 7.38 g/m*3 8.4 C 0 km/h
1384 28-05-2015 06:40:00 8.5 C 7.43 g/m*3 8.5 C 0 km/h
1385 28-05-2015 06:45:00 8.6 C 7.48 g/m*3 8.6 C 0 km/h
1386 28-05-2015 06:50:00 8.7 C 7.52 g/m*3 8.7 C 0 km/h
1387 28-05-2015 06:55:00 8.8 C 7.57 g/m*3 8.8 C 0 km/h
1388 28-05-2015 07:00:00 8.8 C 7.57 g/m*3 8.8 C 0 km/h
1389 28-05-2015 07:05:00 8.9 C 7.62 g/m*3 8.9 C 0 km/h
1390 28-05-2015 07:10:00 8.9 C 7.62 g/m*3 8.9 C 0 km/h
1391 28-05-2015 07:15:00 9.1 C 7.72 g/m*3 9.1 C 1.6 km/h
1392 28-05-2015 07:20:00 9.1 C 7.72 g/m*3 9.1 C 0 km/h
1393 28-05-2015 07:25:00 9.2 C 7.77 g/m*3 9.2 C 0 km/h
1394 28-05-2015 07:30:00 9.3 C 7.82 g/m*3 9.3 C 0 km/h
1395 28-05-2015 07:35:00 9.5 C 7.83 g/m*3 9.5 C 0 km/h
1396 28-05-2015 07:40:00 9.6 C 7.88 g/m*3 9.6 C 1.6 km/h
1397 28-05-2015 07:45:00 9.8 C 7.98 g/m*3 9.8 C 3.2 km/h
1398 28-05-2015 07:50:00 10 C 7.99 g/m*3 10 C 3.2 km/h
1399 28-05-2015 07:55:00 10.1 C 7.94 g/m*3 10.1 C 1.6 km/h
1400 28-05-2015 08:00:00 10.2 C 7.99 g/m*3 10.2 C 0 km/h
Sensor: Nr:Datum:Temp:Abs-Feuchte:Windchill:Wind:
Aussen-T/F 1401 28-05-2015 08:05:00 10.4 C 8.1 g/m*3 10.4 C 0 km/h
1402 28-05-2015 08:10:00 10.7 C 8.25 g/m*3 10.7 C 0 km/h
1403 28-05-2015 08:15:00 11 C 8.01 g/m*3 11 C 1.6 km/h
1404 28-05-2015 08:20:00 11.3 C 8.16 g/m*3 11.3 C 0 km/h
1405 28-05-2015 08:25:00 11.5 C 7.95 g/m*3 11.5 C 0 km/h
1406 28-05-2015 08:30:00 11.6 C 8 g/m*3 11.6 C 1.6 km/h
1407 28-05-2015 08:35:00 11.6 C 8.11 g/m*3 11.6 C 0 km/h
1408 28-05-2015 08:40:00 11.7 C 8.16 g/m*3 11.7 C 0 km/h
1409 28-05-2015 08:45:00 11.7 C 8.16 g/m*3 11.7 C 0 km/h
1410 28-05-2015 08:50:00 11.8 C 8.21 g/m*3 11.8 C 0 km/h
1411 28-05-2015 08:55:00 11.8 C 8.1 g/m*3 11.8 C 0 km/h
1412 28-05-2015 09:00:00 11.9 C 8.15 g/m*3 11.9 C 1.6 km/h
1413 28-05-2015 09:05:00 12.1 C 8.26 g/m*3 12.1 C 1.6 km/h
1414 28-05-2015 09:10:00 12.1 C 8.15 g/m*3 12.1 C 0 km/h
1415 28-05-2015 09:15:00 12.2 C 8.31 g/m*3 12.2 C 0 km/h
1416 28-05-2015 09:20:00 12.3 C 8.14 g/m*3 12.3 C 1.6 km/h
1417 28-05-2015 09:25:00 12.3 C 8.47 g/m*3 12.3 C 0 km/h
1418 28-05-2015 09:30:00 12.3 C 8.36 g/m*3 12.3 C 0 km/h
1419 28-05-2015 09:35:00 12.3 C 8.47 g/m*3 12.3 C 0 km/h
1420 28-05-2015 09:40:00 12.4 C 8.52 g/m*3 12.4 C 0 km/h
1421 28-05-2015 09:45:00 12.6 C 8.52 g/m*3 12.6 C 1.6 km/h
1422 28-05-2015 09:50:00 12.8 C 8.74 g/m*3 12.8 C 1.6 km/h
1423 28-05-2015 09:55:00 12.9 C 8.45 g/m*3 12.9 C 1.6 km/h
1424 28-05-2015 10:00:00 13.1 C 8.56 g/m*3 13.1 C 1.6 km/h
1425 28-05-2015 10:05:00 13.2 C 8.61 g/m*3 13.2 C 1.6 km/h
Sensor: Nr:Datum:Temp:Abs-Feuchte:Windchill:Wind:
Aussen-T/F 1426 28-05-2015 10:10:00 13.4 C 8.72 g/m*3 13.4 C 1.6 km/h
1427 28-05-2015 10:15:00 13.7 C 8.76 g/m*3 13.7 C 1.6 km/h
1428 28-05-2015 10:20:00 13.9 C 8.75 g/m*3 13.9 C 6.4 km/h
1429 28-05-2015 10:25:00 14.3 C 8.85 g/m*3 14.3 C 4.8 km/h
1430 28-05-2015 10:30:00 14.7 C 8.94 g/m*3 14.7 C 6.4 km/h
1431 28-05-2015 10:35:00 15.1 C 8.77 g/m*3 15.1 C 6.4 km/h
1432 28-05-2015 10:40:00 15.3 C 8.88 g/m*3 15.3 C 1.6 km/h
1433 28-05-2015 10:45:00 15.7 C 9.1 g/m*3 15.7 C 3.2 km/h
1434 28-05-2015 10:50:00 16.1 C 9.05 g/m*3 16.1 C 11.3 km/h
1435 28-05-2015 10:55:00 16.3 C 9.02 g/m*3 16.3 C 12.9 km/h
1436 28-05-2015 11:00:00 16.7 C 9.1 g/m*3 16.7 C 12.9 km/h
1437 28-05-2015 11:05:00 17 C 9.12 g/m*3 17 C 9.7 km/h
1438 28-05-2015 11:10:00 17.3 C 8.99 g/m*3 17.3 C 14.5 km/h
1439 28-05-2015 11:15:00 17.5 C 9.09 g/m*3 17.5 C 11.3 km/h
1440 28-05-2015 11:20:00 17.7 C 9.2 g/m*3 17.7 C 9.7 km/h
1441 28-05-2015 11:25:00 17.8 C 9.11 g/m*3 17.8 C 14.5 km/h
1442 28-05-2015 11:30:00 17.9 C 9.16 g/m*3 17.9 C 9.7 km/h
1443 28-05-2015 11:35:00 17.9 C 9.16 g/m*3 17.9 C 9.7 km/h
1444 28-05-2015 11:40:00 18.1 C 9.12 g/m*3 18.1 C 14.5 km/h
1445 28-05-2015 11:45:00 18.2 C 9.33 g/m*3 18.2 C 9.7 km/h
1446 28-05-2015 11:50:00 18.3 C 9.22 g/m*3 18.3 C 16.1 km/h
1447 28-05-2015 11:55:00 18.3 C 9.22 g/m*3 18.3 C 14.5 km/h
1448 28-05-2015 12:00:00 18.4 C 9.44 g/m*3 18.4 C 9.7 km/h
1449 28-05-2015 12:05:00 18.7 C 9.45 g/m*3 18.7 C 9.7 km/h
1450 28-05-2015 12:10:00 18.9 C 9.4 g/m*3 18.9 C 17.7 km/h
Sensor: Nr:Datum:Temp:Abs-Feuchte:Windchill:Wind:
Aussen-T/F 1451 28-05-2015 12:15:00 19.1 C 9.51 g/m*3 19.1 C 19.3 km/h
1452 28-05-2015 12:20:00 19.2 C 9.73 g/m*3 19.2 C 9.7 km/h
1453 28-05-2015 12:25:00 19.3 C 9.45 g/m*3 19.3 C 8.1 km/h
1454 28-05-2015 12:30:00 19.4 C 9.51 g/m*3 19.4 C 14.5 km/h
1455 28-05-2015 12:35:00 19.5 C 9.4 g/m*3 19.5 C 8.1 km/h
1456 28-05-2015 12:40:00 19.6 C 9.62 g/m*3 19.6 C 9.7 km/h
1457 28-05-2015 12:45:00 19.5 C 9.73 g/m*3 19.5 C 8.1 km/h
1458 28-05-2015 12:50:00 19.7 C 9.51 g/m*3 19.7 C 12.9 km/h
1459 28-05-2015 12:55:00 19.9 C 9.45 g/m*3 19.9 C 12.9 km/h
1460 28-05-2015 13:00:00 20.4 C 10.08 g/m*3 20.4 C 11.3 km/h
1461 28-05-2015 13:05:00 21.1 C 9.58 g/m*3 21.1 C 16.1 km/h
1462 28-05-2015 13:10:00 21.3 C 9.51 g/m*3 21.3 C 19.3 km/h
1463 28-05-2015 13:15:00 21.3 C 9.32 g/m*3 21.3 C 16.1 km/h
1464 28-05-2015 13:20:00 21.4 C 9.37 g/m*3 21.4 C 12.9 km/h
1465 28-05-2015 13:25:00 21.4 C 9.37 g/m*3 21.4 C 14.5 km/h
1466 28-05-2015 13:30:00 21.4 C 9.56 g/m*3 21.4 C 12.9 km/h
1467 28-05-2015 13:35:00 21.3 C 9.51 g/m*3 21.3 C 14.5 km/h
1468 28-05-2015 13:40:00 21.1 C 8.84 g/m*3 21.1 C 14.5 km/h
1469 28-05-2015 13:45:00 20.8 C 8.87 g/m*3 20.8 C 16.1 km/h
1470 28-05-2015 13:50:00 20.7 C 9.18 g/m*3 20.7 C 11.3 km/h
1471 28-05-2015 13:55:00 20.6 C 8.95 g/m*3 20.6 C 19.3 km/h
1472 28-05-2015 14:00:00 20.4 C 9.02 g/m*3 20.4 C 12.9 km/h
1473 28-05-2015 14:05:00 20 C 8.99 g/m*3 20 C 12.9 km/h
1474 28-05-2015 14:10:00 19.7 C 8.83 g/m*3 19.7 C 11.3 km/h
1475 28-05-2015 14:15:00 19.4 C 9.01 g/m*3 19.4 C 14.5 km/h
Sensor: Nr:Datum:Temp:Abs-Feuchte:Windchill:Wind:
Aussen-T/F 1476 28-05-2015 14:20:00 19.2 C 8.9 g/m*3 19.2 C 4.8 km/h
1477 28-05-2015 14:25:00 19 C 8.96 g/m*3 19 C 4.8 km/h
1478 28-05-2015 14:30:00 18.9 C 9.07 g/m*3 18.9 C 11.3 km/h
1479 28-05-2015 14:35:00 18.8 C 9.02 g/m*3 18.8 C 3.2 km/h
1480 28-05-2015 14:40:00 18.7 C 9.13 g/m*3 18.7 C 8.1 km/h
1481 28-05-2015 14:45:00 18.6 C 9.39 g/m*3 18.6 C 1.6 km/h
1482 28-05-2015 14:50:00 18.5 C 9.18 g/m*3 18.5 C 12.9 km/h
1483 28-05-2015 14:55:00 18.6 C 9.23 g/m*3 18.6 C 12.9 km/h
1484 28-05-2015 15:00:00 18.6 C 9.39 g/m*3 18.6 C 4.8 km/h
1485 28-05-2015 15:05:00 18.6 C 9.55 g/m*3 18.6 C 3.2 km/h
1486 28-05-2015 15:10:00 18.6 C 9.87 g/m*3 18.6 C 1.6 km/h
1487 28-05-2015 15:15:00 18.6 C 9.55 g/m*3 18.6 C 1.6 km/h
1488 28-05-2015 15:20:00 18.7 C 9.45 g/m*3 18.7 C 3.2 km/h
1489 28-05-2015 15:25:00 18.9 C 9.4 g/m*3 18.9 C 3.2 km/h
1490 28-05-2015 15:30:00 19.2 C 9.73 g/m*3 19.2 C 6.4 km/h
1491 28-05-2015 15:35:00 19.3 C 9.29 g/m*3 19.3 C 12.9 km/h
1492 28-05-2015 15:40:00 19.4 C 9.34 g/m*3 19.4 C 1.6 km/h
1493 28-05-2015 15:45:00 19.6 C 9.45 g/m*3 19.6 C 9.7 km/h
1494 28-05-2015 15:50:00 20 C 9.33 g/m*3 20 C 17.7 km/h
1495 28-05-2015 15:55:00 20.3 C 9.32 g/m*3 20.3 C 14.5 km/h
1496 28-05-2015 16:00:00 20.3 C 8.97 g/m*3 20.3 C 17.7 km/h
1497 28-05-2015 16:05:00 20 C 9.16 g/m*3 20 C 12.9 km/h
1498 28-05-2015 16:10:00 19.7 C 9.51 g/m*3 19.7 C 12.9 km/h
1499 28-05-2015 16:15:00 19.4 C 9.68 g/m*3 19.4 C 6.4 km/h
1500 28-05-2015 16:20:00 19.4 C 9.68 g/m*3 19.4 C 6.4 km/h
Sensor: Nr:Datum:Temp:Abs-Feuchte:Windchill:Wind:
Aussen-T/F 1501 28-05-2015 16:25:00 19.7 C 9.51 g/m*3 19.7 C 16.1 km/h
1502 28-05-2015 16:30:00 19.8 C 9.39 g/m*3 19.8 C 14.5 km/h
1503 28-05-2015 16:35:00 19.7 C 9.34 g/m*3 19.7 C 17.7 km/h
1504 28-05-2015 16:40:00 19.6 C 9.45 g/m*3 19.6 C 9.7 km/h
1505 28-05-2015 16:45:00 19.4 C 9.18 g/m*3 19.4 C 14.5 km/h
1506 28-05-2015 16:50:00 19.3 C 9.45 g/m*3 19.3 C 14.5 km/h
1507 28-05-2015 16:55:00 19.3 C 9.29 g/m*3 19.3 C 4.8 km/h
1508 28-05-2015 17:00:00 19.5 C 9.4 g/m*3 19.5 C 9.7 km/h
1509 28-05-2015 17:05:00 19.8 C 9.39 g/m*3 19.8 C 12.9 km/h
1510 28-05-2015 17:10:00 20 C 9.33 g/m*3 20 C 12.9 km/h
1511 28-05-2015 17:15:00 20.2 C 9.44 g/m*3 20.2 C 8.1 km/h
1512 28-05-2015 17:20:00 20.1 C 9.21 g/m*3 20.1 C 11.3 km/h
1513 28-05-2015 17:25:00 20.1 C 9.39 g/m*3 20.1 C 12.9 km/h
1514 28-05-2015 17:30:00 20.1 C 9.39 g/m*3 20.1 C 9.7 km/h
1515 28-05-2015 17:35:00 20.1 C 9.56 g/m*3 20.1 C 11.3 km/h
1516 28-05-2015 17:40:00 20 C 9.51 g/m*3 20 C 6.4 km/h
1517 28-05-2015 17:45:00 20.2 C 9.62 g/m*3 20.2 C 9.7 km/h
1518 28-05-2015 17:50:00 20.4 C 9.55 g/m*3 20.4 C 9.7 km/h
1519 28-05-2015 17:55:00 20.3 C 9.85 g/m*3 20.3 C 9.7 km/h
1520 28-05-2015 18:00:00 20.6 C 9.66 g/m*3 20.6 C 9.7 km/h
1521 28-05-2015 18:05:00 20.4 C 9.55 g/m*3 20.4 C 1.6 km/h
1522 28-05-2015 18:10:00 20.2 C 9.62 g/m*3 20.2 C 6.4 km/h
1523 28-05-2015 18:15:00 19.9 C 9.45 g/m*3 19.9 C 9.7 km/h
1524 28-05-2015 18:20:00 19.6 C 9.45 g/m*3 19.6 C 8.1 km/h
1525 28-05-2015 18:25:00 19.5 C 9.73 g/m*3 19.5 C 6.4 km/h
Sensor: Nr:Datum:Temp:Abs-Feuchte:Windchill:Wind:
Aussen-T/F 1526 28-05-2015 18:30:00 19.7 C 9.51 g/m*3 19.7 C 12.9 km/h
1527 28-05-2015 18:35:00 20.1 C 9.21 g/m*3 20.1 C 11.3 km/h
1528 28-05-2015 18:40:00 20.6 C 8.59 g/m*3 20.6 C 14.5 km/h
1529 28-05-2015 18:45:00 20.7 C 8.46 g/m*3 20.7 C 14.5 km/h
1530 28-05-2015 18:50:00 20.3 C 8.44 g/m*3 20.3 C 9.7 km/h
1531 28-05-2015 18:55:00 19.9 C 8.59 g/m*3 19.9 C 12.9 km/h
1532 28-05-2015 19:00:00 19.7 C 8.83 g/m*3 19.7 C 9.7 km/h
1533 28-05-2015 19:05:00 19.4 C 8.84 g/m*3 19.4 C 12.9 km/h
1534 28-05-2015 19:10:00 19.3 C 8.79 g/m*3 19.3 C 19.3 km/h
1535 28-05-2015 19:15:00 19.2 C 8.9 g/m*3 19.2 C 12.9 km/h
1536 28-05-2015 19:20:00 19.2 C 8.9 g/m*3 19.2 C 12.9 km/h
1537 28-05-2015 19:25:00 19.1 C 8.69 g/m*3 19.1 C 14.5 km/h
1538 28-05-2015 19:30:00 19 C 8.8 g/m*3 19 C 17.7 km/h
1539 28-05-2015 19:35:00 18.8 C 8.7 g/m*3 18.8 C 14.5 km/h
1540 28-05-2015 19:40:00 18.7 C 8.81 g/m*3 18.7 C 12.9 km/h
1541 28-05-2015 19:45:00 18.6 C 8.91 g/m*3 18.6 C 12.9 km/h
1542 28-05-2015 19:50:00 18.5 C 8.86 g/m*3 18.5 C 12.9 km/h
1543 28-05-2015 19:55:00 18.5 C 8.7 g/m*3 18.5 C 12.9 km/h
1544 28-05-2015 20:00:00 18.5 C 8.7 g/m*3 18.5 C 9.7 km/h
1545 28-05-2015 20:05:00 18.4 C 8.81 g/m*3 18.4 C 9.7 km/h
1546 28-05-2015 20:10:00 18.2 C 8.7 g/m*3 18.2 C 9.7 km/h
1547 28-05-2015 20:15:00 17.9 C 8.55 g/m*3 17.9 C 11.3 km/h
1548 28-05-2015 20:20:00 17.7 C 8.45 g/m*3 17.7 C 8.1 km/h
1549 28-05-2015 20:25:00 17.6 C 8.4 g/m*3 17.6 C 11.3 km/h
1550 28-05-2015 20:30:00 17.4 C 8.45 g/m*3 17.4 C 6.4 km/h
Sensor: Nr:Datum:Temp:Abs-Feuchte:Windchill:Wind:
Aussen-T/F 1551 28-05-2015 20:35:00 17.3 C 8.54 g/m*3 17.3 C 6.4 km/h
1552 28-05-2015 20:40:00 17.1 C 8.44 g/m*3 17.1 C 4.8 km/h
1553 28-05-2015 20:45:00 17.1 C 8.59 g/m*3 17.1 C 8.1 km/h
1554 28-05-2015 20:50:00 16.9 C 8.49 g/m*3 16.9 C 1.6 km/h
1555 28-05-2015 20:55:00 16.8 C 8.44 g/m*3 16.8 C 1.6 km/h
1556 28-05-2015 21:00:00 16.7 C 8.53 g/m*3 16.7 C 1.6 km/h
1557 28-05-2015 21:05:00 16.5 C 8.85 g/m*3 16.5 C 1.6 km/h
1558 28-05-2015 21:10:00 16.3 C 8.6 g/m*3 16.3 C 1.6 km/h
1559 28-05-2015 21:15:00 16.1 C 8.64 g/m*3 16.1 C 1.6 km/h
1560 28-05-2015 21:20:00 16 C 8.58 g/m*3 16 C 1.6 km/h
1561 28-05-2015 21:25:00 15.9 C 8.53 g/m*3 15.9 C 1.6 km/h
1562 28-05-2015 21:30:00 15.9 C 8.53 g/m*3 15.9 C 1.6 km/h
1563 28-05-2015 21:35:00 15.8 C 8.48 g/m*3 15.8 C 1.6 km/h
1564 28-05-2015 21:40:00 15.8 C 8.62 g/m*3 15.8 C 1.6 km/h
1565 28-05-2015 21:45:00 15.7 C 8.43 g/m*3 15.7 C 1.6 km/h
1566 28-05-2015 21:50:00 15.6 C 8.64 g/m*3 15.6 C 1.6 km/h
1567 28-05-2015 21:55:00 15.5 C 8.46 g/m*3 15.5 C 1.6 km/h
1568 28-05-2015 22:00:00 15.4 C 8.54 g/m*3 15.4 C 3.2 km/h
1569 28-05-2015 22:05:00 15.3 C 8.49 g/m*3 15.3 C 4.8 km/h
1570 28-05-2015 22:10:00 15.3 C 8.62 g/m*3 15.3 C 3.2 km/h
1571 28-05-2015 22:15:00 15.2 C 8.57 g/m*3 15.2 C 3.2 km/h
1572 28-05-2015 22:20:00 15.1 C 8.64 g/m*3 15.1 C 0 km/h
1573 28-05-2015 22:25:00 14.9 C 8.54 g/m*3 14.9 C 0 km/h
1574 28-05-2015 22:30:00 14.7 C 8.69 g/m*3 14.7 C 1.6 km/h
1575 28-05-2015 22:35:00 14.6 C 8.76 g/m*3 14.6 C 1.6 km/h
Sensor: Nr:Datum:Temp:Abs-Feuchte:Windchill:Wind:
Aussen-T/F 1576 28-05-2015 22:40:00 14.5 C 8.58 g/m*3 14.5 C 1.6 km/h
1577 28-05-2015 22:45:00 14.4 C 8.65 g/m*3 14.4 C 0 km/h
1578 28-05-2015 22:50:00 14.3 C 8.6 g/m*3 14.3 C 0 km/h
1579 28-05-2015 22:55:00 14.2 C 8.55 g/m*3 14.2 C 1.6 km/h
1580 28-05-2015 23:00:00 14.1 C 8.74 g/m*3 14.1 C 0 km/h
1581 28-05-2015 23:05:00 13.9 C 8.75 g/m*3 13.9 C 0 km/h
1582 28-05-2015 23:10:00 13.7 C 8.64 g/m*3 13.7 C 1.6 km/h
1583 28-05-2015 23:15:00 13.6 C 8.71 g/m*3 13.6 C 1.6 km/h
1584 28-05-2015 23:20:00 13.6 C 8.71 g/m*3 13.6 C 0 km/h
1585 28-05-2015 23:25:00 13.6 C 8.71 g/m*3 13.6 C 0 km/h
1586 28-05-2015 23:30:00 13.6 C 8.71 g/m*3 13.6 C 0 km/h
1587 28-05-2015 23:35:00 13.5 C 8.77 g/m*3 13.5 C 0 km/h
1588 28-05-2015 23:40:00 13.4 C 8.83 g/m*3 13.4 C 0 km/h
1589 28-05-2015 23:45:00 13.3 C 8.78 g/m*3 13.3 C 0 km/h
1590 28-05-2015 23:50:00 13.3 C 8.78 g/m*3 13.3 C 0 km/h
1591 28-05-2015 23:55:00 13.3 C 8.78 g/m*3 13.3 C 0 km/h
1592 29-05-2015 00:00:00 13.3 C 8.78 g/m*3 13.3 C 1.6 km/h
1593 29-05-2015 00:05:00 13.3 C 8.9 g/m*3 13.3 C 0 km/h
1594 29-05-2015 00:10:00 13.3 C 8.9 g/m*3 13.3 C 3.2 km/h
1595 29-05-2015 00:15:00 13.3 C 8.9 g/m*3 13.3 C 0 km/h
1596 29-05-2015 00:20:00 13.3 C 8.9 g/m*3 13.3 C 0 km/h
1597 29-05-2015 00:25:00 13.3 C 9.01 g/m*3 13.3 C 0 km/h
1598 29-05-2015 00:30:00 13.3 C 9.13 g/m*3 13.3 C 0 km/h
1599 29-05-2015 00:35:00 13.2 C 9.07 g/m*3 13.2 C 0 km/h
1600 29-05-2015 00:40:00 13.2 C 9.07 g/m*3 13.2 C 0 km/h
Sensor: Nr:Datum:Temp:Abs-Feuchte:Windchill:Wind:
Aussen-T/F 1601 29-05-2015 00:45:00 13.2 C 9.19 g/m*3 13.2 C 0 km/h
1602 29-05-2015 00:50:00 13.1 C 9.13 g/m*3 13.1 C 0 km/h
1603 29-05-2015 00:55:00 13.1 C 9.13 g/m*3 13.1 C 0 km/h
1604 29-05-2015 01:00:00 13 C 9.07 g/m*3 13 C 0 km/h
1605 29-05-2015 01:05:00 12.9 C 9.02 g/m*3 12.9 C 0 km/h
1606 29-05-2015 01:10:00 12.8 C 8.85 g/m*3 12.8 C 0 km/h
1607 29-05-2015 01:15:00 12.7 C 8.91 g/m*3 12.7 C 0 km/h
1608 29-05-2015 01:20:00 12.5 C 8.8 g/m*3 12.5 C 0 km/h
1609 29-05-2015 01:25:00 12.3 C 8.8 g/m*3 12.3 C 1.6 km/h
1610 29-05-2015 01:30:00 12.2 C 8.74 g/m*3 12.2 C 1.6 km/h
1611 29-05-2015 01:35:00 12 C 8.74 g/m*3 12 C 1.6 km/h
1612 29-05-2015 01:40:00 11.9 C 8.68 g/m*3 11.9 C 0 km/h
1613 29-05-2015 01:45:00 11.9 C 8.68 g/m*3 11.9 C 1.6 km/h
1614 29-05-2015 01:50:00 12 C 8.74 g/m*3 12 C 1.6 km/h
1615 29-05-2015 01:55:00 12.1 C 8.69 g/m*3 12.1 C 1.6 km/h
1616 29-05-2015 02:00:00 12.2 C 8.63 g/m*3 12.2 C 1.6 km/h
1617 29-05-2015 02:05:00 12.4 C 8.3 g/m*3 12.4 C 4.8 km/h
1618 29-05-2015 02:10:00 12.7 C 8.24 g/m*3 12.7 C 3.2 km/h
1619 29-05-2015 02:15:00 12.8 C 8.18 g/m*3 12.8 C 3.2 km/h
1620 29-05-2015 02:20:00 12.8 C 8.06 g/m*3 12.8 C 1.6 km/h
1621 29-05-2015 02:25:00 12.8 C 7.95 g/m*3 12.8 C 1.6 km/h
1622 29-05-2015 02:30:00 12.8 C 7.95 g/m*3 12.8 C 1.6 km/h
1623 29-05-2015 02:35:00 12.7 C 8.01 g/m*3 12.7 C 1.6 km/h
1624 29-05-2015 02:40:00 12.6 C 8.19 g/m*3 12.6 C 1.6 km/h
1625 29-05-2015 02:45:00 12.4 C 8.09 g/m*3 12.4 C 1.6 km/h
Sensor: Nr:Datum:Temp:Abs-Feuchte:Windchill:Wind:
Aussen-T/F 1626 29-05-2015 02:50:00 12.3 C 8.14 g/m*3 12.3 C 1.6 km/h
1627 29-05-2015 02:55:00 12.1 C 8.15 g/m*3 12.1 C 1.6 km/h
1628 29-05-2015 03:00:00 11.9 C 8.15 g/m*3 11.9 C 1.6 km/h
1629 29-05-2015 03:05:00 11.8 C 8 g/m*3 11.8 C 0 km/h
1630 29-05-2015 03:10:00 11.8 C 7.89 g/m*3 11.8 C 1.6 km/h
1631 29-05-2015 03:15:00 11.7 C 8.05 g/m*3 11.7 C 0 km/h
1632 29-05-2015 03:20:00 11.6 C 7.9 g/m*3 11.6 C 0 km/h
1633 29-05-2015 03:25:00 11.3 C 7.85 g/m*3 11.3 C 1.6 km/h
1634 29-05-2015 03:30:00 11.2 C 7.91 g/m*3 11.2 C 0 km/h
1635 29-05-2015 03:35:00 11 C 7.81 g/m*3 11 C 0 km/h
1636 29-05-2015 03:40:00 10.8 C 7.81 g/m*3 10.8 C 0 km/h
1637 29-05-2015 03:45:00 10.7 C 7.76 g/m*3 10.7 C 0 km/h
1638 29-05-2015 03:50:00 10.4 C 7.61 g/m*3 10.4 C 0 km/h
1639 29-05-2015 03:55:00 10.4 C 7.61 g/m*3 10.4 C 1.6 km/h
1640 29-05-2015 04:00:00 10.3 C 7.66 g/m*3 10.3 C 0 km/h
1641 29-05-2015 04:05:00 10.2 C 7.61 g/m*3 10.2 C 0 km/h
1642 29-05-2015 04:10:00 10 C 7.61 g/m*3 10 C 0 km/h
1643 29-05-2015 04:15:00 9.8 C 7.52 g/m*3 9.8 C 0 km/h
1644 29-05-2015 04:20:00 9.7 C 7.47 g/m*3 9.7 C 0 km/h
1645 29-05-2015 04:25:00 9.4 C 7.42 g/m*3 9.4 C 0 km/h
1646 29-05-2015 04:30:00 9.3 C 7.37 g/m*3 9.3 C 0 km/h
1647 29-05-2015 04:35:00 9.2 C 7.41 g/m*3 9.2 C 0 km/h
1648 29-05-2015 04:40:00 9.1 C 7.36 g/m*3 9.1 C 0 km/h
1649 29-05-2015 04:45:00 9.1 C 7.36 g/m*3 9.1 C 0 km/h
1650 29-05-2015 04:50:00 9.1 C 7.45 g/m*3 9.1 C 4.8 km/h
Sensor: Nr:Datum:Temp:Abs-Feuchte:Windchill:Wind:
Aussen-T/F 1651 29-05-2015 04:55:00 9.1 C 7.45 g/m*3 9.1 C 3.2 km/h
1652 29-05-2015 05:00:00 9.1 C 7.45 g/m*3 9.1 C 1.6 km/h
1653 29-05-2015 05:05:00 8.9 C 7.36 g/m*3 8.9 C 0 km/h
1654 29-05-2015 05:10:00 8.9 C 7.45 g/m*3 8.9 C 1.6 km/h
1655 29-05-2015 05:15:00 8.9 C 7.45 g/m*3 8.9 C 1.6 km/h
1656 29-05-2015 05:20:00 8.9 C 7.53 g/m*3 8.9 C 0 km/h
1657 29-05-2015 05:25:00 8.8 C 7.49 g/m*3 8.8 C 0 km/h
1658 29-05-2015 05:30:00 8.8 C 7.49 g/m*3 8.8 C 0 km/h
1659 29-05-2015 05:35:00 8.7 C 7.52 g/m*3 8.7 C 1.6 km/h
1660 29-05-2015 05:40:00 8.8 C 7.57 g/m*3 8.8 C 0 km/h
1661 29-05-2015 05:45:00 8.8 C 7.49 g/m*3 8.8 C 0 km/h
1662 29-05-2015 05:50:00 8.8 C 7.49 g/m*3 8.8 C 0 km/h
1663 29-05-2015 05:55:00 8.8 C 7.49 g/m*3 8.8 C 1.6 km/h
1664 29-05-2015 06:00:00 8.7 C 7.52 g/m*3 8.7 C 3.2 km/h
1665 29-05-2015 06:05:00 8.7 C 7.52 g/m*3 8.7 C 1.6 km/h
1666 29-05-2015 06:10:00 8.6 C 7.48 g/m*3 8.6 C 0 km/h
1667 29-05-2015 06:15:00 8.6 C 7.56 g/m*3 8.6 C 0 km/h
1668 29-05-2015 06:20:00 8.5 C 7.51 g/m*3 8.5 C 0 km/h
1669 29-05-2015 06:25:00 8.5 C 7.51 g/m*3 8.5 C 0 km/h
1670 29-05-2015 06:30:00 8.6 C 7.65 g/m*3 8.6 C 3.2 km/h
1671 29-05-2015 06:35:00 8.7 C 7.7 g/m*3 8.7 C 3.2 km/h
1672 29-05-2015 06:40:00 8.8 C 7.75 g/m*3 8.8 C 0 km/h
1673 29-05-2015 06:45:00 8.9 C 7.8 g/m*3 8.9 C 1.6 km/h
1674 29-05-2015 06:50:00 9.1 C 7.9 g/m*3 7.93 C 8.1 km/h
1675 29-05-2015 06:55:00 9.2 C 7.86 g/m*3 8.05 C 8.1 km/h
Sensor: Nr:Datum:Temp:Abs-Feuchte:Windchill:Wind:
Aussen-T/F 1676 29-05-2015 07:00:00 9.2 C 7.86 g/m*3 8.05 C 8.1 km/h
1677 29-05-2015 07:05:00 9.2 C 7.86 g/m*3 9.2 C 3.2 km/h
1678 29-05-2015 07:10:00 9.2 C 7.86 g/m*3 9.2 C 1.6 km/h
1679 29-05-2015 07:15:00 9.2 C 7.86 g/m*3 9.2 C 3.2 km/h
1680 29-05-2015 07:20:00 9.2 C 7.86 g/m*3 9.2 C 1.6 km/h
1681 29-05-2015 07:25:00 9.3 C 7.91 g/m*3 9.3 C 3.2 km/h
1682 29-05-2015 07:30:00 9.4 C 7.96 g/m*3 9.4 C 4.8 km/h
1683 29-05-2015 07:35:00 9.4 C 7.96 g/m*3 8.28 C 8.1 km/h
1684 29-05-2015 07:40:00 9.6 C 8.06 g/m*3 9.6 C 4.8 km/h
1685 29-05-2015 07:45:00 9.7 C 8.11 g/m*3 9.02 C 6.4 km/h
1686 29-05-2015 07:50:00 9.8 C 8.16 g/m*3 9.8 C 1.6 km/h
1687 29-05-2015 07:55:00 9.9 C 8.12 g/m*3 9.9 C 3.2 km/h
1688 29-05-2015 08:00:00 10.1 C 8.23 g/m*3 10.1 C 1.6 km/h
1689 29-05-2015 08:05:00 10.4 C 8.38 g/m*3 10.4 C 4.8 km/h
1690 29-05-2015 08:10:00 10.6 C 8.39 g/m*3 10.6 C 1.6 km/h
1691 29-05-2015 08:15:00 10.8 C 8.4 g/m*3 10.8 C 0 km/h
1692 29-05-2015 08:20:00 10.9 C 8.36 g/m*3 10.9 C 0 km/h
1693 29-05-2015 08:25:00 11.2 C 8.51 g/m*3 11.2 C 1.6 km/h
1694 29-05-2015 08:30:00 11.4 C 8.52 g/m*3 11.4 C 1.6 km/h
1695 29-05-2015 08:35:00 11.8 C 8.63 g/m*3 11.8 C 3.2 km/h
1696 29-05-2015 08:40:00 12.1 C 8.58 g/m*3 12.1 C 4.8 km/h
1697 29-05-2015 08:45:00 12.4 C 8.52 g/m*3 12.4 C 4.8 km/h
1698 29-05-2015 08:50:00 12.7 C 8.35 g/m*3 12.7 C 6.4 km/h
1699 29-05-2015 08:55:00 12.8 C 8.29 g/m*3 12.8 C 6.4 km/h
1700 29-05-2015 09:00:00 13.1 C 8.33 g/m*3 13.1 C 8.1 km/h
Sensor: Nr:Datum:Temp:Abs-Feuchte:Windchill:Wind:
Aussen-T/F 1701 29-05-2015 09:05:00 13.3 C 8.32 g/m*3 13.3 C 6.4 km/h
1702 29-05-2015 09:10:00 13.5 C 8.3 g/m*3 13.5 C 8.1 km/h
1703 29-05-2015 09:15:00 13.7 C 8.29 g/m*3 13.7 C 9.7 km/h
1704 29-05-2015 09:20:00 13.7 C 8.17 g/m*3 13.7 C 9.7 km/h
1705 29-05-2015 09:25:00 13.8 C 8.34 g/m*3 13.8 C 8.1 km/h
1706 29-05-2015 09:30:00 13.9 C 8.15 g/m*3 13.9 C 6.4 km/h
1707 29-05-2015 09:35:00 14.1 C 8.37 g/m*3 14.1 C 8.1 km/h
1708 29-05-2015 09:40:00 14.2 C 8.3 g/m*3 14.2 C 6.4 km/h
1709 29-05-2015 09:45:00 14.1 C 8.37 g/m*3 14.1 C 11.3 km/h
1710 29-05-2015 09:50:00 13.8 C 8.22 g/m*3 13.8 C 9.7 km/h
1711 29-05-2015 09:55:00 13.7 C 8.29 g/m*3 13.7 C 8.1 km/h
1712 29-05-2015 10:00:00 13.6 C 8.12 g/m*3 13.6 C 9.7 km/h
1713 29-05-2015 10:05:00 13.5 C 8.19 g/m*3 13.5 C 3.2 km/h
1714 29-05-2015 10:10:00 13.4 C 8.14 g/m*3 13.4 C 9.7 km/h
1715 29-05-2015 10:15:00 13.3 C 8.43 g/m*3 13.3 C 8.1 km/h
1716 29-05-2015 10:20:00 13.2 C 8.73 g/m*3 13.2 C 0 km/h
1717 29-05-2015 10:25:00 13.1 C 8.56 g/m*3 13.1 C 1.6 km/h
1718 29-05-2015 10:30:00 13 C 8.51 g/m*3 13 C 1.6 km/h
1719 29-05-2015 10:35:00 13.1 C 8.56 g/m*3 13.1 C 4.8 km/h
1720 29-05-2015 10:40:00 13.1 C 8.56 g/m*3 13.1 C 3.2 km/h
1721 29-05-2015 10:45:00 13.3 C 8.55 g/m*3 13.3 C 8.1 km/h
1722 29-05-2015 10:50:00 13.4 C 8.37 g/m*3 13.4 C 11.3 km/h
1723 29-05-2015 10:55:00 13.5 C 8.42 g/m*3 13.5 C 9.7 km/h
1724 29-05-2015 11:00:00 13.6 C 8.59 g/m*3 13.6 C 1.6 km/h
1725 29-05-2015 11:05:00 13.7 C 8.53 g/m*3 13.7 C 1.6 km/h
Sensor: Nr:Datum:Temp:Abs-Feuchte:Windchill:Wind:
Aussen-T/F 1726 29-05-2015 11:10:00 13.9 C 8.51 g/m*3 13.9 C 4.8 km/h
1727 29-05-2015 11:15:00 13.9 C 8.51 g/m*3 13.9 C 3.2 km/h
1728 29-05-2015 11:20:00 14.1 C 8.62 g/m*3 14.1 C 1.6 km/h
1729 29-05-2015 11:25:00 14.1 C 8.74 g/m*3 14.1 C 1.6 km/h
1730 29-05-2015 11:30:00 14.2 C 8.55 g/m*3 14.2 C 4.8 km/h
1731 29-05-2015 11:35:00 14.4 C 8.53 g/m*3 14.4 C 6.4 km/h
1732 29-05-2015 11:40:00 14.7 C 8.69 g/m*3 14.7 C 3.2 km/h
1733 29-05-2015 11:45:00 15 C 8.72 g/m*3 15 C 3.2 km/h
1734 29-05-2015 11:50:00 15.2 C 8.7 g/m*3 15.2 C 8.1 km/h
1735 29-05-2015 11:55:00 15.3 C 8.49 g/m*3 15.3 C 8.1 km/h
1736 29-05-2015 12:00:00 15.5 C 8.72 g/m*3 15.5 C 3.2 km/h
1737 29-05-2015 12:05:00 15.6 C 8.78 g/m*3 15.6 C 3.2 km/h
1738 29-05-2015 12:10:00 15.6 C 8.78 g/m*3 15.6 C 6.4 km/h
1739 29-05-2015 12:15:00 15.6 C 8.78 g/m*3 15.6 C 6.4 km/h
1740 29-05-2015 12:20:00 15.7 C 8.83 g/m*3 15.7 C 4.8 km/h
1741 29-05-2015 12:25:00 15.9 C 8.94 g/m*3 15.9 C 4.8 km/h
1742 29-05-2015 12:30:00 15.8 C 9.42 g/m*3 15.8 C 6.4 km/h
1743 29-05-2015 12:35:00 15.6 C 9.44 g/m*3 15.6 C 6.4 km/h
1744 29-05-2015 12:40:00 15.3 C 9.53 g/m*3 15.3 C 4.8 km/h
1745 29-05-2015 12:45:00 15.3 C 9.92 g/m*3 15.3 C 8.1 km/h
1746 29-05-2015 12:50:00 15.7 C 10.03 g/m*3 15.7 C 9.7 km/h
1747 29-05-2015 12:55:00 16.1 C 10.28 g/m*3 16.1 C 8.1 km/h
1748 29-05-2015 13:00:00 16.3 C 10.13 g/m*3 16.3 C 9.7 km/h
1749 29-05-2015 13:05:00 16.5 C 9.83 g/m*3 16.5 C 8.1 km/h
1750 29-05-2015 13:10:00 16.6 C 9.46 g/m*3 16.6 C 12.9 km/h
Sensor: Nr:Datum:Temp:Abs-Feuchte:Windchill:Wind:
Aussen-T/F 1751 29-05-2015 13:15:00 16.4 C 9.49 g/m*3 16.4 C 9.7 km/h
1752 29-05-2015 13:20:00 16.3 C 9.43 g/m*3 16.3 C 11.3 km/h
1753 29-05-2015 13:25:00 16.1 C 9.46 g/m*3 16.1 C 11.3 km/h
1754 29-05-2015 13:30:00 15.8 C 9.42 g/m*3 15.8 C 8.1 km/h
1755 29-05-2015 13:35:00 15.4 C 9.2 g/m*3 15.4 C 8.1 km/h
1756 29-05-2015 13:40:00 15.1 C 9.29 g/m*3 15.1 C 8.1 km/h
1757 29-05-2015 13:45:00 14.8 C 9.12 g/m*3 14.8 C 8.1 km/h
1758 29-05-2015 13:50:00 14.7 C 9.19 g/m*3 14.7 C 3.2 km/h
1759 29-05-2015 13:55:00 14.6 C 9.13 g/m*3 14.6 C 4.8 km/h
1760 29-05-2015 14:00:00 14.6 C 9.01 g/m*3 14.6 C 9.7 km/h
1761 29-05-2015 14:05:00 14.6 C 9.13 g/m*3 14.6 C 11.3 km/h
1762 29-05-2015 14:10:00 14.7 C 9.44 g/m*3 14.7 C 8.1 km/h
1763 29-05-2015 14:15:00 14.8 C 9.5 g/m*3 14.8 C 6.4 km/h
1764 29-05-2015 14:20:00 14.9 C 9.56 g/m*3 14.9 C 9.7 km/h
1765 29-05-2015 14:25:00 14.8 C 9.5 g/m*3 14.8 C 6.4 km/h
1766 29-05-2015 14:30:00 14.7 C 9.69 g/m*3 14.7 C 6.4 km/h
1767 29-05-2015 14:35:00 14.5 C 9.95 g/m*3 14.5 C 3.2 km/h
1768 29-05-2015 14:40:00 14.3 C 10.07 g/m*3 14.3 C 1.6 km/h
1769 29-05-2015 14:45:00 14.1 C 9.95 g/m*3 14.1 C 0 km/h
1770 29-05-2015 14:50:00 14.1 C 9.95 g/m*3 14.1 C 3.2 km/h
1771 29-05-2015 15:30:00 13.6 C 10.47 g/m*3 13.6 C 1.6 km/h
1772 29-05-2015 15:35:00 13.6 C 10.47 g/m*3 13.6 C 0 km/h
1773 29-05-2015 15:40:00 13.6 C 10.47 g/m*3 13.6 C 0 km/h
1774 29-05-2015 15:45:00 13.7 C 10.54 g/m*3 13.7 C 1.6 km/h
1775 29-05-2015 15:50:00 13.7 C 10.54 g/m*3 13.7 C 1.6 km/h
Sensor: Nr:Datum:Temp:Abs-Feuchte:Windchill:Wind:
Aussen-T/F 1776 29-05-2015 15:55:00 13.8 C 10.6 g/m*3 13.8 C 4.8 km/h
1777 29-05-2015 16:00:00 13.8 C 10.48 g/m*3 13.8 C 6.4 km/h
1778 29-05-2015 16:05:00 13.9 C 10.55 g/m*3 13.9 C 6.4 km/h
1779 29-05-2015 16:10:00 14.2 C 10.75 g/m*3 14.2 C 8.1 km/h
1780 29-05-2015 16:15:00 14.5 C 10.94 g/m*3 14.5 C 8.1 km/h
1781 29-05-2015 16:20:00 14.7 C 10.7 g/m*3 14.7 C 9.7 km/h
1782 29-05-2015 16:25:00 14.6 C 10.51 g/m*3 14.6 C 14.5 km/h
1783 29-05-2015 16:30:00 14.5 C 10.57 g/m*3 14.5 C 8.1 km/h
1784 29-05-2015 16:35:00 14.4 C 10.51 g/m*3 14.4 C 11.3 km/h
1785 29-05-2015 16:40:00 14.3 C 10.44 g/m*3 14.3 C 9.7 km/h
1786 29-05-2015 16:45:00 14.3 C 10.44 g/m*3 14.3 C 3.2 km/h
1787 29-05-2015 16:50:00 14.3 C 10.57 g/m*3 14.3 C 4.8 km/h
1788 29-05-2015 16:55:00 14.3 C 10.57 g/m*3 14.3 C 3.2 km/h
1789 29-05-2015 17:00:00 14.4 C 10.63 g/m*3 14.4 C 8.1 km/h
1790 29-05-2015 17:05:00 14.4 C 10.51 g/m*3 14.4 C 4.8 km/h
1791 29-05-2015 17:10:00 14.7 C 10.83 g/m*3 14.7 C 9.7 km/h
1792 29-05-2015 17:15:00 15.1 C 10.84 g/m*3 15.1 C 6.4 km/h
1793 29-05-2015 17:20:00 15.3 C 10.58 g/m*3 15.3 C 11.3 km/h
1794 29-05-2015 17:25:00 15.5 C 10.71 g/m*3 15.5 C 11.3 km/h
1795 29-05-2015 17:30:00 15.7 C 10.84 g/m*3 15.7 C 11.3 km/h
1796 29-05-2015 17:35:00 15.9 C 10.83 g/m*3 15.9 C 9.7 km/h
1797 29-05-2015 17:40:00 16.2 C 10.89 g/m*3 16.2 C 6.4 km/h
1798 29-05-2015 17:45:00 16.2 C 10.48 g/m*3 16.2 C 17.7 km/h
1799 29-05-2015 17:50:00 16.1 C 10.42 g/m*3 16.1 C 17.7 km/h
1800 29-05-2015 17:55:00 16.1 C 10.55 g/m*3 16.1 C 9.7 km/h
Sensor: Nr:Datum:Temp:Abs-Feuchte:Windchill:Wind:
Aussen-T/F 1801 29-05-2015 18:00:00 16.2 C 10.62 g/m*3 16.2 C 11.3 km/h
1802 29-05-2015 18:05:00 16.3 C 10.41 g/m*3 16.3 C 17.7 km/h
1803 29-05-2015 18:10:00 16.5 C 10.39 g/m*3 16.5 C 17.7 km/h
1804 29-05-2015 18:15:00 16.8 C 10.58 g/m*3 16.8 C 12.9 km/h
1805 29-05-2015 18:20:00 16.6 C 10.17 g/m*3 16.6 C 12.9 km/h
1806 29-05-2015 18:25:00 16.5 C 10.11 g/m*3 16.5 C 14.5 km/h
1807 29-05-2015 18:30:00 16.4 C 9.91 g/m*3 16.4 C 19.3 km/h
1808 29-05-2015 18:35:00 16.2 C 10.07 g/m*3 16.2 C 19.3 km/h
1809 29-05-2015 18:40:00 16.1 C 10.01 g/m*3 16.1 C 9.7 km/h
1810 29-05-2015 18:45:00 16.2 C 10.07 g/m*3 16.2 C 11.3 km/h
1811 29-05-2015 18:50:00 16.3 C 9.99 g/m*3 16.3 C 11.3 km/h
1812 29-05-2015 18:55:00 16.1 C 10.01 g/m*3 16.1 C 3.2 km/h
1813 29-05-2015 19:00:00 16.1 C 10.01 g/m*3 16.1 C 3.2 km/h
1814 29-05-2015 19:05:00 15.9 C 9.75 g/m*3 15.9 C 9.7 km/h
1815 29-05-2015 19:10:00 15.8 C 9.56 g/m*3 15.8 C 9.7 km/h
1816 29-05-2015 19:15:00 15.8 C 9.42 g/m*3 15.8 C 17.7 km/h
1817 29-05-2015 19:20:00 16.1 C 9.46 g/m*3 16.1 C 11.3 km/h
1818 29-05-2015 19:25:00 16.3 C 9.3 g/m*3 16.3 C 9.7 km/h
1819 29-05-2015 19:30:00 16.4 C 9.21 g/m*3 16.4 C 14.5 km/h
1820 29-05-2015 19:35:00 16.2 C 8.83 g/m*3 16.2 C 19.3 km/h
1821 29-05-2015 19:40:00 16.1 C 8.91 g/m*3 16.1 C 14.5 km/h
1822 29-05-2015 19:45:00 16.1 C 9.05 g/m*3 16.1 C 4.8 km/h
1823 29-05-2015 19:50:00 16 C 8.72 g/m*3 16 C 11.3 km/h
1824 29-05-2015 19:55:00 15.8 C 8.62 g/m*3 15.8 C 8.1 km/h
1825 29-05-2015 20:00:00 15.8 C 8.62 g/m*3 15.8 C 16.1 km/h
Sensor: Nr:Datum:Temp:Abs-Feuchte:Windchill:Wind:
Aussen-T/F 1826 29-05-2015 20:05:00 15.7 C 8.56 g/m*3 15.7 C 12.9 km/h
1827 29-05-2015 20:10:00 15.5 C 8.46 g/m*3 15.5 C 11.3 km/h
1828 29-05-2015 20:15:00 15.3 C 8.49 g/m*3 15.3 C 11.3 km/h
1829 29-05-2015 20:20:00 15.3 C 8.62 g/m*3 15.3 C 8.1 km/h
1830 29-05-2015 20:25:00 15.3 C 8.62 g/m*3 15.3 C 6.4 km/h
1831 29-05-2015 20:30:00 15.2 C 8.7 g/m*3 15.2 C 3.2 km/h
1832 29-05-2015 20:35:00 15.1 C 8.77 g/m*3 15.1 C 1.6 km/h
1833 29-05-2015 20:40:00 15 C 8.72 g/m*3 15 C 11.3 km/h
1834 29-05-2015 20:45:00 14.9 C 8.67 g/m*3 14.9 C 12.9 km/h
1835 29-05-2015 20:50:00 14.9 C 8.67 g/m*3 14.9 C 6.4 km/h
1836 29-05-2015 20:55:00 14.9 C 8.54 g/m*3 14.9 C 9.7 km/h
1837 29-05-2015 21:00:00 14.9 C 8.67 g/m*3 14.9 C 6.4 km/h
1838 29-05-2015 21:05:00 14.9 C 8.54 g/m*3 14.9 C 12.9 km/h
1839 29-05-2015 21:10:00 14.9 C 8.54 g/m*3 14.9 C 6.4 km/h
1840 29-05-2015 21:15:00 14.8 C 8.49 g/m*3 14.8 C 4.8 km/h
1841 29-05-2015 21:20:00 14.8 C 8.49 g/m*3 14.8 C 3.2 km/h
1842 29-05-2015 21:25:00 14.8 C 8.36 g/m*3 14.8 C 3.2 km/h
1843 29-05-2015 21:30:00 14.8 C 8.49 g/m*3 14.8 C 11.3 km/h
1844 29-05-2015 21:35:00 14.8 C 8.36 g/m*3 14.8 C 9.7 km/h
1845 29-05-2015 21:40:00 14.8 C 8.36 g/m*3 14.8 C 11.3 km/h
1846 29-05-2015 21:45:00 14.7 C 8.18 g/m*3 14.7 C 9.7 km/h
1847 29-05-2015 21:50:00 14.7 C 8.31 g/m*3 14.7 C 4.8 km/h
1848 29-05-2015 21:55:00 14.7 C 8.18 g/m*3 14.7 C 11.3 km/h
1849 29-05-2015 22:00:00 14.6 C 8.26 g/m*3 14.6 C 8.1 km/h
1850 29-05-2015 22:05:00 14.6 C 8.26 g/m*3 14.6 C 3.2 km/h
Sensor: Nr:Datum:Temp:Abs-Feuchte:Windchill:Wind:
Aussen-T/F 1851 29-05-2015 22:10:00 14.5 C 8.08 g/m*3 14.5 C 3.2 km/h
1852 29-05-2015 22:15:00 14.5 C 8.21 g/m*3 14.5 C 6.4 km/h
1853 29-05-2015 22:20:00 14.4 C 8.16 g/m*3 14.4 C 8.1 km/h
1854 29-05-2015 22:25:00 14.4 C 8.03 g/m*3 14.4 C 8.1 km/h
1855 29-05-2015 22:30:00 14.4 C 8.28 g/m*3 14.4 C 3.2 km/h
1856 29-05-2015 22:35:00 14.3 C 7.99 g/m*3 14.3 C 3.2 km/h
1857 29-05-2015 22:40:00 14.3 C 7.99 g/m*3 14.3 C 4.8 km/h
1858 29-05-2015 22:45:00 14.3 C 8.11 g/m*3 14.3 C 3.2 km/h
1859 29-05-2015 22:50:00 14.3 C 8.35 g/m*3 14.3 C 3.2 km/h
1860 29-05-2015 22:55:00 14.2 C 8.18 g/m*3 14.2 C 0 km/h
1861 29-05-2015 23:00:00 14.2 C 8.43 g/m*3 14.2 C 1.6 km/h
1862 29-05-2015 23:05:00 14.1 C 8.74 g/m*3 14.1 C 3.2 km/h
1863 29-05-2015 23:10:00 13.9 C 8.39 g/m*3 13.9 C 0 km/h
1864 29-05-2015 23:15:00 13.8 C 8.7 g/m*3 13.8 C 1.6 km/h
1865 29-05-2015 23:20:00 13.8 C 8.1 g/m*3 13.8 C 1.6 km/h
1866 29-05-2015 23:25:00 14.1 C 8.13 g/m*3 14.1 C 6.4 km/h
1867 29-05-2015 23:30:00 14.2 C 8.3 g/m*3 14.2 C 6.4 km/h
1868 29-05-2015 23:35:00 14.2 C 8.55 g/m*3 14.2 C 0 km/h
1869 29-05-2015 23:40:00 14 C 8.44 g/m*3 14 C 3.2 km/h
1870 29-05-2015 23:45:00 13.8 C 8.7 g/m*3 13.8 C 0 km/h
1871 29-05-2015 23:50:00 13.7 C 8.76 g/m*3 13.7 C 0 km/h
1872 29-05-2015 23:55:00 13.6 C 8.36 g/m*3 13.6 C 1.6 km/h

Legende:
   Min
   Max


Maximal/Minimal-Werte vom 23.05.2015 - 29.05.2015

Sensor Min Max Avg
Temp
(Aussen-T/F)
6.3 °C
27-05-2015  03:15:00
23.8 °C
24-05-2015  15:15:00
13.97 °C
Abs-Feuchte
(Aussen-T/F)
6.28 g/m*3
27-05-2015  11:50:00
13.14 g/m*3
25-05-2015  14:00:00
8.87 g/m*3
Windchill
(Aussen-T/F)
5.67 C
27-05-2015  04:45:00
23.8 C
24-05-2015  15:15:00
13.95 C

Die Daten stammen von einer Davis Vantage Pro 2 Wetter-Station und werden unter Linux mit der Software wview2wettercgi und aufbereitet. Alle Angaben erfolgen ohne Gewähr für ihre Vollständigkeit oder Richtigkeit.
Kontakt: Rainer Krienke krienke@uni-koblenz.de . Meine Webseiten an der Uni Koblenz oder privat.
Version: $Revision: 0.78 $